Date StartTime U_cm/s V_cm/s W_cm/s Ustd_cm/s Vstd_cm/s Wstd_cm/s Uvar_(cm/s)^2 Vvar_(cm/s)^2 Wvar_(cm/s)^2 KE_(m/s)^2 TurbulentKE_(m/s)^2 HorizWindSpeed_cm/s FrictionSpeec_cm/s DragCoef SpeedOfSound_m/s SonicTemperature_C Pressure_mb 
09/18/2013  00:00:00     -205.981      257.454      -43.903      115.264      105.542       65.469    13285.888    11139.061     4286.187        6.967        1.436      329.713       66.431        0.041      339.459       12.804      859.934
09/18/2013  00:01:00     -167.494      183.832      -25.420       98.604      110.191       69.381     9722.830    12141.962     4813.671        4.458        1.334      248.694       70.735        0.081      339.470       12.822      859.934
09/18/2013  00:02:00     -151.848      171.094      -23.748       99.721       96.700       54.308     9944.275     9350.881     2949.384        3.757        1.112      228.760       30.294        0.018      339.463       12.809      859.918
09/18/2013  00:03:00     -174.894      229.615      -31.371      110.018      103.002       65.752    12103.948    10609.478     4323.309        5.566        1.352      288.637       69.760        0.058      339.455       12.796      859.917
09/18/2013  00:04:00     -132.255      187.848      -18.287       71.002       90.306       53.999     5041.331     8155.263     2915.887        3.461        0.806      229.735       41.419        0.033      339.488       12.853      859.913
09/18/2013  00:05:00     -172.916      196.840      -35.057       95.882      101.472       56.326     9193.443    10296.595     3172.580        4.626        1.133      262.004       52.845        0.041      339.485       12.845      859.899
09/18/2013  00:06:00     -170.743      236.876      -22.647      114.047      116.957       66.529    13006.685    13678.869     4426.067        5.844        1.556      291.999       79.118        0.073      339.465       12.813      859.893
09/18/2013  00:07:00     -132.165      272.929      -34.320       82.180       93.553       60.590     6753.513     8752.074     3671.107        5.615        0.959      303.246       57.342        0.036      339.475       12.829      859.903
09/18/2013  00:08:00     -138.804      282.091      -39.346       63.759       82.295       48.823     4065.236     6772.474     2383.644        5.680        0.661      314.391       36.798        0.014      339.475       12.830      859.906
09/18/2013  00:09:00     -144.686      211.528      -25.234       92.700      110.854       65.135     8593.381    12288.609     4242.572        4.571        1.256      256.278       67.889        0.070      339.492       12.860      859.895
09/18/2013  00:10:00     -214.524      241.921      -37.019       92.637      108.859       59.170     8581.669    11850.235     3501.053        6.492        1.197      323.336       52.946        0.027      339.494       12.862      859.907
09/18/2013  00:11:00     -136.866      243.200      -46.709       80.191      101.367       53.869     6430.643    10275.336     2901.878        4.983        0.980      279.067       50.847        0.033      339.489       12.853      859.922
09/18/2013  00:12:00     -181.121      257.024      -31.721      104.106      124.121       63.675    10837.997    15406.107     4054.484        6.508        1.515      314.430       66.030        0.044      339.484       12.846      859.918
09/18/2013  00:13:00     -150.083      259.378      -26.715       79.624      139.926       66.818     6339.923    19579.410     4464.664        6.044        1.519      299.670       66.472        0.049      339.477       12.832      859.905
09/18/2013  00:14:00     -142.318      271.642      -19.642      106.742      123.402       66.601    11393.774    15228.065     4435.678        6.274        1.553      306.665       62.615        0.042      339.483       12.844      859.912
09/18/2013  00:15:00     -224.435      258.301      -46.518      111.278      107.742       62.954    12382.842    11608.265     3963.155        7.360        1.398      342.185       64.449        0.035      339.500       12.872      859.916
09/18/2013  00:16:00     -198.041      229.813      -42.088      114.827       93.909       63.854    13185.138     8818.961     4077.311        5.994        1.304      303.372       64.365        0.045      339.480       12.837      859.917
09/18/2013  00:17:00     -186.820      208.598      -38.053      122.504      113.931       72.457    15007.171    12980.380     5249.979        5.654        1.662      280.027       76.783        0.075      339.455       12.797      859.922
09/18/2013  00:18:00     -173.745      275.112      -39.088      107.341      105.288       65.030    11522.016    11085.587     4228.918        6.711        1.342      325.383       64.890        0.040      339.444       12.778      859.939
09/18/2013  00:19:00     -146.966      207.679      -32.349      103.241      100.417       54.095    10658.724    10083.567     2926.243        4.472        1.183      254.420       44.855        0.031      339.449       12.785      859.958
09/18/2013  00:20:00     -149.565      325.188      -51.684       94.181      130.105       56.541     8870.146    16927.300     3196.843        7.989        1.450      357.934       47.733        0.018      339.431       12.755      859.968
09/18/2013  00:21:00     -173.085      255.782      -50.225      155.008      117.134       64.673    24027.597    13720.404     4182.655        6.991        2.097      308.841       78.813        0.065      339.441       12.773      859.978
09/18/2013  00:22:00     -108.680      255.663      -27.356       83.250      158.339       64.145     6930.516    25071.277     4114.528        5.701        1.806      277.804       66.156        0.057      339.450       12.788      859.980
09/18/2013  00:23:00     -132.180      288.117      -42.925       94.127      143.558       57.611     8859.938    20608.949     3318.987        6.755        1.639      316.990       72.332        0.052      339.449       12.786      859.998
09/18/2013  00:24:00     -127.834      209.784      -18.571       91.879       93.188       59.253     8441.702     8684.020     3510.906        4.066        1.032      245.664       50.784        0.043      339.424       12.744      860.021
09/18/2013  00:25:00      -82.291      176.184      -12.663       97.775       84.913       50.334     9559.906     7210.173     2533.466        2.863        0.965      194.455       47.886        0.061      339.412       12.725      860.017
09/18/2013  00:26:00      -93.906      198.674      -16.963       86.873      112.660       50.165     7546.985    12692.296     2516.479        3.566        1.138      219.749       54.729        0.062      339.424       12.746      860.012
09/18/2013  00:27:00     -158.704      215.846      -41.552       92.961      115.589       50.896     8641.716    13360.828     2590.446        4.904        1.230      267.911       66.332        0.061      339.415       12.729      860.012
09/18/2013  00:28:00      -67.505      182.273       -2.764       85.767      165.566       78.301     7356.035    27412.024     6131.019        3.934        2.045      194.372       78.890        0.165      339.408       12.719      860.011
09/18/2013  00:29:00     -132.307      206.131      -25.215      101.031      109.232       54.435    10207.347    11931.720     2963.171        4.286        1.255      244.939       47.949        0.038      339.401       12.708      860.026
09/18/2013  00:30:00     -102.581      197.630      -20.587       88.517      102.880       45.294     7835.186    10584.224     2051.589        3.523        1.024      222.667       50.785        0.052      339.386       12.681      860.048
09/18/2013  00:31:00      -91.395      174.519      -23.725       75.005      110.640       48.032     5625.770    12241.304     2307.088        2.977        1.009      197.003       42.470        0.046      339.394       12.694      860.050
09/18/2013  00:32:00     -118.487      332.319      -38.442       74.586      102.925       47.417     5563.031    10593.594     2248.409        7.218        0.920      352.810       52.423        0.022      339.336       12.596      860.059
09/18/2013  00:33:00      -94.880      219.737      -24.246       74.365      106.598       47.402     5530.109    11363.036     2246.940        3.850        0.957      239.346       47.091        0.039      339.346       12.613      860.059
09/18/2013  00:34:00     -140.133      266.206      -36.645       90.574       86.431       52.096     8203.649     7470.370     2713.986        5.511        0.919      300.837       50.441        0.028      339.314       12.558      860.057
09/18/2013  00:35:00     -135.256      246.167      -29.664       79.563      140.765       58.802     6330.216    19814.857     3457.724        5.468        1.480      280.878       60.958        0.047      339.347       12.614      860.048
09/18/2013  00:36:00      -87.371      206.695      -19.525       78.765       98.472       57.936     6203.986     9696.767     3356.552        3.499        0.963      224.403       52.695        0.055      339.324       12.576      860.057
09/18/2013  00:37:00     -130.731      287.388      -32.426       77.004      105.209       50.382     5929.676    11068.863     2538.330        6.013        0.977      315.725       51.975        0.027      339.313       12.556      860.068
09/18/2013  00:38:00     -112.615      264.374      -35.407       81.282      130.808       53.833     6606.685    17110.639     2897.954        5.522        1.331      287.360       56.146        0.038      339.320       12.568      860.074
09/18/2013  00:39:00     -152.543      256.327      -34.458       72.603      105.950       50.398     5271.191    11225.301     2539.987        5.459        0.952      298.283       44.671        0.022      339.300       12.534      860.083
09/18/2013  00:40:00     -148.119      277.594      -36.503       71.703      109.054       48.595     5141.295    11892.757     2361.443        5.986        0.970      314.639       35.212        0.013      339.299       12.533      860.096
09/18/2013  00:41:00     -158.443      266.422      -37.269       81.385      153.937       63.290     6623.500    23696.600     4005.577        6.589        1.716      309.975       55.436        0.032      339.322       12.573      860.103
09/18/2013  00:42:00     -182.546      213.722      -46.253      110.465       99.010       50.338    12202.558     9802.909     2533.872        5.283        1.227      281.070       44.808        0.025      339.303       12.539      860.099
09/18/2013  00:43:00     -126.630      166.344      -18.562       91.432       82.642       51.501     8359.876     6829.717     2652.352        3.094        0.892      209.059       48.186        0.053      339.299       12.534      860.093
09/18/2013  00:44:00     -142.806      185.039      -31.360       72.779       70.141       45.138     5296.853     4919.825     2037.396        3.393        0.613      233.737       44.816        0.037      339.295       12.527      860.118
09/18/2013  00:45:00     -128.904      175.276      -39.556      100.040       93.676       48.245    10007.953     8775.142     2327.573        3.500        1.056      217.573       47.723        0.048      339.317       12.565      860.131
09/18/2013  00:46:00     -116.517      183.287      -24.749       70.595      111.273       48.090     4983.693    12381.718     2312.614        3.373        0.984      217.187       44.723        0.042      339.283       12.507      860.152
09/18/2013  00:47:00      -90.322      216.532      -17.610       78.996      101.812       52.108     6240.443    10365.753     2715.230        3.733        0.966      234.615       56.433        0.058      339.283       12.507      860.174
09/18/2013  00:48:00     -123.907      170.196      -26.994      124.900       90.862       62.296    15600.061     8255.922     3880.832        3.639        1.387      210.522       62.081        0.087      339.309       12.551      860.189
09/18/2013  00:49:00      -98.537      266.836      -30.161       65.158      119.423       51.219     4245.566    14261.962     2623.428        5.147        1.057      284.448       52.813        0.034      339.281       12.503      860.217
09/18/2013  00:50:00      -94.236      166.077        0.815       91.104      117.730       55.589     8299.929    13860.401     3090.170        3.085        1.263      190.950       46.727        0.060      339.319       12.569      860.238
09/18/2013  00:51:00     -108.787      152.409      -21.044       68.226      107.586       42.076     4654.802    11574.696     1770.424        2.675        0.900      187.252       39.637        0.045      339.326       12.579      860.252
09/18/2013  00:52:00     -150.322      196.209      -40.753       67.247       64.972       43.002     4522.190     4221.355     1849.168        3.667        0.530      247.173       40.639        0.027      339.271       12.484      860.258
09/18/2013  00:53:00     -109.907      194.589      -20.656       73.819       91.506       49.105     5449.275     8373.349     2411.294        3.330        0.812      223.482       44.138        0.039      339.266       12.478      860.271
09/18/2013  00:54:00      -58.591      153.455       -3.579       63.048       65.309       43.378     3974.990     4265.274     1881.630        1.856        0.506      164.260       32.197        0.038      339.242       12.440      860.260
09/18/2013  00:55:00     -112.622      109.654      -12.157       63.314       62.559       58.510     4008.635     3913.666     3423.449        1.810        0.567      157.187       29.816        0.036      339.277       12.499      860.266
09/18/2013  00:56:00      -88.280      152.777      -28.551       72.406       61.995       43.719     5242.602     3843.428     1911.320        2.147        0.550      176.449       43.430        0.061      339.253       12.458      860.265
09/18/2013  00:57:00      -51.320      162.299       -6.811       72.996       79.002       38.258     5328.400     6241.314     1463.639        2.102        0.652      170.219       42.821        0.063      339.225       12.411      860.270
09/18/2013  00:58:00       -3.877      173.109       -3.596       42.844       69.439       42.341     1835.586     4821.775     1792.742        1.922        0.423      173.152       38.867        0.050      339.230       12.419      860.274
09/18/2013  00:59:00      -46.541      136.670      -15.749       36.089       49.729       21.930     1302.433     2472.950      480.934        1.267        0.213      144.377       25.131        0.030      339.254       12.460      860.286
09/18/2013  01:00:00      -30.349      106.103       -4.815       46.720       53.434       34.392     2182.742     2855.145     1182.813        0.921        0.311      110.358       35.461        0.103      339.233       12.426      860.293
09/18/2013  01:01:00     -107.365      172.113      -30.211       45.741      102.093       41.411     2092.238    10422.881     1714.836        2.814        0.711      202.855       32.839        0.026      339.249       12.450      860.310
09/18/2013  01:02:00      -64.144      123.047      -19.669       41.872       75.815       31.583     1753.235     5747.888      997.456        1.407        0.425      138.762       26.614        0.037      339.204       12.376      860.335
09/18/2013  01:03:00     -112.681      124.592      -27.659       62.689       43.894       35.478     3929.893     1926.647     1258.669        1.805        0.356      167.989       33.609        0.040      339.150       12.286      860.359
09/18/2013  01:04:00      -30.174       45.511       -2.855       51.664       68.426       32.731     2669.137     4682.059     1071.336        0.570        0.421       54.605       40.031        0.537      339.176       12.331      860.376
09/18/2013  01:05:00      -81.862      101.248      -15.671       47.438       68.953       34.723     2250.406     4754.502     1205.663        1.270        0.411      130.201       31.124        0.057      339.176       12.330      860.396
09/18/2013  01:06:00     -113.205       23.777      -25.715       52.184       51.458       31.042     2723.219     2647.895      963.623        1.019        0.317      115.675       33.720        0.085      339.212       12.391      860.407
09/18/2013  01:07:00      -26.771       36.227       -9.693       23.157       33.871       20.790      536.262     1147.266      432.231        0.212        0.106       45.046       23.224        0.266      339.218       12.402      860.424
09/18/2013  01:08:00       22.034       -9.445      -10.656       47.185      114.180       50.956     2226.453    13037.058     2596.530        0.927        0.893       23.973       16.412        0.469      339.245       12.446      860.435
09/18/2013  01:09:00      -73.823       70.678      -23.156       44.715       37.312       33.187     1999.429     1392.159     1101.374        0.774        0.225      102.202       18.518        0.033      339.280       12.504      860.445
09/18/2013  01:10:00        2.867       62.532      -10.831       11.072       18.984       10.231      122.580      360.386      104.677        0.231        0.029       62.597        6.693        0.011      339.214       12.396      860.463
09/18/2013  01:11:00      -25.710       26.515       -9.220       27.660       72.581       22.988      765.082     5268.029      528.457        0.400        0.328       36.933       15.536        0.177      339.229       12.420      860.472
09/18/2013  01:12:00        8.723       10.290       17.033       24.765       30.187       23.080      613.290      911.237      532.698        0.126        0.103       13.490       17.305        1.646      339.321       12.574      860.468
09/18/2013  01:13:00      -34.925       51.487       -2.639       41.158       20.618       23.907     1694.001      425.085      571.540        0.328        0.135       62.215       23.768        0.146      339.237       12.433      860.476
09/18/2013  01:14:00       32.493      137.096        1.755       51.265       78.919       42.545     2628.138     6228.265     1810.050        1.526        0.533      140.894       42.793        0.092      339.164       12.308      860.484
09/18/2013  01:15:00      -62.949      102.348      -18.434       56.732       71.996       30.158     3218.539     5183.385      909.503        1.204        0.466      120.157       34.063        0.080      339.222       12.408      860.491
09/18/2013  01:16:00     -107.557       84.840      -30.661       42.212       36.873       25.899     1781.811     1359.640      670.772        1.176        0.191      136.990       24.131        0.031      339.185       12.346      860.503
09/18/2013  01:17:00     -123.808       74.647      -12.447       89.364       45.340       35.458     7985.864     2055.736     1257.256        1.617        0.565      144.570       33.422        0.053      339.143       12.272      860.501
09/18/2013  01:18:00      -90.288       67.879      -10.978       58.027       61.899       29.072     3367.085     3831.473      845.200        1.046        0.402      112.958       15.864        0.020      339.161       12.305      860.508
09/18/2013  01:19:00      -60.225       49.501       -2.884       38.677       48.421       28.353     1495.909     2344.634      803.865        0.536        0.232       77.957       16.372        0.044      339.216       12.397      860.512
09/18/2013  01:20:00     -108.137       54.502      -12.032       39.884       38.054       26.517     1590.760     1448.075      703.128        0.927        0.187      121.095       22.828        0.036      339.128       12.251      860.522
09/18/2013  01:21:00     -174.494      192.930      -45.198       81.249       70.801       43.969     6601.459     5012.744     1933.260        4.163        0.677      260.135       42.347        0.026      339.126       12.241      860.519
09/18/2013  01:22:00      -67.865      123.585       -5.188       56.320       71.725       43.453     3171.909     5144.409     1888.147        1.505        0.510      140.992       41.279        0.086      339.092       12.186      860.506
09/18/2013  01:23:00     -171.491      102.745      -33.224       59.583       47.498       37.221     3550.131     2256.055     1385.373        2.413        0.360      199.914       39.292        0.039      339.123       12.239      860.490
09/18/2013  01:24:00     -110.596       94.675      -17.412       76.634       61.280       47.675     5872.774     3755.262     2272.940        1.670        0.595      145.585       29.047        0.040      339.099       12.199      860.477
09/18/2013  01:25:00     -147.914      169.914      -19.285       86.395      107.132       46.306     7464.048    11477.285     2144.247        3.610        1.054      225.276       54.129        0.058      339.086       12.175      860.459
09/18/2013  01:26:00     -109.365      123.897      -19.171       61.178       63.142       34.791     3742.701     3986.952     1210.421        1.831        0.447      165.261       32.518        0.039      339.084       12.174      860.443
09/18/2013  01:27:00      -77.245       58.369        4.129       75.894       59.974       47.073     5759.950     3596.868     2215.906        1.048        0.579       96.818       44.360        0.210      339.090       12.184      860.436
09/18/2013  01:28:00     -107.544       71.996      -15.349       58.935       43.016       28.219     3473.354     1850.393      796.305        1.155        0.306      129.418       30.932        0.057      339.072       12.154      860.444
09/18/2013  01:29:00      -92.853       75.287       -5.604       54.445       48.066       34.797     2964.233     2310.345     1210.812        1.040        0.324      119.540       33.246        0.077      339.071       12.153      860.449
09/18/2013  01:30:00     -134.959       99.326      -16.899       72.478       61.143       42.346     5253.041     3738.449     1793.143        1.957        0.539      167.570       23.294        0.019      339.066       12.145      860.465
09/18/2013  01:31:00     -156.146      187.401      -39.862       59.809       68.518       30.744     3577.134     4694.654      945.222        3.515        0.461      243.927       26.167        0.012      339.066       12.141      860.475
09/18/2013  01:32:00     -140.932      223.906      -32.288       52.069       66.618       45.331     2711.145     4437.923     2054.902        4.012        0.460      264.567       35.369        0.018      339.048       12.111      860.481
09/18/2013  01:33:00     -214.623      138.595      -45.284       59.340       76.110       43.881     3521.231     5792.720     1925.569        3.928        0.562      255.483       28.639        0.013      339.114       12.221      860.477
09/18/2013  01:34:00     -131.267      121.605      -32.943       66.340       57.763       31.855     4401.009     3336.544     1014.760        2.093        0.438      178.939       28.037        0.025      339.112       12.219      860.466
09/18/2013  01:35:00     -134.538      185.532      -30.063       51.015       99.314       44.163     2602.554     9863.320     1950.363        3.392        0.721      229.178       24.589        0.012      339.095       12.190      860.452
09/18/2013  01:36:00     -130.135      126.308      -40.991       80.701       69.607       46.686     6512.577     4845.143     2179.574        2.405        0.677      181.353       48.583        0.072      339.119       12.233      860.431
09/18/2013  01:37:00     -141.800      123.913      -34.170       52.522       86.785       34.390     2758.512     7531.604     1182.668        2.405        0.574      188.313       42.587        0.051      339.104       12.207      860.407
09/18/2013  01:38:00     -130.890       87.096      -27.963       64.149       95.278       38.538     4115.037     9077.909     1485.199        2.009        0.734      157.219       27.708        0.031      339.117       12.230      860.381
09/18/2013  01:39:00     -166.074       64.536      -15.643      102.946      103.937       48.206    10597.911    10802.802     2323.810        2.785        1.186      178.173       52.781        0.088      339.129       12.248      860.370
09/18/2013  01:40:00     -173.972       62.792      -13.563       83.652       56.622       34.658     6997.576     3206.002     1201.147        2.290        0.570      184.957       25.823        0.019      339.139       12.265      860.357
09/18/2013  01:41:00     -152.107       74.710      -32.692       58.515       68.003       30.673     3423.992     4624.428      940.851        1.939        0.449      169.464       21.409        0.016      339.165       12.310      860.360
09/18/2013  01:42:00     -191.338       16.035      -19.945       71.243       96.210       46.185     5075.636     9256.330     2133.037        2.686        0.823      192.009       46.356        0.058      339.194       12.358      860.359
09/18/2013  01:43:00     -180.018       57.503      -37.200       70.548       79.120       31.849     4976.996     6259.912     1014.345        2.467        0.613      188.979       18.917        0.010      339.174       12.323      860.395
09/18/2013  01:44:00     -219.632        6.373      -39.324      105.006       83.105       47.583    11026.215     6906.515     2264.157        3.501        1.010      219.724       50.498        0.053      339.144       12.274      860.431
09/18/2013  01:45:00     -181.724       -7.201      -17.456       79.303       70.501       45.294     6288.942     4970.332     2051.574        2.334        0.666      181.867       37.729        0.043      339.099       12.199      860.459
09/18/2013  01:46:00     -172.998      -21.266      -15.418       68.047       67.760       32.354     4630.430     4591.358     1046.808        2.044        0.513      174.301       26.943        0.024      339.084       12.173      860.478
09/18/2013  01:47:00     -135.685       -9.394       -8.293      120.134       76.194       56.246    14432.097     5805.525     3163.645        2.098        1.170      136.009       61.767        0.206      339.061       12.133      860.481
09/18/2013  01:48:00     -218.051     -116.000      -32.837       75.531       76.598       41.384     5704.885     5867.216     1712.658        3.768        0.664      246.987       28.072        0.013      339.005       12.038      860.477
09/18/2013  01:49:00     -229.769      -70.416      -16.364       55.476       55.583       32.316     3077.573     3089.511     1044.296        3.261        0.361      240.317       18.042        0.006      338.921       11.898      860.491
09/18/2013  01:50:00     -223.031      -96.225       -5.968       62.238       62.510       35.442     3873.511     3907.456     1256.144        3.404        0.452      242.903       33.122        0.019      338.889       11.845      860.498
09/18/2013  01:51:00     -263.105      -43.360      -18.526       90.082       85.941       40.646     8114.772     7385.861     1652.132        4.430        0.858      266.654       44.185        0.027      338.892       11.850      860.492
09/18/2013  01:52:00     -131.764       -8.772       -6.663       74.125       54.728       34.862     5494.572     2995.182     1215.353        1.359        0.485      132.055       38.948        0.087      338.873       11.819      860.492
09/18/2013  01:53:00     -172.499        4.941      -11.064       71.571       58.244       33.156     5122.380     3392.363     1099.297        1.976        0.481      172.570       29.271        0.029      338.859       11.796      860.490
09/18/2013  01:54:00     -223.737        3.176      -18.379       77.652       65.928       37.218     6029.805     4346.475     1385.202        3.108        0.588      223.760       36.195        0.026      338.871       11.814      860.505
09/18/2013  01:55:00     -148.800      -34.826       -5.457       61.540       55.218       32.999     3787.168     3048.977     1088.907        1.565        0.396      152.821       33.782        0.049      338.897       11.858      860.499
09/18/2013  01:56:00     -177.327      -15.505      -19.713       59.448       66.232       27.276     3534.050     4386.739      743.972        2.037        0.433      178.003       17.627        0.010      338.879       11.830      860.489
09/18/2013  01:57:00     -178.458      -75.065      -18.953       63.016       57.503       36.774     3971.072     3306.629     1352.357        2.323        0.432      193.603       25.876        0.018      338.869       11.811      860.469
09/18/2013  01:58:00     -101.086       12.865        0.969       63.290       55.193       41.861     4005.655     3046.305     1752.319        0.959        0.440      101.901       30.783        0.091      338.863       11.801      860.466
09/18/2013  01:59:00     -117.649       14.091      -19.754       50.186       38.670       27.959     2518.647     1495.331      781.709        0.961        0.240      118.490       26.908        0.052      338.925       11.908      860.462
09/18/2013  02:00:00      -79.893       59.001       -7.128       70.947       54.883       29.656     5033.437     3012.125      879.504        0.942        0.446       99.317       32.380        0.106      338.900       11.864      860.449
09/18/2013  02:01:00      -90.577       43.972      -21.038       62.622       47.932       38.261     3921.508     2297.524     1463.908        0.913        0.384      100.687       27.288        0.073      338.961       11.969      860.456
09/18/2013  02:02:00      -69.777       13.580       11.579       73.001       49.667       29.363     5329.111     2466.781      862.178        0.692        0.433       71.086       32.373        0.207      338.974       11.991      860.446
09/18/2013  02:03:00      -17.327       61.019        1.098       45.163       71.756       41.468     2039.730     5148.981     1719.589        0.646        0.445       63.431       17.961        0.080      338.935       11.925      860.450
09/18/2013  02:04:00      -59.128       56.104        6.540       37.204       45.240       41.804     1384.144     2046.677     1747.567        0.593        0.259       81.509       27.454        0.113      338.969       11.984      860.451
09/18/2013  02:05:00      -12.653       -6.143        3.879       31.511       36.374       29.655      992.974     1323.072      879.428        0.170        0.160       14.065       25.628        3.320      338.994       12.024      860.458
09/18/2013  02:06:00      -42.104       26.095      -12.390       50.033       45.306       27.090     2503.338     2052.634      733.883        0.395        0.264       49.534       17.212        0.121      339.024       12.073      860.472
09/18/2013  02:07:00      -78.438       54.055       -6.917       82.203       38.586       34.555     6757.377     1488.899     1194.049        0.928        0.472       95.260       30.623        0.103      339.001       12.035      860.494
09/18/2013  02:08:00     -132.376      126.908      -27.516       69.153       76.567       40.263     4782.080     5862.508     1621.139        2.332        0.613      183.382       44.454        0.059      338.970       11.980      860.509
09/18/2013  02:09:00      -73.529       56.394      -18.406       42.931       40.678       37.567     1843.070     1654.681     1411.273        0.692        0.245       92.665       19.223        0.043      339.035       12.094      860.501
09/18/2013  02:10:00      -49.919       31.686      -10.754       36.470       65.149       31.957     1330.062     4244.363     1021.243        0.510        0.330       59.126       30.335        0.263      338.987       12.012      860.516
09/18/2013  02:11:00      -92.546       88.648      -15.396       39.134       39.190       28.119     1531.451     1535.826      790.673        1.026        0.193      128.153       27.901        0.047      338.991       12.016      860.514
09/18/2013  02:12:00      -74.102      102.073       -5.049       51.978       58.103       35.585     2701.734     3375.938     1266.287        1.164        0.367      126.135       31.984        0.064      338.968       11.980      860.512
09/18/2013  02:13:00     -101.339      128.635      -19.458       85.645       74.288       43.855     7335.037     5518.725     1923.218        2.098        0.739      163.758       43.058        0.069      339.011       12.052      860.498
09/18/2013  02:14:00     -136.226       95.766      -24.304       66.295       51.999       36.994     4394.988     2703.909     1368.523        1.839        0.423      166.519       33.071        0.039      338.977       11.995      860.473
09/18/2013  02:15:00     -109.165      194.278      -21.742       68.893      100.733       44.606     4746.264    10147.236     1989.704        3.351        0.844      222.848       32.599        0.021      339.001       12.033      860.450
09/18/2013  02:16:00     -109.348      177.437      -33.111       64.337      102.094       50.355     4139.193    10423.206     2535.650        3.081        0.855      208.425       46.909        0.051      339.001       12.032      860.438
09/18/2013  02:17:00     -176.179      155.782      -25.360       84.246       76.558       46.498     7097.448     5861.143     2162.082        3.553        0.756      235.175       48.370        0.042      338.989       12.013      860.435
09/18/2013  02:18:00     -154.809      176.558      -47.473       86.654       90.798       47.418     7508.853     8244.365     2248.474        3.769        0.900      234.816       61.237        0.068      338.971       11.984      860.436
09/18/2013  02:19:00     -190.060      193.976      -44.341       75.731      110.029       40.575     5735.119    12106.319     1646.317        4.760        0.974      271.569       51.686        0.036      338.958       11.961      860.450
09/18/2013  02:20:00     -108.248      102.813      -10.982       58.728       66.189       41.711     3449.017     4380.942     1739.783        1.599        0.478      149.292       40.085        0.072      338.926       11.909      860.466
09/18/2013  02:21:00      -92.325      170.685      -28.456       55.179       63.396       35.184     3044.758     4019.055     1237.923        2.338        0.415      194.055       31.287        0.026      338.934       11.921      860.488
09/18/2013  02:22:00      -97.774      150.842      -22.471       58.880       77.689       33.280     3466.840     6035.617     1107.585        2.171        0.531      179.758       36.690        0.042      338.913       11.886      860.494
09/18/2013  02:23:00     -135.382      144.459      -25.502       73.986       76.539       42.459     5473.967     5858.155     1802.744        2.649        0.657      197.981       37.101        0.035      338.857       11.790      860.502
09/18/2013  02:24:00     -205.756      208.900      -52.922       82.922       82.740       47.756     6876.119     6845.909     2280.618        5.239        0.800      293.214       45.120        0.024      338.830       11.743      860.508
09/18/2013  02:25:00     -139.057      160.652      -28.131       89.968       78.471       45.087     8094.250     6157.684     2032.827        3.111        0.814      212.476       46.337        0.048      338.795       11.685      860.499
09/18/2013  02:26:00     -200.313      211.212      -60.745       86.129       76.179       48.239     7418.200     5803.264     2327.027        5.198        0.777      291.094       53.683        0.034      338.786       11.671      860.493
09/18/2013  02:27:00     -156.044      112.526      -11.520       78.667       66.593       51.451     6188.483     4434.653     2647.164        2.520        0.664      192.384       41.430        0.046      338.741       11.597      860.484
09/18/2013  02:28:00     -154.962      137.509      -35.694      102.805       89.615       50.708    10568.848     8030.783     2571.301        3.268        1.059      207.176       50.421        0.059      338.777       11.659      860.474
09/18/2013  02:29:00     -166.162      195.526      -26.409       97.901      102.683       60.740     9584.583    10543.887     3689.312        4.517        1.191      256.594       60.854        0.056      338.755       11.619      860.467
09/18/2013  02:30:00     -192.914      109.734      -30.655       88.378      108.339       52.843     7810.603    11737.368     2792.359        3.626        1.117      221.941       55.156        0.062      338.758       11.626      860.453
09/18/2013  02:31:00     -214.776      162.028      -38.648       95.782       87.815       42.837     9174.133     7711.469     1835.030        4.629        0.936      269.039       49.761        0.034      338.784       11.667      860.444
09/18/2013  02:32:00     -120.412      117.597      -18.910       54.596       65.267       36.606     2980.684     4259.813     1340.014        1.863        0.429      168.309       27.549        0.027      338.800       11.696      860.427
09/18/2013  02:33:00     -103.908      106.291      -19.422       48.940       60.204       32.566     2395.104     3624.550     1060.552        1.477        0.354      148.642       32.681        0.048      338.782       11.667      860.445
09/18/2013  02:34:00     -154.225      181.555      -38.089       66.479      141.191       51.244     4419.395    19934.796     2625.917        4.258        1.349      238.218       49.451        0.043      338.747       11.605      860.452
09/18/2013  02:35:00      -58.927      115.024      -14.263       51.045       97.571       41.708     2605.549     9520.148     1739.537        1.538        0.693      129.239       36.388        0.079      338.774       11.653      860.446
09/18/2013  02:36:00     -102.507      102.603      -17.018       74.928       84.100       58.140     5614.234     7072.746     3380.210        1.869        0.803      145.035       49.522        0.117      338.785       11.671      860.457
09/18/2013  02:37:00     -105.799      120.360      -21.089       42.577       51.438       30.217     1812.839     2645.869      913.087        1.575        0.269      160.250       23.935        0.022      338.745       11.605      860.478
09/18/2013  02:38:00      -77.486      130.154      -21.586       52.437       78.894       37.767     2749.623     6224.306     1426.319        1.690        0.520      151.473       26.516        0.031      338.799       11.694      860.478
09/18/2013  02:39:00     -116.064      129.657      -21.799       67.424      102.769       43.051     4546.038    10561.413     1853.420        2.386        0.848      174.016       43.757        0.063      338.765       11.637      860.491
09/18/2013  02:40:00      -63.581       16.225      -12.093       46.048       61.323       39.298     2120.453     3760.488     1544.309        0.594        0.371       65.618       37.971        0.335      338.723       11.569      860.516
09/18/2013  02:41:00      -55.913       60.881      -17.159       51.258      109.971       49.430     2627.355    12093.557     2443.359        1.214        0.858       82.661       28.749        0.121      338.718       11.560      860.523
09/18/2013  02:42:00     -106.927      184.769      -25.668       70.177       69.282       45.050     4924.751     4799.942     2029.508        2.899        0.588      213.478       41.312        0.037      338.611       11.377      860.537
09/18/2013  02:43:00     -145.914       71.864      -22.216       66.200       86.200       33.870     4382.436     7430.369     1147.147        1.995        0.648      162.650       26.696        0.027      338.619       11.391      860.563
09/18/2013  02:44:00     -139.584      255.127      -34.872       68.806      104.164       52.512     4734.260    10850.097     2757.526        5.206        0.917      290.816       42.951        0.022      338.571       11.309      860.557
09/18/2013  02:45:00     -105.007       81.440      -13.731       60.722       69.293       39.836     3687.194     4801.584     1586.898        1.396        0.504      132.887       33.171        0.062      338.629       11.409      860.562
09/18/2013  02:46:00      -85.492        5.093       -7.545       45.326       60.274       30.288     2054.428     3632.908      917.354        0.700        0.330       85.643       28.981        0.115      338.664       11.470      860.572
09/18/2013  02:47:00      -92.069      112.161       -5.231       88.400       93.454       51.058     7814.638     8733.664     2606.944        2.012        0.958      145.110       52.661        0.132      338.636       11.422      860.559
09/18/2013  02:48:00      -71.018      -24.968        1.556       50.330       61.615       38.522     2533.103     3796.440     1483.919        0.674        0.391       75.279       32.328        0.184      338.675       11.488      860.556
09/18/2013  02:49:00      -72.463       94.185      -12.347       47.051       78.609       34.729     2213.842     6179.376     1206.074        1.193        0.480      118.835       38.247        0.104      338.610       11.378      860.555
09/18/2013  02:50:00      -94.020       75.372       -7.629       50.528       80.962       35.225     2553.122     6554.837     1240.788        1.246        0.517      120.502       28.494        0.056      338.654       11.452      860.560
09/18/2013  02:51:00      -66.051      -26.877      -12.083       67.922       55.521       33.485     4613.352     3082.540     1121.244        0.702        0.441       71.310       25.082        0.124      338.662       11.466      860.549
09/18/2013  02:52:00     -101.893      134.489      -20.008       59.611       80.401       37.729     3553.475     6464.320     1423.455        2.015        0.572      168.729       27.384        0.026      338.604       11.367      860.528
09/18/2013  02:53:00     -115.162       12.667       -7.384       67.802       48.317       34.455     4597.058     2334.537     1187.139        1.080        0.406      115.857       41.231        0.127      338.661       11.464      860.527
09/18/2013  02:54:00      -50.034       14.737      -12.420       66.039       55.628       31.541     4361.094     3094.427      994.835        0.566        0.423       52.159       40.441        0.601      338.690       11.512      860.522
09/18/2013  02:55:00     -110.352      141.838      -16.857       45.547       52.418       31.430     2074.551     2747.664      987.850        1.919        0.291      179.710       29.825        0.028      338.585       11.336      860.513
09/18/2013  02:56:00     -126.008      131.711      -26.227       75.344      100.775       45.883     5676.777    10155.587     2105.234        2.592        0.897      182.280       51.169        0.079      338.616       11.386      860.523
09/18/2013  02:57:00     -130.968      191.270      -33.517       60.920       83.485       37.183     3711.187     6969.783     1382.548        3.346        0.603      231.812       31.568        0.019      338.603       11.362      860.520
09/18/2013  02:58:00     -150.853       76.766      -38.793       37.338       50.349       31.078     1394.109     2534.997      965.830        1.752        0.245      169.262       23.235        0.019      338.626       11.406      860.520
09/18/2013  02:59:00     -130.390       90.315      -25.362       64.140       87.772       48.783     4113.914     7703.951     2379.741        2.000        0.710      158.614       43.437        0.075      338.640       11.428      860.507
09/18/2013  03:00:00      -69.437       46.814       -0.521       53.886       74.115       44.942     2903.691     5493.073     2019.750        0.871        0.521       83.744       24.095        0.083      338.624       11.403      860.473
09/18/2013  03:01:00     -165.510      -61.999      -17.589       60.514       59.321       30.525     3661.936     3519.011      931.748        1.983        0.406      176.741       15.718        0.008      338.675       11.485      860.440
09/18/2013  03:02:00     -130.995       -5.099       -2.602       77.530       66.091       34.322     6010.888     4368.081     1177.990        1.437        0.578      131.094       24.690        0.035      338.633       11.416      860.427
09/18/2013  03:03:00      -82.310       -6.224      -20.455       73.992       59.087       30.458     5474.854     3491.243      927.679        0.856        0.495       82.545       24.628        0.089      338.645       11.439      860.416
09/18/2013  03:04:00      -66.812       25.247        8.518       55.629       37.677       40.000     3094.543     1419.572     1599.963        0.564        0.306       71.423       27.569        0.149      338.637       11.423      860.395
09/18/2013  03:05:00      -77.116       84.861      -12.717       55.352       53.854       35.541     3063.866     2900.260     1263.159        1.027        0.361      114.665       35.151        0.094      338.607       11.375      860.396
09/18/2013  03:06:00      -65.319       41.274      -13.194       47.429       61.251       33.597     2249.513     3751.729     1128.729        0.664        0.356       77.266       36.506        0.223      338.604       11.368      860.396
09/18/2013  03:07:00      -72.582       58.323       -9.625       48.202       52.694       26.508     2323.451     2776.628      702.691        0.728        0.290       93.111       17.192        0.034      338.580       11.328      860.409
09/18/2013  03:08:00     -142.249      -44.195      -19.528       44.436       59.032       30.814     1974.600     3484.741      949.533        1.449        0.320      148.957       23.924        0.026      338.650       11.445      860.411
09/18/2013  03:09:00      -57.958       28.293       -2.562       33.681       35.937       24.376     1134.430     1291.495      594.210        0.359        0.151       64.495       14.606        0.051      338.583       11.331      860.413
09/18/2013  03:10:00      -56.592       24.611       -4.998       65.075       47.543       42.681     4234.757     2260.315     1821.710        0.607        0.416       61.712       35.539        0.332      338.597       11.355      860.406
09/18/2013  03:11:00     -147.418       12.614      -12.905       72.556       86.641       41.413     5264.445     7506.679     1715.050        1.827        0.724      147.957       34.226        0.054      338.600       11.360      860.399
09/18/2013  03:12:00      -94.301      -16.690      -10.184       51.940       41.661       26.743     2697.815     1735.636      715.168        0.721        0.257       95.767       11.699        0.015      338.571       11.312      860.391
09/18/2013  03:13:00     -131.039      -28.688       -7.264       51.730       51.709       34.681     2675.994     2673.769     1202.793        1.230        0.328      134.143       14.800        0.012      338.602       11.366      860.378
09/18/2013  03:14:00      -92.521       23.420      -22.418       54.873       71.262       31.358     3011.003     5078.261      983.317        0.934        0.454       95.439       23.838        0.062      338.572       11.316      860.377
09/18/2013  03:15:00     -107.078       -6.802      -18.006       48.394       38.870       28.179     2342.002     1510.844      794.067        0.824        0.232      107.293       27.731        0.067      338.582       11.332      860.385
09/18/2013  03:16:00      -60.457       -2.037       14.925       52.398       58.088       38.811     2745.587     3374.164     1506.299        0.575        0.381       60.491       28.311        0.219      338.559       11.293      860.368
09/18/2013  03:17:00     -108.687       42.410       -0.500       42.014       46.375       28.261     1765.143     2150.649      798.669        0.916        0.236      116.668       22.674        0.038      338.537       11.255      860.358
09/18/2013  03:18:00     -128.192      103.109      -29.397       98.585      112.032       49.479     9718.920    12551.250     2448.160        2.632        1.236      164.513       50.103        0.093      338.512       11.212      860.349
09/18/2013  03:19:00     -164.171      123.373      -16.120       92.218      105.371       50.102     8504.181    11103.084     2510.195        3.227        1.106      205.360       53.632        0.068      338.521       11.226      860.330
09/18/2013  03:20:00     -140.794      163.994      -31.648       53.862      117.276       45.831     2901.129    13753.587     2100.472        3.323        0.938      216.141       41.868        0.038      338.482       11.162      860.331
09/18/2013  03:21:00     -151.764       42.961      -25.271       63.711       51.244       30.668     4059.049     2625.975      940.511        1.657        0.381      157.727       24.145        0.023      338.534       11.249      860.330
09/18/2013  03:22:00     -180.092      159.559      -48.308       77.378       91.126       44.632     5987.392     8303.888     1991.996        3.825        0.814      240.608       54.015        0.050      338.503       11.197      860.358
09/18/2013  03:23:00     -178.275      117.270      -21.949       75.983       95.894       42.072     5773.377     9195.723     1770.024        3.137        0.837      213.387       35.544        0.028      338.502       11.195      860.369
09/18/2013  03:24:00     -116.300      129.467      -27.499       58.495      103.261       35.124     3421.713    10662.783     1233.720        2.318        0.766      174.033       35.891        0.043      338.493       11.181      860.373
09/18/2013  03:25:00     -127.129      103.032      -23.806       57.042       89.025       42.519     3253.735     7925.534     1807.889        2.016        0.649      163.638       29.635        0.033      338.501       11.194      860.372
09/18/2013  03:26:00      -77.010        6.759       -3.596       84.077       58.265       40.423     7068.928     3394.811     1634.053        0.904        0.605       77.306       35.404        0.210      338.499       11.191      860.361
09/18/2013  03:27:00     -121.576       98.129      -16.631       86.886       43.089       42.750     7549.187     1856.677     1827.578        1.796        0.562      156.237       51.629        0.109      338.518       11.223      860.365
09/18/2013  03:28:00     -184.660      143.438      -36.893       74.270       87.266       39.081     5516.083     7615.273     1527.354        3.534        0.733      233.824       24.033        0.011      338.463       11.127      860.370
09/18/2013  03:29:00      -43.063       47.661        5.507       50.563       57.830       32.821     2556.639     3344.305     1077.220        0.557        0.349       64.234       24.946        0.151      338.431       11.078      860.352
09/18/2013  03:30:00     -180.385       59.953      -34.468       88.485       57.840       24.636     7829.536     3345.521      606.934        2.455        0.589      190.087       18.618        0.010      338.480       11.157      860.347
09/18/2013  03:31:00      -87.039       27.910       -4.119       77.323       51.629       39.410     5978.774     2665.585     1553.167        0.928        0.510       91.404       35.512        0.151      338.420       11.059      860.351
09/18/2013  03:32:00     -104.263       92.208      -22.925       53.789       60.936       31.720     2893.254     3713.138     1006.176        1.375        0.381      139.187       23.690        0.029      338.400       11.025      860.358
09/18/2013  03:33:00     -129.886      144.539      -38.193       73.281       72.051       45.390     5370.165     5191.396     2060.253        2.592        0.631      194.324       38.948        0.040      338.432       11.076      860.357
09/18/2013  03:34:00      -95.377      171.089       -6.447       58.207       71.455       43.320     3388.082     5105.869     1876.648        2.439        0.519      195.878       38.221        0.038      338.343       10.928      860.347
09/18/2013  03:35:00      -89.999      129.030      -21.363       60.819       59.312       35.898     3698.944     3517.873     1288.646        1.685        0.425      157.316       36.992        0.055      338.388       11.004      860.350
09/18/2013  03:36:00      -76.229       78.391      -14.838       49.948       86.025       34.938     2494.773     7400.241     1220.633        1.164        0.556      109.344       29.615        0.073      338.410       11.042      860.351
09/18/2013  03:37:00      -70.443       68.605       -8.665       47.452       43.616       25.594     2251.713     1902.365      655.073        0.728        0.240       98.330       21.606        0.048      338.408       11.038      860.362
09/18/2013  03:38:00      -61.296       66.665      -14.566       41.132       56.270       26.749     1691.839     3166.271      715.518        0.699        0.279       90.561       22.577        0.062      338.408       11.039      860.358
09/18/2013  03:39:00     -112.416       51.422      -13.682       61.578       53.520       32.094     3791.839     2864.350     1030.044        1.158        0.384      123.618       16.048        0.017      338.445       11.102      860.364
09/18/2013  03:40:00      -50.093       68.572      -14.853       61.814       65.204       32.051     3821.000     4251.545     1027.281        0.826        0.455       84.920       26.075        0.094      338.402       11.030      860.373
09/18/2013  03:41:00      -61.848        9.969      -14.361       64.900       50.209       39.119     4211.959     2520.989     1530.274        0.620        0.413       62.646       39.009        0.388      338.425       11.068      860.377
09/18/2013  03:42:00      -88.981       -1.294        1.187       96.129       51.894       29.876     9240.742     2692.943      892.563        1.037        0.641       88.990       36.988        0.173      338.370       10.974      860.390
09/18/2013  03:43:00      -78.852       90.335       -9.739       46.045       76.291       40.315     2120.182     5820.315     1625.261        1.202        0.478      119.908       37.964        0.100      338.378       10.989      860.403
09/18/2013  03:44:00     -140.095       17.309      -12.957       53.337       45.154       28.672     2844.856     2038.892      822.095        1.290        0.285      141.160       17.481        0.015      338.416       11.052      860.407
09/18/2013  03:45:00      -99.868        1.058      -11.622       69.011      102.451       43.325     4762.570    10496.120     1877.021        1.362        0.857       99.874       39.003        0.153      338.361       10.960      860.408
09/18/2013  03:46:00      -22.159       20.125       13.777       66.212       55.528       31.585     4384.014     3083.330      997.629        0.477        0.423       29.933       25.131        0.705      338.342       10.928      860.410
09/18/2013  03:47:00     -104.596      122.338      -13.844       51.783       71.508       40.940     2681.461     5113.439     1676.060        1.778        0.474      160.956       33.597        0.044      338.339       10.922      860.430
09/18/2013  03:48:00      -88.683      157.584      -15.536       38.630       68.080       28.224     1492.290     4634.900      796.594        1.993        0.346      180.825       22.358        0.015      338.317       10.884      860.437
09/18/2013  03:49:00      -86.767      122.847      -14.264       50.133       61.185       29.293     2513.295     3743.576      858.079        1.497        0.356      150.399       27.403        0.033      338.290       10.841      860.449
09/18/2013  03:50:00      -98.946       99.895      -12.334       45.511       64.507       28.899     2071.293     4161.136      835.169        1.349        0.353      140.604       16.540        0.014      338.318       10.889      860.460
09/18/2013  03:51:00     -121.455      132.743      -31.285       55.939       74.371       37.726     3129.161     5531.022     1423.221        2.172        0.504      179.922       36.240        0.041      338.318       10.886      860.469
09/18/2013  03:52:00      -89.956       55.670      -19.973       42.985       65.315       21.093     1847.668     4266.003      444.898        0.907        0.328      105.788       31.393        0.088      338.351       10.942      860.472
09/18/2013  03:53:00        1.984       43.520       -4.417       36.843       30.645       29.885     1357.436      939.094      893.128        0.255        0.159       43.565       15.957        0.134      338.307       10.870      860.478
09/18/2013  03:54:00      -47.858      111.541      -10.851       42.753       63.532       35.138     1827.839     4036.280     1234.670        1.097        0.355      121.374       31.836        0.069      338.271       10.809      860.475
09/18/2013  03:55:00       17.332       41.920        5.088       28.412       50.617       28.327      807.235     2562.054      802.442        0.313        0.209       45.362       27.568        0.369      338.273       10.814      860.460
09/18/2013  03:56:00      -41.515       68.916        3.852       42.332       64.159       26.601     1791.970     4116.384      707.622        0.655        0.331       80.454       26.336        0.107      338.337       10.919      860.443
09/18/2013  03:57:00      -92.974       44.962      -15.246       56.588       58.664       28.529     3202.184     3441.443      813.895        0.918        0.373      103.275       17.719        0.029      338.331       10.910      860.438
09/18/2013  03:58:00      -32.594       18.277        1.003       23.347       28.136       22.519      545.080      791.652      507.092        0.162        0.092       37.369       16.763        0.201      338.247       10.769      860.426
09/18/2013  03:59:00       -7.894       15.900       14.068       41.367       50.834       21.398     1711.266     2584.049      457.864        0.263        0.238       17.752       21.720        1.497      338.261       10.792      860.414
09/18/2013  04:00:00      -18.588      -17.821        9.764       70.505       35.634       23.092     4970.947     1269.799      533.245        0.376        0.339       25.751       28.564        1.230      338.290       10.841      860.414
09/18/2013  04:01:00      -42.762      -15.346       -1.093       31.448       35.027       22.862      988.946     1226.871      522.689        0.240        0.137       45.432       21.475        0.223      338.311       10.877      860.418
09/18/2013  04:02:00      -22.143       25.050       27.435       41.621       45.904       23.102     1732.329     2107.191      533.682        0.312        0.219       33.434       25.018        0.560      338.211       10.709      860.413
09/18/2013  04:03:00     -101.800       68.158      -28.697       49.637       74.890       36.991     2463.874     5608.563     1368.350        1.263        0.472      122.510       39.655        0.105      338.300       10.858      860.408
09/18/2013  04:04:00      -54.266       35.333      -11.191       50.050       31.050       21.371     2505.025      964.127      456.725        0.412        0.196       64.755       21.632        0.112      338.297       10.853      860.403
09/18/2013  04:05:00        3.829       -7.407        1.696       28.189       45.179       20.587      794.600     2041.129      423.819        0.167        0.163        8.338       15.605        3.503      338.249       10.771      860.397
09/18/2013  04:06:00      -39.325      -11.214        5.375       47.862       32.071       20.526     2290.733     1028.536      421.303        0.272        0.187       40.893       23.369        0.327      338.265       10.800      860.400
09/18/2013  04:07:00      -51.234       22.984       -9.417       52.281       43.006       29.573     2733.253     1849.553      874.535        0.435        0.273       56.153       27.315        0.237      338.271       10.810      860.404
09/18/2013  04:08:00      -69.086      -34.622        5.674       53.503       53.785       29.858     2862.526     2892.853      891.508        0.632        0.332       77.276       20.854        0.073      338.262       10.794      860.395
09/18/2013  04:09:00      -49.836        6.846        7.177       71.462       47.982       26.833     5106.817     2302.297      719.991        0.535        0.406       50.304       32.274        0.412      338.177       10.650      860.384
09/18/2013  04:10:00     -169.564       28.538      -23.766       65.511       58.411       36.829     4291.641     3411.899     1356.344        1.959        0.453      171.949       17.750        0.011      338.286       10.833      860.366
09/18/2013  04:11:00      -70.408      -31.773       -3.364       44.915       30.617       17.434     2017.333      937.380      303.954        0.462        0.163       77.245        4.413        0.003      338.281       10.825      860.341
09/18/2013  04:12:00      -70.133       -9.825       -4.919       27.477       23.044       17.624      755.008      531.043      310.596        0.332        0.080       70.818       15.654        0.049      338.204       10.697      860.331
09/18/2013  04:13:00        5.399       11.354      -15.140       32.720       19.144       21.310     1070.623      366.509      454.097        0.114        0.095       12.572       22.941        3.330      338.272       10.812      860.322
09/18/2013  04:14:00      -25.698      -15.180       10.745       38.746       34.190       24.548     1501.261     1168.936      602.588        0.214        0.164       29.847       20.988        0.494      338.226       10.732      860.332
09/18/2013  04:15:00      -10.377        0.021       11.749       25.896       13.667       16.653      670.605      186.785      277.331        0.069        0.057       10.377       17.525        2.852      338.123       10.562      860.348
09/18/2013  04:16:00      -43.595      -33.925       -0.898       57.343       49.388       15.098     3288.244     2439.218      227.938        0.450        0.298       55.240       20.948        0.144      338.179       10.655      860.362
09/18/2013  04:17:00       -4.558       11.997        1.796       16.031       22.695       15.350      257.004      515.062      235.612        0.059        0.050       12.834       13.777        1.152      338.173       10.645      860.375
09/18/2013  04:18:00      -12.048       -8.989       -1.977       22.370       23.740        8.397      500.396      563.580       70.503        0.068        0.057       15.032        8.759        0.339      338.177       10.650      860.384
09/18/2013  04:19:00      -36.391      -30.299       -6.090       21.133       22.131       12.636      446.601      489.774      159.662        0.169        0.055       47.353        7.690        0.026      338.277       10.819      860.389
09/18/2013  04:20:00      -27.222      -45.122        1.342       59.484       25.668       21.747     3538.343      658.826      472.952        0.372        0.234       52.697       23.234        0.194      338.193       10.678      860.389
09/18/2013  04:21:00     -103.183      -81.737       -4.834       48.208       38.897       25.149     2323.970     1512.966      632.494        1.091        0.223      131.635       26.459        0.040      338.147       10.600      860.389
09/18/2013  04:22:00      -52.328      -65.198       12.885       51.788       52.928       33.571     2681.963     2801.356     1126.989        0.688        0.331       83.600       37.804        0.204      338.139       10.588      860.392
09/18/2013  04:23:00      -64.421      -90.948       -3.098       27.668       30.149       19.604      765.546      908.970      384.330        0.724        0.103      111.453       16.039        0.021      338.158       10.618      860.405
09/18/2013  04:24:00      -44.912      -27.411       -3.528       18.712       18.361       12.794      350.121      337.114      163.681        0.182        0.043       52.616        6.569        0.016      338.158       10.619      860.424
09/18/2013  04:25:00      -16.249      -13.826       -7.025       17.506       18.753       12.964      306.446      351.693      168.074        0.067        0.041       21.335        7.372        0.119      338.114       10.546      860.435
09/18/2013  04:26:00       -3.900        3.663       10.192       17.945       14.289       10.132      322.040      204.187      102.658        0.038        0.031        5.351        9.046        2.858      338.072       10.474      860.460
09/18/2013  04:27:00       -2.286      -39.964      -12.940       15.497       17.603       11.303      240.153      309.855      127.748        0.122        0.034       40.030        9.266        0.054      338.146       10.599      860.478
09/18/2013  04:28:00        0.538       -7.474       -0.398        8.320       12.402        7.001       69.222      153.799       49.015        0.016        0.014        7.493        5.411        0.521      338.181       10.657      860.494
09/18/2013  04:29:00        4.829      -12.602       10.265       12.517       21.282       13.414      156.666      452.930      179.924        0.054        0.039       13.496       14.201        1.107      338.081       10.491      860.508
09/18/2013  04:30:00        6.564       -0.441        2.467       12.441       12.612        9.288      154.789      159.053       86.263        0.022        0.020        6.579        7.097        1.164      338.049       10.436      860.525
09/18/2013  04:31:00       -5.746       10.320        8.065       12.779       13.264        8.705      163.294      175.933       75.782        0.031        0.021       11.812        6.836        0.335      338.021       10.389      860.535
09/18/2013  04:32:00      -12.085        7.803        5.630       18.596       12.943       12.397      345.815      167.528      153.673        0.045        0.033       14.386       11.694        0.661      337.957       10.282      860.531
09/18/2013  04:33:00      -20.648      -11.487       -8.781       19.991       12.597       11.834      399.630      158.684      140.034        0.067        0.035       23.628        8.319        0.124      337.982       10.323      860.519
09/18/2013  04:34:00      -16.851      -15.650       23.188       14.566       21.996       21.308      212.160      483.811      454.015        0.111        0.057       22.997       13.449        0.342      337.890       10.170      860.503
09/18/2013  04:35:00       -4.117        5.296       33.097       12.334       31.671       23.119      152.121     1003.028      534.479        0.141        0.084        6.708       23.141       11.901      337.906       10.197      860.490
09/18/2013  04:36:00       -0.917       18.999       36.479        9.817       18.939       13.549       96.365      358.688      183.564        0.117        0.032       19.021       13.146        0.478      337.871       10.137      860.482
09/18/2013  04:37:00        1.373       17.532       35.083       13.257       17.106       10.180      175.750      292.629      103.631        0.106        0.029       17.585        7.800        0.197      337.825       10.062      860.475
09/18/2013  04:38:00        9.819        2.337       19.465       16.701       16.017       17.701      278.934      256.547      313.340        0.066        0.042       10.093       16.937        2.816      337.887       10.165      860.479
09/18/2013  04:39:00       -1.978       14.168       22.006       13.039       13.113       12.491      170.027      171.962      156.031        0.059        0.025       14.306        6.155        0.185      337.866       10.130      860.492
09/18/2013  04:40:00       29.345       39.839       21.086       11.260       11.338       12.444      126.777      128.550      154.848        0.165        0.021       49.481        7.927        0.026      337.891       10.171      860.504
09/18/2013  04:41:00        4.355       10.733       16.496       15.472        9.232        7.305      239.374       85.237       53.367        0.039        0.019       11.583        7.813        0.455      337.784        9.991      860.506
09/18/2013  04:42:00        6.455       -8.347        4.681        7.841        8.446       11.614       61.476       71.340      134.881        0.020        0.013       10.552        6.069        0.331      337.841       10.087      860.508
09/18/2013  04:43:00       -2.895      -32.768       -4.175       11.399       13.902       10.366      129.940      193.254      107.447        0.077        0.022       32.896        8.133        0.061      337.946       10.263      860.501
09/18/2013  04:44:00      -28.890      -18.370       -4.038       13.786        7.132        8.587      190.060       50.860       73.740        0.075        0.016       34.236        6.113        0.032      337.836       10.079      860.508
09/18/2013  04:45:00        7.560      -22.548       -2.498       12.161       12.458        7.764      147.882      155.195       60.272        0.047        0.018       23.782        4.399        0.034      337.917       10.213      860.499
09/18/2013  04:46:00      -17.226      -33.283        3.443       30.954       18.474       19.344      958.160      341.279      374.188        0.154        0.084       37.476       19.555        0.272      337.828       10.065      860.511
09/18/2013  04:47:00      -22.115        3.055        4.810       20.744       20.327       17.083      430.323      413.172      291.842        0.083        0.057       22.325       13.887        0.387      337.714        9.874      860.530
09/18/2013  04:48:00       -1.116        8.081        6.112       15.682       12.681       13.949      245.920      160.796      194.588        0.035        0.030        8.157        2.904        0.127      337.699        9.850      860.562
09/18/2013  04:49:00      -29.030      -21.451       -9.127       29.022       20.395       11.532      842.287      415.946      132.985        0.139        0.070       36.095        9.755        0.073      337.702        9.855      860.590
09/18/2013  04:50:00      -93.140      -48.546       -9.705       31.562       29.470       23.875      996.190      868.492      570.021        0.678        0.122      105.033       20.683        0.039      337.573        9.638      860.609
09/18/2013  04:51:00      -80.720      -50.238        4.316       38.849       32.959       20.370     1509.262     1086.290      414.931        0.603        0.151       95.077       18.967        0.040      337.510        9.533      860.633
09/18/2013  04:52:00      -80.933      -56.581        0.133       35.783       25.168       22.142     1280.418      633.415      490.264        0.608        0.120       98.750       20.040        0.041      337.587        9.662      860.642
09/18/2013  04:53:00      -69.610      -41.576       -1.200       31.608       26.163       16.456      999.090      684.494      270.798        0.426        0.098       81.081       12.044        0.022      337.607        9.695      860.650
09/18/2013  04:54:00      -49.325      -49.679        8.574       34.908       21.953       17.985     1218.554      481.933      323.469        0.350        0.101       70.007       14.663        0.044      337.640        9.751      860.658
09/18/2013  04:55:00      -51.368      -59.065        4.797       41.156       38.270       20.617     1693.837     1464.624      425.067        0.487        0.179       78.277       19.962        0.065      337.605        9.692      860.657
09/18/2013  04:56:00      -84.590      -75.341        4.330       45.649       35.506       26.753     2083.850     1260.698      715.741        0.845        0.203      113.277       24.298        0.046      337.633        9.739      860.665
09/18/2013  04:57:00      -76.460      -61.482        8.168       55.466       33.446       24.680     3076.483     1118.658      609.095        0.725        0.240       98.113       28.725        0.086      337.626        9.728      860.660
09/18/2013  04:58:00      -88.785      -59.955        2.206       42.203       33.808       20.817     1781.077     1143.004      433.345        0.742        0.168      107.133       19.682        0.034      337.616        9.710      860.644
09/18/2013  04:59:00      -78.274      -30.538       -1.790       42.088       30.751       24.411     1771.361      945.598      595.906        0.519        0.166       84.020       24.758        0.087      337.558        9.612      860.641
09/18/2013  05:00:00     -109.964      -27.323       -1.845       36.349       37.315       20.740     1321.223     1392.441      430.144        0.799        0.157      113.308       20.230        0.032      337.396        9.342      860.645
09/18/2013  05:01:00      -86.912       -7.106       -5.278       42.983       25.561       19.859     1847.579      653.353      394.391        0.526        0.145       87.202       23.492        0.073      337.383        9.319      860.660
09/18/2013  05:02:00     -110.267      -32.665       -9.986       29.241       32.633       16.191      855.039     1064.928      262.141        0.775        0.109      115.003        9.375        0.007      337.419        9.381      860.696
09/18/2013  05:03:00      -81.242      -26.655       -5.222       32.199       25.740       18.263     1036.805      662.572      333.522        0.469        0.102       85.503       16.309        0.036      337.338        9.246      860.727
09/18/2013  05:04:00      -98.719      -43.860       -4.794       36.867       22.375       13.011     1359.153      500.635      169.291        0.686        0.101      108.024       12.492        0.013      337.374        9.305      860.753
09/18/2013  05:05:00      -79.519      -23.884       -0.085       20.024       20.373       12.392      400.946      415.049      153.564        0.393        0.048       83.029       10.219        0.015      337.435        9.407      860.775
09/18/2013  05:06:00      -32.842      -12.348        8.993       24.538       13.998       13.643      602.102      195.955      186.127        0.115        0.049       35.087       12.942        0.136      337.394        9.337      860.785
09/18/2013  05:07:00      -10.773       -9.954       -0.285       15.050       14.801       15.308      226.493      219.058      234.338        0.045        0.034       14.667       11.612        0.627      337.465        9.457      860.790
09/18/2013  05:08:00       -8.872      -36.151      -10.173       16.150       17.557       10.141      260.816      308.264      102.836        0.108        0.034       37.224        6.833        0.034      337.589        9.666      860.784
09/18/2013  05:09:00       -1.487      -21.619        2.184       14.271       17.850       13.371      203.648      318.613      178.796        0.059        0.035       21.670       11.067        0.261      337.524        9.553      860.780
09/18/2013  05:10:00      -42.139      -20.316        6.361       41.543       27.492       19.426     1725.862      755.816      377.372        0.254        0.143       46.780       20.558        0.193      337.428        9.396      860.771
09/18/2013  05:11:00      -62.133      -46.659        1.980       47.436       25.714       22.609     2250.159      661.219      511.184        0.473        0.171       77.702       24.067        0.096      337.441        9.417      860.757
09/18/2013  05:12:00      -80.593      -56.785        2.745       50.609       31.527       22.138     2561.273      993.933      490.108        0.689        0.202       98.589       24.339        0.061      337.386        9.324      860.752
09/18/2013  05:13:00      -79.200      -42.185        3.286       37.343       25.002       15.959     1394.500      625.098      254.676        0.517        0.114       89.734       17.422        0.038      337.391        9.332      860.759
09/18/2013  05:14:00      -80.853      -41.751       -2.452       28.440       22.536       18.015      808.825      507.878      324.548        0.496        0.082       90.997       10.140        0.012      337.373        9.303      860.767
09/18/2013  05:15:00      -83.871       -0.567       -3.762       32.526       29.471       17.863     1057.973      868.561      319.096        0.465        0.112       83.873       13.281        0.025      337.284        9.154      860.764
09/18/2013  05:16:00     -105.777      -10.945       -7.426       21.603       20.711       13.480      466.672      428.942      181.703        0.622        0.054      106.341       13.504        0.016      337.258        9.112      860.763
09/18/2013  05:17:00      -74.951      -12.598       -4.965       21.240       13.606       15.275      451.144      185.112      233.317        0.334        0.043       76.003       14.092        0.034      337.238        9.077      860.769
09/18/2013  05:18:00      -78.566      -31.098       -5.406       17.472       21.214       11.959      305.275      450.013      143.028        0.403        0.045       84.497        7.996        0.009      337.276        9.140      860.775
09/18/2013  05:19:00      -67.528      -19.193       -1.030       19.627       19.675       10.549      385.209      387.098      111.286        0.291        0.044       70.203        5.491        0.006      337.347        9.260      860.779
09/18/2013  05:20:00      -66.926       -7.915       -2.217       29.584       15.139       11.541      875.210      229.187      133.187        0.289        0.062       67.392       13.673        0.041      337.216        9.040      860.798
09/18/2013  05:21:00      -40.588       -4.211       -4.180       32.494       17.127       12.131     1055.879      293.338      147.166        0.159        0.075       40.806       12.821        0.099      337.119        8.877      860.817
09/18/2013  05:22:00      -25.258      -16.722        5.171       23.441       20.470       14.072      549.489      419.006      198.020        0.106        0.058       30.292       16.160        0.285      337.147        8.925      860.844
09/18/2013  05:23:00      -68.028       -1.436       -5.911       16.190       11.596        9.544      262.107      134.472       91.095        0.258        0.024       68.043        4.560        0.004      337.198        9.011      860.879
09/18/2013  05:24:00      -28.971      -16.364       -6.795       19.726       14.162       10.456      389.111      200.576      109.319        0.093        0.035       33.273       10.261        0.095      337.245        9.091      860.896
09/18/2013  05:25:00      -48.749      -14.621       -0.074       15.299       14.902       10.918      234.045      222.068      119.196        0.158        0.029       50.894        8.723        0.029      337.260        9.115      860.905
09/18/2013  05:26:00      -52.700      -13.306       -2.218       17.951       10.878       11.654      322.228      118.326      135.817        0.177        0.029       54.354        9.139        0.028      337.320        9.214      860.892
09/18/2013  05:27:00      -57.553      -28.259        0.305       25.972       21.532       14.322      674.524      463.643      205.130        0.273        0.067       64.116       13.293        0.043      337.309        9.195      860.874
09/18/2013  05:28:00      -83.323      -38.046       -2.472       30.563       25.337       15.137      934.086      641.961      229.141        0.510        0.090       91.598       12.704        0.019      337.355        9.273      860.851
09/18/2013  05:29:00      -93.825      -37.685      -10.477       26.754       30.069       14.239      715.788      904.161      202.763        0.608        0.091      101.110       10.611        0.011      337.279        9.145      860.832
09/18/2013  05:30:00      -80.168      -22.148        2.248       42.004       28.504       20.257     1764.334      812.457      410.363        0.495        0.149       83.171       17.006        0.042      337.123        8.885      860.816
09/18/2013  05:31:00      -82.586       -9.662        4.203       49.669       38.778       23.569     2467.003     1503.696      555.483        0.573        0.226       83.150       24.813        0.089      337.012        8.698      860.807
09/18/2013  05:32:00     -147.741       11.096      -15.438       36.798       33.774       23.442     1354.073     1140.658      549.546        1.262        0.152      148.157       11.899        0.006      336.870        8.461      860.805
09/18/2013  05:33:00     -176.925        9.407      -18.777       23.997       31.090       16.591      575.849      966.607      275.274        1.678        0.091      177.175       13.748        0.006      336.906        8.522      860.813
09/18/2013  05:34:00     -109.685      -13.640      -15.030       32.346       36.055       19.644     1046.255     1299.973      385.900        0.759        0.137      110.530       13.089        0.014      336.947        8.587      860.831
09/18/2013  05:35:00      -74.571       -6.251       -8.361       34.013       26.939       18.216     1156.854      725.733      331.835        0.394        0.111       74.832       19.790        0.070      336.942        8.580      860.860
09/18/2013  05:36:00      -81.963      -10.668       -5.446       37.295       17.969       14.510     1390.894      322.869      210.538        0.439        0.096       82.654       18.335        0.049      337.103        8.850      860.896
09/18/2013  05:37:00      -70.858        5.310       -3.143       21.152       16.996       13.507      447.419      288.863      182.451        0.299        0.046       71.056       10.992        0.024      337.124        8.885      860.922
09/18/2013  05:38:00      -41.035       29.231       -8.738       21.039       15.885       16.192      442.655      252.348      262.191        0.179        0.048       50.381       13.250        0.069      337.056        8.771      860.948
09/18/2013  05:39:00      -56.947        6.826      -13.084       27.533       23.898       14.641      758.077      571.108      214.355        0.250        0.077       57.355       13.204        0.053      337.111        8.864      860.972
09/18/2013  05:40:00      -32.644      -19.301        3.342       25.119       19.774       18.535      630.966      391.022      343.542        0.141        0.068       37.923        9.827        0.067      337.121        8.881      860.991
09/18/2013  05:41:00      -29.307      -14.620       -6.971       19.395       11.270        9.008      376.149      127.023       81.137        0.085        0.029       32.751        4.966        0.023      337.189        8.995      861.011
09/18/2013  05:42:00      -23.586        5.075        2.667       14.540       15.847       11.404      211.416      251.126      130.047        0.059        0.030       24.126        9.012        0.140      337.174        8.971      861.030
09/18/2013  05:43:00      -47.560      -34.422       -1.197       19.163       20.290       11.378      367.236      411.671      129.466        0.218        0.045       58.709        6.304        0.012      337.143        8.917      861.042
09/18/2013  05:44:00      -56.306      -31.584       -6.932       13.272       14.337       13.310      176.155      205.547      177.166        0.239        0.028       64.559        4.931        0.006      337.150        8.931      861.041
09/18/2013  05:45:00      -71.126      -13.753       -8.339       14.429       12.689        9.247      208.194      161.008       85.500        0.289        0.023       72.444        4.262        0.003      337.143        8.919      861.038
09/18/2013  05:46:00      -81.169      -26.368       -6.385        9.491       13.706       10.519       90.076      187.847      110.639        0.386        0.019       85.345        5.430        0.004      337.056        8.772      861.036
09/18/2013  05:47:00      -83.207      -37.586      -10.964       17.602       15.345        8.959      309.832      235.476       80.257        0.454        0.031       91.303        3.646        0.002      337.089        8.828      861.029
09/18/2013  05:48:00      -97.964      -45.912      -12.268       14.021       10.282        9.010      196.592      105.720       81.176        0.612        0.019      108.189        5.595        0.003      337.070        8.798      861.031
09/18/2013  05:49:00      -96.218      -59.807       -7.364       14.959       11.683       11.257      223.758      136.495      126.731        0.669        0.024      113.291        3.739        0.001      337.065        8.787      861.019
09/18/2013  05:50:00      -70.664      -48.607       -0.614       34.501       26.769       19.765     1190.319      716.591      390.648        0.483        0.115       85.767       17.845        0.043      337.013        8.700      861.020
09/18/2013  05:51:00      -90.835      -50.435       -6.436       21.687       23.338       10.800      470.340      544.644      116.638        0.598        0.057      103.898        8.115        0.006      337.023        8.717      861.027
09/18/2013  05:52:00      -78.444      -13.260       -3.221       22.504       21.598       14.496      506.444      466.492      210.130        0.376        0.059       79.557       11.950        0.023      337.025        8.719      861.030
09/18/2013  05:53:00      -60.013       -8.433       -2.639       27.924       19.780       17.796      779.750      391.236      316.704        0.258        0.074       60.602       15.090        0.062      336.979        8.643      861.050
09/18/2013  05:54:00      -64.390       -4.911       -7.303       17.962       20.207       12.871      322.640      408.338      165.664        0.256        0.045       64.577       10.655        0.027      336.979        8.642      861.084
09/18/2013  05:55:00      -44.747        1.934       -3.681       20.361       19.055        9.479      414.554      363.093       89.860        0.144        0.043       44.788        7.962        0.032      336.954        8.600      861.133
09/18/2013  05:56:00      -42.844       -5.232       -4.910       14.745       13.177       13.482      217.405      173.628      181.766        0.123        0.029       43.162        7.656        0.031      336.993        8.664      861.176
09/18/2013  05:57:00      -31.530       -6.452       -6.232       16.751       14.878        8.224      280.582      221.369       67.635        0.082        0.028       32.183        6.574        0.042      337.032        8.731      861.219
09/18/2013  05:58:00      -19.788      -18.136        0.751       13.841        9.898       10.239      191.570       97.976      104.842        0.056        0.020       26.842        4.773        0.032      337.140        8.913      861.251
09/18/2013  05:59:00      -47.679       -1.930       -2.500        8.471        8.196        6.842       71.754       67.176       46.814        0.123        0.009       47.718        4.982        0.011      337.050        8.762      861.281
09/18/2013  06:00:00      -27.056       -9.059       -0.412       14.496       16.466        6.915      210.136      271.115       47.812        0.067        0.026       28.532        4.268        0.022      337.116        8.873      861.301
09/18/2013  06:01:00      -40.452       -7.003       -5.505       18.972       10.748        7.348      359.934      115.514       53.998        0.112        0.026       41.053        2.550        0.004      337.059        8.776      861.317
09/18/2013  06:02:00      -70.512      -15.710       -6.965       21.233       13.575       10.103      450.850      184.292      102.077        0.300        0.037       72.241        8.304        0.013      337.051        8.761      861.326
09/18/2013  06:03:00      -97.494      -17.843       -4.982       12.759       13.228       11.435      162.784      174.981      130.757        0.516        0.023       99.113        5.798        0.003      337.005        8.687      861.332
09/18/2013  06:04:00      -98.507      -37.501       -6.778       13.229       15.402        9.384      174.995      237.212       88.061        0.583        0.025      105.404        5.732        0.003      336.961        8.612      861.334
09/18/2013  06:05:00     -110.068      -25.022      -11.046       22.827       19.971       12.162      521.054      398.844      147.905        0.697        0.053      112.877       10.440        0.009      336.873        8.466      861.327
09/18/2013  06:06:00     -109.906      -38.328      -11.883       15.468       16.006        9.580      239.259      256.203       91.777        0.714        0.029      116.397        2.057        0.000      336.861        8.447      861.315
09/18/2013  06:07:00     -107.048      -27.540      -13.008       19.950       23.969       14.947      397.994      574.506      223.407        0.679        0.060      110.534       11.311        0.010      336.868        8.457      861.306
09/18/2013  06:08:00     -115.708      -29.056      -21.081       17.873       16.548       13.961      319.448      273.852      194.921        0.773        0.039      119.300        9.914        0.007      336.853        8.433      861.306
09/18/2013  06:09:00     -105.444      -17.761       -6.530       19.905       20.857       14.993      396.194      435.019      224.792        0.627        0.053      106.930       11.653        0.012      336.816        8.372      861.317
09/18/2013  06:10:00      -31.472      -17.017       -5.067       36.280       15.093       17.891     1316.270      227.784      320.097        0.158        0.093       35.778        9.658        0.073      336.821        8.381      861.336
09/18/2013  06:11:00      -40.513      -15.252       -8.488       17.116       14.315       13.282      292.945      204.909      176.415        0.131        0.034       43.289        6.739        0.024      336.814        8.369      861.367
09/18/2013  06:12:00      -62.825      -12.701       -7.161       12.119       15.247       10.082      146.863      232.463      101.655        0.232        0.024       64.096        3.209        0.003      336.796        8.340      861.400
09/18/2013  06:13:00      -28.939       -5.698       -8.158       17.688       15.542        9.520      312.854      241.561       90.631        0.079        0.032       29.494        6.726        0.052      336.740        8.247      861.429
09/18/2013  06:14:00      -16.750      -17.410       -2.301       12.834       12.534        8.914      164.722      157.095       79.461        0.050        0.020       24.160        8.556        0.125      336.777        8.308      861.442
09/18/2013  06:15:00      -16.811      -10.411       -2.941       12.371       11.465        7.630      153.030      131.444       58.220        0.037        0.017       19.774        3.638        0.034      336.822        8.383      861.440
09/18/2013  06:16:00      -49.596       -7.039       -5.203       17.071       19.052        9.845      291.406      362.974       96.916        0.164        0.038       50.092        8.324        0.028      336.823        8.384      861.434
09/18/2013  06:17:00      -50.572       -4.203       -6.286       26.713       17.456       14.360      713.564      304.726      206.211        0.192        0.061       50.746        9.199        0.033      336.758        8.277      861.431
09/18/2013  06:18:00      -31.688      -28.926        0.999       24.892       21.301       11.332      619.622      453.744      128.406        0.152        0.060       42.905       13.204        0.095      336.817        8.374      861.426
09/18/2013  06:19:00      -44.990      -22.296      -11.298       25.565       14.067       12.947      653.548      197.869      167.628        0.183        0.051       50.211        7.927        0.025      336.928        8.559      861.428
09/18/2013  06:20:00      -65.516      -29.128       -5.395       22.231       21.059       11.892      494.235      443.492      141.424        0.312        0.054       71.700        9.146        0.016      336.929        8.560      861.443
09/18/2013  06:21:00      -50.100      -23.553       -5.526       25.325       15.806       13.591      641.365      249.830      184.726        0.209        0.054       55.360       13.388        0.058      336.937        8.572      861.461
09/18/2013  06:22:00       -9.736      -20.669        8.380       22.154       18.786       13.380      490.803      352.902      179.033        0.081        0.051       22.847       13.054        0.326      336.867        8.456      861.485
09/18/2013  06:23:00      -36.219      -18.622        1.346       15.133        8.536        7.495      229.022       72.871       56.177        0.101        0.018       40.726        7.533        0.034      336.831        8.395      861.487
09/18/2013  06:24:00      -31.926      -46.633        2.678       25.127       23.891       14.114      631.351      570.782      199.206        0.230        0.070       56.515       12.897        0.052      336.877        8.474      861.490
09/18/2013  06:25:00      -51.353      -55.312       -2.554       26.730       22.223       16.983      714.471      493.843      288.423        0.360        0.075       75.475       18.482        0.060      336.884        8.484      861.478
09/18/2013  06:26:00      -29.827      -29.394       -0.966       32.085       19.487       14.164     1029.472      379.731      200.609        0.168        0.080       41.876       13.413        0.103      336.916        8.539      861.478
09/18/2013  06:27:00      -59.355      -22.137      -10.065       12.344       14.422       12.254      152.375      207.984      150.166        0.231        0.026       63.349        5.315        0.007      336.905        8.520      861.464
09/18/2013  06:28:00      -49.032      -22.455       -4.778       36.709       14.384       13.442     1347.530      206.911      180.689        0.233        0.087       53.929       12.291        0.052      336.947        8.588      861.449
09/18/2013  06:29:00      -37.347      -29.228        2.557       22.817       21.471       15.787      520.637      461.020      249.219        0.174        0.062       47.424       12.612        0.071      336.866        8.455      861.443
09/18/2013  06:30:00      -52.545      -36.974        1.356       24.189       22.290       14.197      585.132      496.852      201.556        0.271        0.064       64.250       11.424        0.032      336.784        8.319      861.435
09/18/2013  06:31:00      -35.513      -48.871       -2.108       33.027       31.354       15.368     1090.807      983.057      236.184        0.298        0.116       60.411       20.121        0.111      336.848        8.425      861.430
09/18/2013  06:32:00      -15.337      -59.648       -7.754       28.110       25.876       15.768      790.196      669.564      248.618        0.278        0.085       61.588       11.881        0.037      336.989        8.659      861.436
09/18/2013  06:33:00       -4.539      -37.082        0.576       14.197       29.985       19.914      201.553      899.126      396.556        0.145        0.075       37.359       18.345        0.241      336.928        8.558      861.453
09/18/2013  06:34:00        1.990       -5.118        5.136       19.481       13.842       15.396      379.512      191.595      237.024        0.043        0.040        5.491       12.199        4.935      336.840        8.411      861.481
09/18/2013  06:35:00      -10.489      -10.534       -8.790       14.570       17.643       13.258      212.274      311.263      175.781        0.050        0.035       14.866        8.597        0.334      336.864        8.451      861.508
09/18/2013  06:36:00      -52.726      -33.165        2.899       42.597       31.949       19.286     1814.532     1020.765      371.960        0.355        0.160       62.289       19.716        0.100      336.805        8.353      861.542
09/18/2013  06:37:00      -79.572      -64.729        4.373       47.959       26.579       22.461     2300.058      706.468      504.507        0.703        0.176      102.575       22.596        0.049      336.754        8.268      861.561
09/18/2013  06:38:00      -76.713      -75.699       -1.824       31.647       31.032       23.186     1001.558      962.967      537.578        0.706        0.125      107.774       16.119        0.022      336.712        8.197      861.567
09/18/2013  06:39:00      -81.452      -60.647       -1.602       27.728       36.377       19.463      768.842     1323.292      378.815        0.639        0.124      101.550       11.484        0.013      336.746        8.255      861.571
09/18/2013  06:40:00      -29.429      -35.914       -8.172       29.933       24.278       14.910      895.981      589.425      222.310        0.196        0.085       46.431        6.948        0.022      336.806        8.355      861.575
09/18/2013  06:41:00      -17.751      -27.028        4.742       30.357       19.326       18.692      921.551      373.511      349.399        0.136        0.082       32.336       15.330        0.225      336.853        8.434      861.594
09/18/2013  06:42:00      -50.568      -45.003       -2.416       30.757       17.753       13.827      946.022      315.171      191.190        0.302        0.073       67.694       15.203        0.050      336.787        8.324      861.608
09/18/2013  06:43:00      -55.475      -61.715        2.395       54.452       37.424       23.753     2965.034     1400.543      564.225        0.591        0.246       82.983       29.651        0.128      336.689        8.160      861.618
09/18/2013  06:44:00     -120.641     -121.842      -13.200       33.053       27.074       18.356     1092.518      733.020      336.948        1.587        0.108      171.463       18.451        0.012      336.635        8.069      861.619
09/18/2013  06:45:00     -122.769      -92.132       -7.275       37.313       32.721       24.920     1392.224     1070.661      621.012        1.335        0.154      153.494       22.777        0.022      336.533        7.900      861.615
09/18/2013  06:46:00      -95.874      -72.491        5.675       60.746       47.916       29.337     3690.120     2295.900      860.648        1.066        0.342      120.195       36.861        0.094      336.553        7.933      861.609
09/18/2013  06:47:00      -87.742      -80.029        3.212       59.955       41.004       35.191     3594.615     1681.354     1238.434        1.031        0.326      118.758       39.276        0.109      336.569        7.958      861.604
09/18/2013  06:48:00      -67.915      -64.598       -0.496       40.309       33.449       22.135     1624.838     1118.824      489.960        0.601        0.162       93.730       19.568        0.044      336.565        7.954      861.598
09/18/2013  06:49:00      -71.539      -46.899        5.892       37.308       29.164       16.842     1391.908      850.533      283.664        0.494        0.126       85.542       14.834        0.030      336.560        7.946      861.604
09/18/2013  06:50:00      -82.502      -39.546        0.766       32.372       42.879       18.612     1047.940     1838.649      346.395        0.580        0.162       91.490       20.491        0.050      336.515        7.869      861.615
09/18/2013  06:51:00      -60.653      -38.455        4.886       34.646       25.002       20.363     1200.341      625.079      414.667        0.371        0.112       71.816       17.259        0.058      336.567        7.955      861.626
09/18/2013  06:52:00      -54.082      -61.248       -0.858       34.008       22.700       17.640     1156.531      515.276      311.175        0.433        0.099       81.708       18.649        0.052      336.588        7.992      861.650
09/18/2013  06:53:00      -41.734      -29.863       -2.541       33.289       16.048       18.936     1108.149      257.529      358.578        0.218        0.086       51.318       18.255        0.127      336.606        8.022      861.682
09/18/2013  06:54:00      -32.526      -46.472        0.792       23.248       23.968       15.985      540.470      574.472      255.509        0.229        0.069       56.723       11.827        0.043      336.702        8.182      861.718
09/18/2013  06:55:00      -62.352      -39.413       -2.836       23.247       26.490       12.865      540.424      701.743      165.511        0.343        0.070       73.764       10.913        0.022      336.618        8.041      861.735
09/18/2013  06:56:00      -13.088      -36.961        6.351       24.954       20.166       18.048      622.690      406.660      325.737        0.147        0.068       39.210       12.942        0.109      336.709        8.194      861.752
09/18/2013  06:57:00      -72.326      -59.771      -10.624       23.771       15.867       15.989      565.058      251.766      255.643        0.499        0.054       93.828        5.840        0.004      336.510        7.862      861.766
09/18/2013  06:58:00      -66.305      -74.060       -6.069       24.954       20.621       16.575      622.689      425.241      274.744        0.562        0.066       99.405       17.207        0.030      336.586        7.988      861.787
09/18/2013  06:59:00      -81.909      -72.599       -4.376       29.331       23.621       14.832      860.289      557.930      219.989        0.682        0.082      109.452       12.190        0.012      336.550        7.929      861.791
09/18/2013  07:00:00      -87.847      -40.544       -5.020       34.706       18.545       13.715     1204.479      343.924      188.105        0.556        0.087       96.752       11.608        0.014      336.515        7.871      861.794
09/18/2013  07:01:00      -90.563      -40.755       -8.995       22.081       20.022       13.879      487.569      400.876      192.619        0.551        0.054       99.311       12.004        0.015      336.531        7.897      861.784
09/18/2013  07:02:00      -85.451      -27.226       -9.526       19.907       22.230       15.578      396.269      494.154      242.667        0.463        0.057       89.683       10.157        0.013      336.609        8.027      861.769
09/18/2013  07:03:00      -77.310      -15.970       -1.402       27.217       26.109       15.737      740.761      681.701      247.638        0.395        0.084       78.942       13.853        0.031      336.594        8.002      861.753
09/18/2013  07:04:00      -73.083      -10.162       -1.627       29.266       24.076       14.546      856.485      579.671      211.579        0.355        0.082       73.786       15.210        0.042      336.521        7.878      861.735
09/18/2013  07:05:00      -95.057        0.503      -10.372       24.104       23.220       12.420      581.008      539.182      154.257        0.521        0.064       95.058        9.412        0.010      336.532        7.897      861.726
09/18/2013  07:06:00      -72.136      -14.901        0.015       42.807       32.601       19.694     1832.453     1062.849      387.836        0.435        0.164       73.659       21.622        0.086      336.551        7.929      861.720
09/18/2013  07:07:00     -119.399      -19.721      -15.670       18.589       30.290       13.337      345.559      917.483      177.868        0.817        0.072      121.016        7.824        0.004      336.520        7.878      861.722
09/18/2013  07:08:00      -50.254      -25.512       -7.176       38.524       18.197       17.541     1484.078      331.134      307.680        0.267        0.106       56.359        6.307        0.013      336.692        8.166      861.742
09/18/2013  07:09:00      -14.081       -5.580       14.611       25.261       24.650       16.406      638.113      607.623      269.153        0.098        0.076       15.146       15.119        0.996      336.816        8.373      861.776
09/18/2013  07:10:00      -49.028       10.884       -2.391       29.284       14.448       16.351      857.563      208.743      267.368        0.193        0.067       50.222       13.012        0.067      336.649        8.093      861.831
09/18/2013  07:11:00      -50.681       -0.027       -5.987       12.615       12.117       10.773      159.137      146.810      116.047        0.151        0.021       50.681        6.117        0.015      336.654        8.103      861.885
09/18/2013  07:12:00      -38.296       -2.986       -3.852       13.201       11.007        9.877      174.268      121.162       97.556        0.094        0.020       38.413        6.353        0.027      336.729        8.228      861.947
09/18/2013  07:13:00      -21.895        2.714      -10.429        9.036        5.912        8.502       81.654       34.957       72.291        0.039        0.009       22.063        4.992        0.051      336.846        8.423      861.991
09/18/2013  07:14:00      -23.554        0.738       -5.731       10.267        7.078        7.277      105.406       50.095       52.952        0.040        0.010       23.566        5.088        0.047      336.884        8.485      862.019
09/18/2013  07:15:00      -27.436      -12.184       -4.778        8.791       12.975        7.402       77.289      168.359       54.791        0.061        0.015       30.019        4.560        0.023      336.932        8.566      862.033
09/18/2013  07:16:00      -24.861       -1.568       -4.190        7.053        8.593        6.128       49.743       73.847       37.551        0.040        0.008       24.911        3.625        0.021      336.988        8.657      862.026
09/18/2013  07:17:00      -47.636       -9.875       -1.758       24.161       10.777        9.166      583.753      116.147       84.015        0.158        0.039       48.649        9.922        0.042      336.976        8.637      862.002
09/18/2013  07:18:00      -76.227      -13.550       -9.709       11.305       14.514        9.207      127.799      210.670       84.767        0.326        0.021       77.422        5.436        0.005      336.962        8.614      861.962
09/18/2013  07:19:00      -77.743       -9.735       -2.690       21.616       16.363       13.422      467.252      267.738      180.147        0.353        0.046       78.350       10.806        0.019      336.975        8.636      861.937
09/18/2013  07:20:00      -90.469      -16.655       -6.758       16.588       28.348       11.270      275.145      803.617      127.019        0.486        0.060       91.990        7.662        0.007      336.923        8.549      861.911
09/18/2013  07:21:00     -115.937       -7.662       -9.604       21.555       20.834       14.564      464.628      434.067      212.106        0.735        0.056      116.190        8.852        0.006      336.937        8.573      861.897
09/18/2013  07:22:00      -77.325        1.748       -4.870       29.329       17.908       18.494      860.188      320.698      342.037        0.376        0.076       77.345       13.470        0.030      336.948        8.592      861.912
09/18/2013  07:23:00      -73.371       -1.440       -4.538       20.639       21.130       13.803      425.989      446.482      190.515        0.323        0.053       73.385        7.397        0.010      336.931        8.563      861.946
09/18/2013  07:24:00      -56.465       -1.979       -8.672       23.501       19.404       11.847      552.306      376.526      140.352        0.217        0.053       56.499        7.545        0.018      337.011        8.695      861.996
09/18/2013  07:25:00      -54.791      -10.065      -13.126       15.339       17.137       11.905      235.299      293.693      141.734        0.197        0.034       55.708        6.395        0.013      337.066        8.788      862.057
09/18/2013  07:26:00      -24.005      -24.433        2.758       14.873       11.788       12.170      221.193      138.952      148.105        0.084        0.025       34.252        4.937        0.021      337.197        9.009      862.099
09/18/2013  07:27:00      -15.175      -18.345        3.576       12.557        9.234        9.048      157.690       85.274       81.859        0.045        0.016       23.808        6.312        0.070      337.321        9.217      862.137
09/18/2013  07:28:00      -11.383        0.308       11.336        9.451       10.131        7.270       89.318      102.644       52.848        0.025        0.012       11.387        5.628        0.244      337.595        9.675      862.144
09/18/2013  07:29:00      -21.920        3.655        5.369        7.635       10.697       12.526       58.293      114.426      156.891        0.043        0.016       22.222        9.160        0.170      337.362        9.285      862.133
09/18/2013  07:30:00      -34.975        8.928      -14.196       16.728       24.603       11.870      279.812      605.323      140.905        0.127        0.051       36.096       10.919        0.092      337.344        9.255      862.105
09/18/2013  07:31:00      -35.335        4.688      -14.233       20.521       14.823       10.969      421.107      219.716      120.312        0.112        0.038       35.645        8.456        0.056      337.402        9.351      862.078
09/18/2013  07:32:00      -66.330       -9.868       -6.053       18.099       16.785        9.396      327.560      281.737       88.276        0.262        0.035       67.060        5.429        0.007      337.318        9.212      862.058
09/18/2013  07:33:00      -33.345       -8.749        3.757       21.206       16.314       10.873      449.687      266.149      118.224        0.102        0.042       34.473        7.356        0.046      337.408        9.360      862.048
09/18/2013  07:34:00      -53.554      -31.680       -8.936       17.052       15.144        9.210      290.760      229.328       84.830        0.228        0.030       62.223        7.663        0.015      337.402        9.352      862.044
09/18/2013  07:35:00      -39.175       -0.661       -0.437       23.235       25.879       15.717      539.878      669.717      247.015        0.150        0.073       39.180       11.803        0.091      337.484        9.488      862.063
09/18/2013  07:36:00      -11.399        0.745        3.820       12.497       15.460        9.894      156.173      239.022       97.886        0.032        0.025       11.423       10.498        0.845      337.619        9.716      862.082
09/18/2013  07:37:00      -16.762      -29.488        2.477       12.488       22.911       14.344      155.955      524.896      205.758        0.102        0.044       33.919       10.200        0.090      337.600        9.683      862.105
09/18/2013  07:38:00       -7.043      -37.078      -14.433       17.345       17.464       11.724      300.840      305.002      137.456        0.119        0.037       37.741        9.469        0.063      337.572        9.636      862.117
09/18/2013  07:39:00       -2.843      -29.612        2.370       12.298       15.560       12.314      151.245      242.122      151.638        0.072        0.027       29.748        8.244        0.077      337.601        9.684      862.133
09/18/2013  07:40:00       14.007       -4.516      -10.237       16.110       19.880       12.374      259.538      395.226      153.110        0.056        0.040       14.717        9.045        0.378      337.594        9.672      862.135
09/18/2013  07:41:00      -40.585       -9.543      -14.237       17.795       14.019        9.357      316.675      196.526       87.562        0.127        0.030       41.692        6.689        0.026      337.597        9.679      862.149
09/18/2013  07:42:00      -44.910       -7.290       -7.529       10.057       10.630        7.175      101.139      112.999       51.475        0.120        0.013       45.497        3.438        0.006      337.508        9.530      862.156
09/18/2013  07:43:00      -37.931      -13.994       -3.622       19.693       21.910        9.959      387.828      480.029       99.176        0.131        0.048       40.430        5.605        0.019      337.596        9.676      862.156
09/18/2013  07:44:00      -62.712      -50.082       -5.660       25.089       20.491       13.829      629.477      419.878      191.228        0.386        0.062       80.256        7.910        0.010      337.525        9.558      862.152
09/18/2013  07:45:00      -40.700      -26.652        3.679       31.513       38.057       15.704      993.070     1448.317      246.600        0.253        0.134       48.650       21.410        0.194      337.637        9.746      862.157
09/18/2013  07:46:00      -11.425      -15.551       12.074       21.678       22.988       13.818      469.950      528.458      190.927        0.085        0.059       19.297       11.951        0.384      337.868       10.133      862.158
09/18/2013  07:47:00      -33.558        5.692       -8.467       13.722        9.762       11.774      188.295       95.293      138.625        0.083        0.021       34.037        7.777        0.052      337.580        9.649      862.164
09/18/2013  07:48:00      -30.946        0.865       -8.645       15.115       15.010        8.450      228.461      225.306       71.411        0.078        0.026       30.958        7.934        0.066      337.659        9.782      862.173
09/18/2013  07:49:00      -24.577       13.669       -0.713       16.435       10.791       15.661      270.102      116.439      245.278        0.071        0.032       28.122       11.441        0.166      337.856       10.114      862.172
09/18/2013  07:50:00      -32.406        8.335        7.249       20.548       13.275       14.313      422.217      176.234      204.850        0.099        0.040       33.461       12.180        0.133      337.916       10.214      862.183
09/18/2013  07:51:00      -18.914       15.769      -15.555       40.538       19.513       13.057     1643.360      380.769      170.488        0.152        0.110       24.626       18.077        0.539      337.760        9.953      862.188
09/18/2013  07:52:00       10.927       -3.896       17.508       68.560       33.652       29.715     4700.479     1132.481      882.993        0.358        0.336       11.601       16.136        1.935      337.904       10.193      862.169
09/18/2013  07:53:00      -52.062        8.956        1.154       24.567       23.254       18.681      603.526      540.737      348.977        0.214        0.075       52.827        3.854        0.005      337.896       10.180      862.162
09/18/2013  07:54:00      -57.930        6.651      -10.740       29.367       12.730       17.366      862.406      162.044      301.589        0.242        0.066       58.310        6.262        0.012      337.823       10.058      862.152
09/18/2013  07:55:00       -2.723       39.283        6.937       20.876       37.818       23.511      435.792     1430.210      552.764        0.201        0.121       39.377       25.931        0.434      338.128       10.570      862.152
09/18/2013  07:56:00      -62.471       -9.380        7.227       42.821       18.846       20.117     1833.675      355.180      404.684        0.332        0.130       63.171       24.214        0.147      337.935       10.245      862.159
09/18/2013  07:57:00      -47.897      -15.057       -6.654       31.741       19.961       14.039     1007.472      398.435      197.083        0.208        0.080       50.208        7.283        0.021      337.864       10.128      862.181
09/18/2013  07:58:00      -28.102       -8.191       14.751       46.216       20.451       17.413     2135.944      418.236      303.199        0.197        0.143       29.271       21.770        0.553      338.220       10.723      862.204
09/18/2013  07:59:00      -23.871        4.340       12.831       20.600       16.415       15.169      424.381      269.443      230.099        0.084        0.046       24.262       11.587        0.228      338.227       10.736      862.225
09/18/2013  08:00:00       28.267       15.002       31.137       32.926       17.018       19.510     1084.097      289.608      380.622        0.187        0.088       32.001       16.625        0.270      338.171       10.642      862.228
09/18/2013  08:01:00       18.617       77.900        5.347       40.375       66.665       30.334     1630.111     4444.165      920.181        0.672        0.350       80.093       30.133        0.142      337.962       10.291      862.243
09/18/2013  08:02:00        3.785       78.370      -10.558       33.469       36.797       19.865     1120.184     1354.025      394.616        0.457        0.143       78.462        8.251        0.011      337.994       10.344      862.263
09/18/2013  08:03:00       -8.898       33.392       14.621       37.576       29.530       22.466     1411.924      872.013      504.729        0.210        0.139       34.557       15.585        0.203      338.158       10.621      862.272
09/18/2013  08:04:00       10.708      155.200       -7.895       28.526       41.584       31.132      813.735     1729.239      969.233        1.389        0.176      155.569       24.356        0.025      337.938       10.251      862.288
09/18/2013  08:05:00      -19.353      165.322       -8.816       36.094       72.327       31.607     1302.762     5231.191      998.973        1.766        0.377      166.451       36.738        0.049      337.941       10.253      862.314
09/18/2013  08:06:00       10.386      231.125      -30.993       34.896       43.472       30.627     1217.754     1889.772      938.041        2.927        0.202      231.358       16.515        0.005      337.818       10.046      862.337
09/18/2013  08:07:00      -79.771      184.941      -17.916       59.711       64.486       32.856     3565.395     4158.489     1079.507        2.484        0.440      201.412       27.418        0.019      337.857       10.110      862.347
09/18/2013  08:08:00      -55.925      197.888      -25.398       46.840       55.678       32.662     2193.943     3100.014     1066.796        2.465        0.318      205.639       33.263        0.026      337.868       10.130      862.352
09/18/2013  08:09:00      -68.368      191.508      -27.512       40.804       69.606       30.071     1664.999     4845.011      904.253        2.476        0.371      203.346       29.955        0.022      337.829       10.064      862.359
09/18/2013  08:10:00      -39.157      176.854      -17.198       54.617       69.445       35.951     2982.969     4822.647     1292.465        2.110        0.455      181.137       34.352        0.036      337.886       10.161      862.360
09/18/2013  08:11:00      -41.362      172.901      -13.999       33.271       46.325       31.116     1106.977     2146.020      968.189        1.801        0.211      177.780       26.191        0.022      337.923       10.223      862.373
09/18/2013  08:12:00       -9.693      165.295      -10.441       24.218       40.186       22.744      586.527     1614.910      517.270        1.512        0.136      165.579       21.171        0.016      337.905       10.195      862.381
09/18/2013  08:13:00        3.275      121.661       -6.493       47.065       64.552       34.963     2215.067     4166.959     1222.420        1.123        0.380      121.705       40.411        0.110      338.013       10.376      862.408
09/18/2013  08:14:00      -16.371      173.047      -14.149       38.245       61.475       31.686     1462.692     3779.205     1003.999        1.833        0.312      173.820       27.760        0.026      338.018       10.384      862.438
09/18/2013  08:15:00       12.018      143.358       -1.032       54.205       62.496       38.016     2938.149     3905.699     1445.232        1.449        0.414      143.861       38.516        0.072      338.043       10.426      862.463
09/18/2013  08:16:00       27.142      143.216        2.784       42.411       99.677       51.767     1798.672     9935.598     2679.836        1.783        0.721      145.765       59.796        0.168      337.987       10.331      862.492
09/18/2013  08:17:00        3.374      235.680      -19.999       48.758       54.856       30.470     2377.354     3009.160      928.414        3.113        0.316      235.704       23.071        0.010      337.968       10.297      862.520
09/18/2013  08:18:00       -7.156      161.290      -14.500       44.456       43.551       28.494     1976.296     1896.689      811.934        1.548        0.234      161.448       24.407        0.023      338.029       10.402      862.535
09/18/2013  08:19:00       -6.524      133.557      -14.724       29.848       42.641       19.306      890.903     1818.288      372.736        1.059        0.154      133.716       12.653        0.009      338.035       10.415      862.527
09/18/2013  08:20:00       20.047      222.175      -22.356       49.513      103.187       37.655     2451.533    10647.509     1417.920        3.239        0.726      223.078       45.697        0.042      338.052       10.440      862.516
09/18/2013  08:21:00      -11.394      223.238      -30.592       45.420       86.302       27.890     2062.995     7447.951      777.874        3.059        0.514      223.529       32.423        0.021      338.028       10.398      862.489
09/18/2013  08:22:00      -26.860      115.861       -1.394       40.021       53.299       29.258     1601.691     2840.790      856.009        0.972        0.265      118.934       27.492        0.053      338.229       10.740      862.463
09/18/2013  08:23:00      -67.790      164.361      -15.410       64.737       69.411       33.145     4190.819     4817.877     1098.563        2.098        0.505      177.792       30.520        0.029      338.157       10.615      862.454
09/18/2013  08:24:00      -18.663      158.558      -10.004       39.949       46.901       33.499     1595.935     2199.688     1122.186        1.525        0.246      159.653       25.115        0.025      338.174       10.648      862.448
09/18/2013  08:25:00       -5.424      172.015      -13.510       37.483       78.173       31.322     1405.002     6111.005      981.078        1.915        0.425      172.100       35.166        0.042      338.177       10.651      862.450
09/18/2013  08:26:00      -18.823      274.302      -40.409       45.060       46.746       24.898     2030.362     2185.195      619.902        4.103        0.242      274.947       15.993        0.003      338.066       10.459      862.475
09/18/2013  08:27:00      -51.534      194.539      -23.512       37.977       72.922       29.666     1442.218     5317.591      880.092        2.435        0.382      201.249       29.414        0.021      338.155       10.611      862.495
09/18/2013  08:28:00       -8.659      181.004      -19.104       39.180       37.068       23.733     1535.057     1374.040      563.256        1.834        0.174      181.211       17.116        0.009      338.244       10.762      862.509
09/18/2013  08:29:00      -13.077      239.447      -31.266       40.161       49.944       24.005     1612.879     2494.381      576.238        3.158        0.234      239.804       20.244        0.007      338.156       10.611      862.528
09/18/2013  08:30:00       14.338      196.152      -21.748       37.485       55.059       34.714     1405.095     3031.479     1205.057        2.240        0.282      196.675       32.258        0.027      338.220       10.722      862.538
09/18/2013  08:31:00       35.260      132.499       -8.510       51.094       68.076       41.911     2610.618     4634.379     1756.531        1.393        0.450      137.110       44.525        0.105      338.319       10.890      862.538
09/18/2013  08:32:00        8.309      115.253      -11.323       31.588       61.427       31.591      997.776     3773.248      997.991        0.962        0.288      115.552       31.252        0.073      338.314       10.882      862.533
09/18/2013  08:33:00       21.824       63.999        8.448       40.170       68.732       35.685     1613.598     4724.070     1273.449        0.613        0.381       67.617       36.965        0.299      338.429       11.074      862.524
09/18/2013  08:34:00      -27.069       51.410        0.890       75.772       51.076       31.393     5741.421     2608.724      985.524        0.635        0.467       58.101       25.452        0.192      338.473       11.150      862.521
09/18/2013  08:35:00      -44.532      127.236      -15.306       36.204       67.619       23.312     1310.718     4572.269      543.467        1.242        0.321      134.804       28.362        0.044      338.380       10.990      862.509
09/18/2013  08:36:00        5.820      163.287       -0.972       36.351       73.107       37.705     1321.412     5344.562     1421.675        1.739        0.404      163.390       41.266        0.064      338.358       10.953      862.511
09/18/2013  08:37:00        9.565      105.537       -4.835       36.845       35.764       25.332     1357.582     1279.061      641.724        0.726        0.164      105.969       22.933        0.047      338.436       11.086      862.506
09/18/2013  08:38:00      -10.692      141.276      -10.532       58.119       69.398       33.827     3377.832     4816.047     1144.253        1.476        0.467      141.680       38.012        0.072      338.425       11.068      862.507
09/18/2013  08:39:00      -84.180      115.099      -14.496       38.949       40.393       27.900     1516.990     1631.609      778.425        1.223        0.196      142.598       16.954        0.014      338.341       10.926      862.516
09/18/2013  08:40:00      -33.029      140.135      -13.717       34.436       42.600       25.290     1185.852     1814.740      639.571        1.228        0.182      143.975       24.542        0.029      338.377       10.987      862.527
09/18/2013  08:41:00        3.719      201.844      -28.649       23.001       28.873       20.090      529.036      833.674      403.612        2.167        0.088      201.878       13.410        0.004      338.214       10.711      862.542
09/18/2013  08:42:00       -2.542      128.578      -14.560       15.471       22.524       12.182      239.360      507.328      148.401        0.882        0.045      128.603        7.813        0.004      338.189       10.672      862.564
09/18/2013  08:43:00      -17.458      103.311       -5.059       39.215       55.302       23.890     1537.793     3058.294      570.751        0.808        0.258      104.775       29.841        0.081      338.401       11.028      862.581
09/18/2013  08:44:00       75.275       60.192        3.570       27.080       28.927       24.619      733.353      836.755      606.087        0.574        0.109       96.381       16.946        0.031      338.400       11.026      862.596
09/18/2013  08:45:00       34.546       52.868        6.053       34.252       43.214       31.892     1173.194     1867.467     1017.085        0.404        0.203       63.154       30.890        0.239      338.474       11.149      862.605
09/18/2013  08:46:00        4.023       65.452       -4.569       29.816       33.962       24.727      889.023     1153.392      611.409        0.349        0.133       65.575       21.970        0.112      338.518       11.224      862.610
09/18/2013  08:47:00        3.876       11.031        1.671       42.001       35.638       30.643     1764.094     1270.062      938.969        0.206        0.199       11.692       19.731        2.848      338.529       11.244      862.616
09/18/2013  08:48:00      105.165       70.562       20.165       66.557       48.766       37.219     4429.793     2378.158     1385.222        1.232        0.410      126.644       23.008        0.033      338.401       11.028      862.608
09/18/2013  08:49:00       80.367       36.162       14.850       48.957       37.211       30.147     2396.773     1384.670      908.861        0.634        0.235       88.128       16.060        0.033      338.489       11.174      862.610
09/18/2013  08:50:00       45.573       88.875       15.364       52.713       66.985       42.896     2778.644     4487.018     1840.091        0.966        0.455       99.879       43.632        0.191      338.545       11.269      862.608
09/18/2013  08:51:00       28.153       47.555        2.012       34.880       46.473       28.405     1216.583     2159.766      806.863        0.362        0.209       55.263       29.267        0.280      338.650       11.444      862.618
09/18/2013  08:52:00       54.975       16.157       22.594       30.077       31.426       29.444      904.613      987.578      866.974        0.328        0.138       57.300       15.194        0.070      338.620       11.396      862.626
09/18/2013  08:53:00       57.516       40.947       31.392       28.833       13.893       17.372      831.369      193.014      301.795        0.365        0.066       70.603        4.637        0.004      338.399       11.025      862.637
09/18/2013  08:54:00       70.156       44.448        0.612       25.677       32.401       25.163      659.316     1049.810      633.166        0.462        0.117       83.051       18.269        0.048      338.471       11.145      862.638
09/18/2013  08:55:00       80.747       87.033        0.082       47.139       33.782       37.258     2222.043     1141.219     1388.145        0.942        0.238      118.722       27.555        0.054      338.480       11.160      862.656
09/18/2013  08:56:00       43.866       83.145       -6.710       39.353       43.259       25.829     1548.677     1871.312      667.152        0.648        0.204       94.007       25.104        0.071      338.577       11.323      862.685
09/18/2013  08:57:00      -24.130       83.026       -2.539       37.455       42.278       28.540     1402.860     1787.411      814.539        0.574        0.200       86.461       25.077        0.084      338.681       11.499      862.705
09/18/2013  08:58:00       22.915       58.265       11.152       48.490       36.315       27.092     2351.310     1318.780      733.970        0.422        0.220       62.609       13.020        0.043      338.772       11.651      862.731
09/18/2013  08:59:00       75.617       55.377       13.669       63.982       44.413       36.662     4093.655     1972.503     1344.083        0.819        0.371       93.725       36.889        0.155      338.731       11.582      862.749
09/18/2013  09:00:00      123.963      115.093       -3.941       57.170       45.699       42.066     3268.362     2088.416     1769.567        1.788        0.356      169.154       37.476        0.049      338.500       11.191      862.753
09/18/2013  09:01:00       92.816       81.448       10.190       49.040       44.946       32.622     2404.901     2020.157     1064.207        1.042        0.274      123.485       16.898        0.019      338.561       11.296      862.751
09/18/2013  09:02:00       64.079       67.207       24.932       49.338       34.928       32.849     2434.233     1219.953     1079.059        0.699        0.237       92.860       25.120        0.073      338.753       11.619      862.744
09/18/2013  09:03:00       53.470       60.790       -1.265       54.072       44.943       26.851     2923.787     2019.868      720.984        0.611        0.283       80.959       20.160        0.062      338.816       11.725      862.744
09/18/2013  09:04:00       29.426      141.452       -5.787       32.133       43.535       37.076     1032.513     1895.329     1374.664        1.260        0.215      144.480       29.114        0.041      338.612       11.381      862.766
09/18/2013  09:05:00       46.059       69.205        5.733       51.448       57.357       37.681     2646.851     3289.799     1419.889        0.715        0.368       83.130       36.389        0.192      338.714       11.552      862.774
09/18/2013  09:06:00      -13.255       99.686      -16.123       42.402       41.409       24.440     1797.944     1714.680      597.336        0.724        0.205      100.563       23.696        0.056      338.477       11.156      862.784
09/18/2013  09:07:00       25.506       65.971        1.559       42.634       36.440       27.987     1817.648     1327.880      783.262        0.447        0.196       70.730       28.746        0.165      338.552       11.281      862.786
09/18/2013  09:08:00       79.166       45.295       -0.327       34.362       30.289       37.393     1180.748      917.442     1398.237        0.591        0.175       91.208       22.665        0.062      338.506       11.203      862.790
09/18/2013  09:09:00       84.402       61.356       46.535       46.246       45.417       41.008     2138.708     2062.735     1681.622        0.947        0.294      104.346       37.155        0.127      338.553       11.281      862.783
09/18/2013  09:10:00       85.927       73.739       41.518       47.608       43.597       38.832     2266.499     1900.739     1507.938        1.011        0.284      113.229       26.183        0.053      338.732       11.584      862.767
09/18/2013  09:11:00       24.954       32.942       11.533       30.266       28.095       27.209      916.020      789.306      740.343        0.214        0.122       41.327       12.222        0.087      338.901       11.868      862.771
09/18/2013  09:12:00       94.789       64.500        9.357       30.753       21.398       26.207      945.724      457.872      686.831        0.766        0.105      114.652       14.626        0.016      338.702       11.532      862.764
09/18/2013  09:13:00       12.141       13.847        9.355       39.634       35.671       28.461     1570.845     1272.418      810.031        0.204        0.183       18.416       26.015        1.995      338.804       11.704      862.749
09/18/2013  09:14:00       96.153       76.444       37.293       42.555       37.471       36.581     1810.916     1404.105     1338.187        1.052        0.228      122.837       24.012        0.038      338.597       11.356      862.741
09/18/2013  09:15:00      115.658       58.216       -5.203       57.190       49.756       38.424     3270.739     2475.654     1476.366        1.201        0.361      129.483       20.258        0.024      338.670       11.479      862.737
09/18/2013  09:16:00       87.742       47.197       23.396       37.703       49.845       36.222     1421.480     2484.490     1312.055        0.784        0.261       99.631       23.757        0.057      338.806       11.709      862.742
09/18/2013  09:17:00       55.664       62.137       55.402       34.869       33.151       37.911     1215.881     1098.977     1437.236        0.689        0.188       83.423       18.941        0.052      338.601       11.362      862.749
09/18/2013  09:18:00       79.021       73.030       61.349       45.893       42.831       39.344     2106.183     1834.519     1547.989        1.041        0.274      107.600       31.052        0.083      338.484       11.166      862.762
09/18/2013  09:19:00       53.003       65.503       58.308       36.949       29.840       31.437     1365.249      890.451      988.266        0.687        0.162       84.261       19.608        0.054      338.539       11.261      862.775
09/18/2013  09:20:00       12.531       22.981       43.127       21.436       45.019       21.491      459.494     2026.742      461.884        0.275        0.147       26.175       19.928        0.580      338.703       11.534      862.798
09/18/2013  09:21:00       -1.444      -30.461       39.850       29.650       69.943       32.574      879.131     4891.982     1061.088        0.467        0.342       30.495       24.549        0.648      338.966       11.977      862.796
09/18/2013  09:22:00       26.533       50.287       64.901       48.499       47.346       35.847     2352.128     2241.601     1285.041        0.666        0.294       56.858       31.662        0.310      339.068       12.148      862.804
09/18/2013  09:23:00       11.395      -31.671       24.102       38.933       56.732       37.838     1515.770     3218.509     1431.707        0.394        0.308       33.658       26.086        0.601      339.238       12.435      862.795
09/18/2013  09:24:00      -10.633      -21.501       21.853       21.525       31.452       23.365      463.317      989.253      545.929        0.153        0.100       23.986       17.859        0.554      339.137       12.265      862.781
09/18/2013  09:25:00       -1.851      -78.008       13.794       38.573       51.485       38.254     1487.881     2650.735     1463.338        0.594        0.280       78.030       31.196        0.160      339.068       12.149      862.751
09/18/2013  09:26:00       12.490      -50.458       -0.655       24.106       26.707       22.155      581.114      713.286      490.841        0.224        0.089       51.981       15.604        0.090      339.006       12.043      862.746
09/18/2013  09:27:00        5.869        3.207       15.782       20.227       32.686       33.006      409.133     1068.407     1089.375        0.143        0.128        6.688       26.719       15.959      339.346       12.617      862.742
09/18/2013  09:28:00       27.301       16.995       48.557       28.238       46.833       30.283      797.398     2193.375      917.052        0.365        0.195       32.159       27.638        0.739      339.241       12.441      862.737
09/18/2013  09:29:00       45.164       36.451       37.276       41.592       29.738       31.686     1729.858      884.330     1004.030        0.419        0.181       58.039       12.707        0.048      339.193       12.360      862.757
09/18/2013  09:30:00       30.287       20.388       42.941       41.160       55.171       36.090     1694.146     3043.786     1302.473        0.461        0.302       36.510       31.079        0.725      339.388       12.688      862.761
09/18/2013  09:31:00       27.698       11.741       10.911       28.231       26.636       26.617      796.992      709.467      708.485        0.162        0.111       30.084       14.003        0.217      339.236       12.432      862.782
09/18/2013  09:32:00       47.415        7.413        8.365       44.293       37.371       24.671     1961.844     1396.608      608.670        0.317        0.198       47.991       22.961        0.229      339.361       12.643      862.788
09/18/2013  09:33:00       -2.823       16.149       38.922       25.093       39.412       26.788      629.650     1553.292      717.611        0.234        0.145       16.394       28.818        3.090      339.584       13.018      862.781
09/18/2013  09:34:00       83.539       24.402       87.625       95.468      118.699       69.767     9114.094    14089.444     4867.498        2.166        1.404       87.030       80.739        0.861      339.036       12.092      862.782
09/18/2013  09:35:00      145.930       80.737       10.106       72.254       61.651       50.445     5220.593     3800.803     2544.730        1.974        0.578      166.775       40.985        0.060      339.207       12.380      862.760
09/18/2013  09:36:00      114.741       52.789       39.119       92.423       78.722       44.574     8541.941     6197.112     1986.810        1.710        0.836      126.302       39.926        0.100      339.385       12.683      862.756
09/18/2013  09:37:00       76.952       42.129       42.412       64.283       53.812       37.362     4132.324     2895.679     1395.891        0.896        0.421       87.730       24.416        0.077      339.255       12.463      862.746
09/18/2013  09:38:00       17.113       44.683       58.493       57.130       53.548       40.100     3263.805     2867.412     1607.978        0.672        0.387       47.848       32.049        0.449      339.367       12.651      862.730
09/18/2013  09:39:00       45.707       72.422       68.424       52.923       57.721       33.795     2800.814     3331.687     1142.116        0.964        0.364       85.639       25.857        0.091      339.185       12.345      862.713
09/18/2013  09:40:00       -2.494      -12.575       51.103       35.915       88.979       50.625     1289.884     7917.218     2562.859        0.727        0.588       12.820       58.023       20.484      339.462       12.811      862.705
09/18/2013  09:41:00       81.628     -105.237       -6.141       59.066       56.242       40.431     3488.841     3163.179     1634.676        1.303        0.414      133.184       42.824        0.103      339.002       12.038      862.707
09/18/2013  09:42:00       53.585      -32.603       37.177       44.054       67.366       41.405     1940.717     4538.155     1714.400        0.675        0.410       62.724       46.359        0.546      339.359       12.639      862.707
09/18/2013  09:43:00       23.490        1.215       48.500       42.472       67.423       48.653     1803.910     4545.893     2367.122        0.581        0.436       23.522       45.332        3.714      339.416       12.735      862.696
09/18/2013  09:44:00       77.239      -79.921       21.507       85.292       93.565       58.204     7274.671     8754.398     3387.664        1.611        0.971      111.146       70.074        0.397      339.096       12.196      862.687
09/18/2013  09:45:00       46.207       17.741       15.566       42.427       66.523       38.091     1800.069     4425.278     1450.917        0.518        0.384       49.496       34.194        0.477      339.325       12.580      862.676
09/18/2013  09:46:00       43.968      -19.069       17.138       61.215       50.925       38.798     3747.337     2593.306     1505.294        0.522        0.392       47.925       33.143        0.478      339.593       13.032      862.656
09/18/2013  09:47:00      184.875       75.832       11.055       70.602       62.536       46.494     4984.667     3910.792     2161.696        2.555        0.553      199.823       34.306        0.029      339.312       12.557      862.639
09/18/2013  09:48:00       48.655       18.880       22.724       59.999       83.808       42.446     3599.891     7023.766     1801.640        0.783        0.621       52.189       12.389        0.056      339.569       12.993      862.615
09/18/2013  09:49:00      121.272       81.768       36.525       69.963       57.316       42.202     4894.764     3285.144     1781.004        1.634        0.498      146.263       36.547        0.062      339.480       12.841      862.620
09/18/2013  09:50:00      102.800       98.686       52.205       71.589       74.664       52.843     5124.976     5574.651     2792.387        1.826        0.675      142.502       41.855        0.086      339.178       12.332      862.619
09/18/2013  09:51:00       82.622       62.431       42.191       57.920       79.295       44.572     3354.748     6287.704     1986.632        1.206        0.581      103.557       30.759        0.088      339.279       12.504      862.623
09/18/2013  09:52:00       41.618       81.159       93.211       88.918       54.518       53.668     7906.471     2972.164     2880.250        1.538        0.688       91.207       33.800        0.137      339.656       13.137      862.632
09/18/2013  09:53:00      120.599       97.550       62.550       60.728       40.436       43.638     3687.942     1635.043     1904.280        1.760        0.361      155.113       21.419        0.019      339.187       12.348      862.658
09/18/2013  09:54:00      109.522       74.230        8.941       53.451       46.475       41.597     2857.047     2159.967     1730.283        1.216        0.337      132.307       33.887        0.066      339.372       12.659      862.681
09/18/2013  09:55:00       28.435       36.751       40.454       40.393       43.000       34.354     1631.608     1849.018     1180.215        0.423        0.233       46.467       20.284        0.191      339.777       13.341      862.682
09/18/2013  09:56:00      113.947       61.777       26.902       87.635       70.653       51.808     7679.879     4991.906     2684.114        1.644        0.768      129.617       32.272        0.062      339.702       13.215      862.684
09/18/2013  09:57:00       42.131      100.714       98.606       59.867       73.777       59.090     3584.093     5443.114     3491.569        1.708        0.626      109.171       47.718        0.191      339.624       13.083      862.674
09/18/2013  09:58:00       35.485       46.451       39.356       60.708       62.743       57.339     3685.424     3936.731     3287.798        0.794        0.545       58.454       23.023        0.155      339.643       13.118      862.656
09/18/2013  09:59:00       68.561       37.225       18.231       76.027       59.054       38.262     5780.072     3487.363     1463.997        0.857        0.537       78.015       33.532        0.185      339.693       13.201      862.646
09/18/2013  10:00:00       -4.247       45.159       76.601       60.597       86.536       42.067     3671.974     7488.394     1769.594        1.042        0.646       45.358       42.446        0.876      339.952       13.639      862.622
09/18/2013  10:01:00       47.074      -96.392       29.268       84.106       57.400       61.241     7073.881     3294.756     3750.445        1.324        0.706      107.273       56.178        0.274      339.465       12.818      862.617
09/18/2013  10:02:00       79.022       43.907       31.496      106.897       98.731       42.984    11426.952     9747.715     1847.600        1.609        1.151       90.401       28.456        0.099      339.919       13.581      862.616
09/18/2013  10:03:00      138.511      124.929       10.683       96.809       70.915       49.873     9371.984     5028.986     2487.292        2.589        0.844      186.528       34.120        0.033      339.192       12.354      862.645
09/18/2013  10:04:00        3.199       -9.293        3.772       34.373       42.775       35.751     1181.522     1829.706     1278.105        0.220        0.214        9.828       19.861        4.084      339.730       13.266      862.664
09/18/2013  10:05:00        6.111      -28.982       22.721       36.408       43.262       45.776     1325.546     1871.630     2095.433        0.334        0.265       29.619       22.708        0.588      339.852       13.469      862.679
09/18/2013  10:06:00       25.871      -51.543       17.090       39.873       71.847       38.152     1589.894     5162.011     1455.573        0.591        0.410       57.671       32.811        0.324      339.742       13.283      862.698
09/18/2013  10:07:00      105.097       73.023       20.982      108.246       62.767       48.240    11717.152     3939.720     2327.072        1.740        0.899      127.975       41.233        0.104      339.617       13.072      862.717
09/18/2013  10:08:00      117.767       84.563      -10.030       57.878       56.906       41.001     3349.879     3238.326     1681.073        1.469        0.413      144.983       21.199        0.021      339.557       12.972      862.721
09/18/2013  10:09:00      196.919      114.637       55.651       95.040       67.661       48.767     9032.557     4578.072     2378.188        3.550        0.799      227.857       14.558        0.004      339.663       13.148      862.722
09/18/2013  10:10:00      135.698      101.774       52.566       75.378       56.089       50.355     5681.791     3146.015     2535.655        2.145        0.568      169.623       34.986        0.043      339.529       12.923      862.717
09/18/2013  10:11:00       84.842       98.784       68.845       64.507       54.807       53.685     4161.168     3003.833     2882.124        1.587        0.502      130.217       37.974        0.085      339.629       13.092      862.696
09/18/2013  10:12:00       13.791       43.290       65.421       52.574       62.533       36.964     2764.058     3910.360     1366.317        0.719        0.402       45.434       24.275        0.285      340.103       13.892      862.682
09/18/2013  10:13:00       10.203       38.966       65.204       41.978       48.520       31.088     1762.174     2354.216      966.448        0.548        0.254       40.279       30.084        0.558      340.258       14.154      862.687
09/18/2013  10:14:00       22.880       -3.959       41.221       43.718       56.438       41.073     1911.246     3185.232     1687.013        0.451        0.339       23.220       43.359        3.487      340.081       13.857      862.695
09/18/2013  10:15:00       44.547       62.765       90.995       54.973       60.816       39.033     3022.007     3698.544     1523.581        1.122        0.412       76.967       21.152        0.076      339.742       13.283      862.682
09/18/2013  10:16:00       83.298       91.265       60.762       36.029       48.273       38.967     1298.080     2330.243     1518.432        1.205        0.257      123.563       28.253        0.052      339.510       12.892      862.696
09/18/2013  10:17:00       72.651       52.137       49.967       69.764       59.830       30.252     4866.975     3579.662      915.164        0.993        0.468       89.423       27.172        0.092      339.780       13.348      862.684
09/18/2013  10:18:00       95.813       85.262       79.510       81.343       57.347       49.068     6616.756     3288.672     2407.706        1.754        0.616      128.256       44.167        0.119      339.700       13.211      862.671
09/18/2013  10:19:00      190.027      132.168       38.141       45.638       62.980       47.322     2082.807     3966.483     2239.372        3.166        0.414      231.470       24.995        0.012      339.487       12.850      862.652
09/18/2013  10:20:00      184.654      137.054       24.461       68.818       57.644       47.427     4735.882     3322.864     2249.336        3.189        0.515      229.958       42.167        0.034      339.597       13.038      862.632
09/18/2013  10:21:00      112.699      118.085       26.700       65.299       67.547       48.867     4263.975     4562.550     2388.025        1.928        0.561      163.233       37.006        0.051      339.827       13.425      862.646
09/18/2013  10:22:00       84.935       52.177       19.862       69.583       58.585       52.053     4841.806     3432.226     2709.498        1.065        0.549       99.681       29.335        0.087      339.954       13.641      862.651
09/18/2013  10:23:00      192.774       86.556       28.408       80.465       88.109       64.007     6474.581     7763.161     4096.960        3.189        0.917      211.314       32.892        0.024      339.771       13.331      862.667
09/18/2013  10:24:00       94.548       61.799       34.559       55.492       52.026       47.714     3079.356     2706.655     2276.579        1.101        0.403      112.953       33.858        0.090      339.749       13.296      862.670
09/18/2013  10:25:00      119.232       57.596       31.503       85.549       50.935       43.428     7318.666     2594.364     1885.994        1.516        0.590      132.414       39.799        0.090      340.036       13.780      862.636
09/18/2013  10:26:00       15.233       46.599       14.905       23.899       60.126       28.679      571.181     3615.114      822.511        0.382        0.250       49.025       34.216        0.487      340.133       13.944      862.600
09/18/2013  10:27:00       70.111       20.647       26.491       55.677       38.137       29.215     3099.938     1454.458      853.530        0.572        0.270       73.088       19.145        0.069      339.920       13.585      862.558
09/18/2013  10:28:00      179.790       94.582        6.603      102.071       66.325       50.692    10418.482     4399.005     2569.657        2.935        0.869      203.150       28.268        0.019      339.746       13.288      862.524
09/18/2013  10:29:00      144.285      -12.124       32.806       85.908      102.133       50.612     7380.211    10431.149     2561.525        2.120        1.019      144.793       45.446        0.099      339.936       13.609      862.513
09/18/2013  10:30:00       57.774      -46.828       35.457       53.474       83.809       43.932     2859.432     7023.907     1929.993        0.930        0.591       74.368       34.846        0.220      340.090       13.871      862.513
09/18/2013  10:31:00       58.858       20.818       41.171       96.874       89.269       55.383     9384.488     7968.892     3067.234        1.300        1.021       62.431       49.126        0.619      340.313       14.247      862.516
09/18/2013  10:32:00      169.009      103.590       51.304      116.480       87.923       61.378    13567.503     7730.460     3767.241        3.349        1.253      198.229       17.263        0.008      340.183       14.025      862.515
09/18/2013  10:33:00      161.612      132.872       46.359       63.867       44.956       52.981     4079.034     2021.000     2806.967        2.741        0.445      209.221       35.483        0.029      339.870       13.496      862.523
09/18/2013  10:34:00       57.286       47.421       53.805       60.994       87.913       48.678     3720.311     7728.695     2369.514        1.112        0.691       74.367       46.798        0.396      340.432       14.448      862.511
09/18/2013  10:35:00       27.271       62.491       63.789       54.875       65.813       38.580     3011.225     4331.383     1488.401        0.877        0.442       68.182       24.368        0.128      340.471       14.514      862.503
09/18/2013  10:36:00       31.857       65.952       12.568       49.263       63.896       29.435     2426.806     4082.696      866.404        0.645        0.369       73.243       35.880        0.240      340.343       14.298      862.482
09/18/2013  10:37:00       55.345       88.607        5.229       39.333       47.122       38.042     1547.107     2220.462     1447.180        0.808        0.261      104.471       27.982        0.072      340.032       13.773      862.471
09/18/2013  10:38:00       -2.348      113.256        3.232       36.684       60.379       28.174     1345.714     3645.642      793.780        0.931        0.289      113.281       28.048        0.061      340.054       13.810      862.464
09/18/2013  10:39:00       48.933       52.219       18.300       48.890       32.884       33.074     2390.221     1081.328     1093.896        0.501        0.228       71.563       28.731        0.161      340.360       14.327      862.457
09/18/2013  10:40:00       24.288       30.100       28.810       29.969       42.680       25.853      898.165     1821.611      668.384        0.286        0.169       38.677       19.785        0.262      340.570       14.682      862.448
09/18/2013  10:41:00       18.612       15.435       42.053       31.189       46.677       35.789      972.763     2178.708     1280.834        0.339        0.222       24.180       27.011        1.248      340.738       14.965      862.427
09/18/2013  10:42:00      -14.301       58.321       -6.300       21.716       51.048       22.313      471.598     2605.860      497.863        0.361        0.179       60.049       15.470        0.066      340.464       14.504      862.423
09/18/2013  10:43:00      -13.283        4.558        5.963       18.643       30.087       18.521      347.577      905.254      343.043        0.091        0.080       14.043       15.567        1.229      340.739       14.968      862.412
09/18/2013  10:44:00      -29.345        3.613       12.679       26.350       19.779       21.460      694.309      391.204      460.544        0.129        0.077       29.566       18.540        0.393      341.084       15.552      862.385
09/18/2013  10:45:00      -17.063       -4.831       13.257       41.323       33.540       24.431     1707.580     1124.932      596.889        0.196        0.171       17.733       16.967        0.915      340.720       14.935      862.371
09/18/2013  10:46:00       46.726      -21.966       45.607       75.114      119.338       57.805     5642.103    14241.524     3341.460        1.398        1.161       51.632       58.601        1.288      340.993       15.399      862.359
09/18/2013  10:47:00       43.664       52.096      101.260       68.095       78.820       59.229     4636.864     6212.534     3508.120        1.461        0.718       67.975       57.357        0.712      340.623       14.772      862.356
09/18/2013  10:48:00       37.284        6.691       74.004       70.987       98.760       56.214     5039.088     9753.498     3160.022        1.243        0.898       37.879       58.413        2.378      340.511       14.582      862.378
09/18/2013  10:49:00       87.054       82.312       44.604      102.220       61.691       48.180    10448.948     3805.752     2321.328        1.646        0.829      119.807       19.277        0.026      340.349       14.309      862.392
09/18/2013  10:50:00      128.300       76.969       42.072       53.090       47.168       41.324     2818.529     2224.864     1707.704        1.545        0.338      149.616       28.131        0.035      340.144       13.963      862.394
09/18/2013  10:51:00       69.270       48.502       68.773       74.047       57.097       49.935     5482.901     3260.084     2493.538        1.156        0.562       84.562       31.166        0.136      340.368       14.341      862.385
09/18/2013  10:52:00      170.993      122.588       74.734       99.300       77.369       71.959     9860.417     5985.983     5178.056        3.543        1.051      210.396       46.795        0.049      340.651       14.815      862.377
09/18/2013  10:53:00       94.858      116.582       99.526       93.613       65.879       56.246     8763.405     4340.057     3163.616        2.438        0.813      150.298       36.585        0.059      340.669       14.848      862.386
09/18/2013  10:54:00      150.715      131.476       62.076       78.845       55.068       80.040     6216.486     3032.458     6406.457        2.975        0.783      200.002       54.461        0.074      340.347       14.302      862.415
09/18/2013  10:55:00       24.742       24.513       28.808       82.760       74.320       33.380     6849.216     5523.456     1114.191        0.776        0.674       34.829       32.717        0.882      340.481       14.532      862.442
09/18/2013  10:56:00       51.337      -26.897       28.108       55.253       85.855       44.293     3052.847     7371.015     1961.848        0.826        0.619       57.956       40.581        0.490      340.336       14.287      862.463
09/18/2013  10:57:00       12.910     -100.138       -7.411       37.689       33.714       18.345     1420.459     1136.630      336.524        0.657        0.145      100.967        9.325        0.009      339.848       13.462      862.492
09/18/2013  10:58:00      -72.813      -57.212      -28.731       48.491       71.643       22.082     2351.373     5132.717      487.617        0.868        0.399       92.601       12.744        0.019      340.025       13.761      862.489
09/18/2013  10:59:00      -56.670      -15.560       -0.852       54.755       28.100       35.808     2998.063      789.582     1282.218        0.426        0.253       58.768       38.886        0.438      340.481       14.532      862.493
09/18/2013  11:00:00      -22.341      -10.334        8.518       28.981       34.624       21.954      839.916     1198.847      481.970        0.160        0.126       24.615       21.312        0.750      340.873       15.194      862.488
09/18/2013  11:01:00       15.774        4.376       48.075       30.592       74.030       39.091      935.874     5480.391     1528.125        0.526        0.397       16.369       35.644        4.742      341.007       15.421      862.509
09/18/2013  11:02:00       99.344       94.702       93.127      112.553       87.286       65.299    12668.237     7618.883     4264.009        2.603        1.228      137.250       57.061        0.173      340.837       15.131      862.518
09/18/2013  11:03:00      116.032       56.409       90.595       95.048      112.838       74.930     9034.082    12732.509     5614.468        2.611        1.369      129.017       70.236        0.296      340.476       14.520      862.535
09/18/2013  11:04:00      149.233      -67.215       25.235      113.105      126.142       83.197    12792.817    15911.872     6921.748        3.152        1.781      163.671       91.378        0.312      340.695       14.891      862.547
09/18/2013  11:05:00       44.032      -11.556       38.733       64.045       77.806       37.798     4101.816     6053.702     1428.653        0.758        0.579       45.523       37.852        0.691      340.514       14.587      862.570
09/18/2013  11:06:00       20.114      -87.069        9.521       59.303       32.835       23.819     3516.789     1078.146      567.354        0.662        0.258       89.362       17.850        0.040      340.252       14.144      862.564
09/18/2013  11:07:00       75.642       24.920       53.946       69.036       76.073       45.798     4765.946     5787.028     2097.418        1.095        0.633       79.641       48.528        0.371      340.799       15.067      862.567
09/18/2013  11:08:00       35.312       99.527      106.686       85.089       64.853       47.906     7240.215     4205.907     2294.996        1.814        0.687      105.606       38.526        0.133      340.878       15.202      862.559
09/18/2013  11:09:00       45.938       61.781       45.907       57.543       54.318       53.326     3311.253     2950.498     2843.616        0.857        0.455       76.988       34.295        0.198      340.705       14.910      862.552
09/18/2013  11:10:00      199.254      107.942       25.735       84.394       88.807       71.274     7122.360     7886.618     5079.958        3.605        1.004      226.613       30.616        0.018      340.722       14.935      862.513
09/18/2013  11:11:00      154.918      125.196      110.694      109.716      110.391       91.419    12037.689    12186.275     8357.462        4.225        1.629      199.182       83.358        0.175      340.790       15.050      862.506
09/18/2013  11:12:00       98.001      112.894      117.137      101.384       98.136       64.191    10278.703     9630.768     4120.440        3.005        1.201      149.497       60.958        0.166      340.328       14.270      862.487
09/18/2013  11:13:00       57.092       -6.361       34.076       58.436       79.068       67.096     3414.783     6251.715     4501.825        0.931        0.708       57.445       30.399        0.280      340.775       15.028      862.467
09/18/2013  11:14:00       85.943       49.211       22.261       70.981       74.956       48.936     5038.313     5618.450     2394.685        1.167        0.653       99.034       31.999        0.104      341.041       15.477      862.443
09/18/2013  11:15:00      129.776      -76.974        6.992      107.107       93.219       69.602    11471.983     8689.735     4844.432        2.391        1.250      150.887       61.870        0.168      340.825       15.113      862.436
09/18/2013  11:16:00       47.733      -12.230       34.919       43.803       73.385       48.545     1918.704     5385.315     2356.647        0.665        0.483       49.275       52.389        1.130      340.822       15.107      862.425
09/18/2013  11:17:00       57.058       34.765      102.586       63.546       97.915       72.572     4038.036     9587.331     5266.624        1.694        0.945       66.815       69.103        1.070      340.946       15.318      862.426
09/18/2013  11:18:00      143.715     -178.271      -10.606       93.881       81.475       52.446     8813.722     6638.240     2750.614        3.537        0.910      228.986       51.457        0.050      340.631       14.782      862.408
09/18/2013  11:19:00       66.450     -101.610       -7.754       48.211       47.899       35.695     2324.276     2294.346     1274.106        1.035        0.295      121.409       34.894        0.083      340.645       14.808      862.402
09/18/2013  11:20:00       72.715      -48.268       77.459       99.792       98.873       65.960     9958.344     9775.936     4350.778        1.885        1.204       87.276       48.874        0.314      341.170       15.697      862.363
09/18/2013  11:21:00       64.903      176.208      169.548       99.077       99.583       72.533     9816.245     9916.699     5261.008        4.450        1.250      187.781       57.824        0.095      340.806       15.078      862.347
09/18/2013  11:22:00      120.564      110.825       79.427       82.628       68.925       65.970     6827.381     4750.596     4352.021        2.453        0.796      163.762       49.035        0.090      340.636       14.792      862.362
09/18/2013  11:23:00       57.639       35.255       24.086       53.556       45.654       33.255     2868.284     2084.279     1105.901        0.560        0.303       67.566       12.518        0.034      340.843       15.143      862.348
09/18/2013  11:24:00      114.567      -20.935       48.028      100.995       64.576       60.757    10200.039     4170.079     3691.442        1.696        0.903      116.464       44.204        0.144      341.106       15.587      862.324
09/18/2013  11:25:00      169.135       94.970       13.557       68.444       57.275       50.074     4684.556     3280.387     2507.454        2.414        0.524      193.974       41.373        0.045      340.637       14.794      862.321
09/18/2013  11:26:00      127.765       30.387       70.094       96.525      138.189       71.417     9317.030    19096.126     5100.354        2.783        1.676      131.329       72.914        0.308      340.872       15.189      862.316
09/18/2013  11:27:00       32.842      -54.641        2.064       68.267       49.205       36.334     4660.395     2421.101     1320.178        0.623        0.420       63.752       31.160        0.239      340.450       14.479      862.332
09/18/2013  11:28:00       77.129       58.523       32.346       54.285       53.537       34.216     2946.815     2866.242     1170.733        0.870        0.349       96.818       32.412        0.112      341.036       15.470      862.335
09/18/2013  11:29:00      124.888      107.160       92.073      115.192       70.893       53.938    13269.259     5025.814     2909.280        2.838        1.060      164.561       30.412        0.034      340.959       15.338      862.355
09/18/2013  11:30:00      181.002      148.582       35.492      147.439       79.587       52.261    21738.239     6334.086     2731.242        4.344        1.540      234.175       47.089        0.040      340.570       14.680      862.354
09/18/2013  11:31:00      202.983      123.872       30.187       67.558       39.338       39.759     4564.143     1547.448     1580.766        3.257        0.385      237.795       22.610        0.009      340.528       14.609      862.360
09/18/2013  11:32:00       61.738       55.054        3.862       46.459       40.763       36.720     2158.404     1661.633     1348.343        0.601        0.258       82.719       31.751        0.147      340.834       15.128      862.330
09/18/2013  11:33:00      109.523      -61.486       15.239       76.262       88.761       43.918     5815.880     7878.601     1928.759        1.581        0.781      125.602       37.474        0.089      340.659       14.831      862.328
09/18/2013  11:34:00       41.263      -30.372       30.062       64.601       58.503       43.279     4173.227     3422.605     1873.081        0.650        0.473       51.236       40.312        0.619      341.208       15.762      862.307
09/18/2013  11:35:00       77.216       21.835       32.834       94.168       69.902       41.524     8867.680     4886.266     1724.211        1.149        0.774       80.243       23.856        0.088      341.450       16.171      862.293
09/18/2013  11:36:00      161.588       94.073       52.024      100.601       78.392       70.823    10120.472     6145.286     5015.884        2.947        1.064      186.977       21.469        0.013      341.302       15.916      862.294
09/18/2013  11:37:00       87.757       54.677       73.448       96.863      113.067       68.377     9382.444    12784.225     4675.346        2.146        1.342      103.397       61.360        0.352      341.172       15.699      862.301
09/18/2013  11:38:00      -16.548      -89.241      -15.142       23.700       24.691       20.461      561.686      609.644      418.665        0.503        0.079       90.763       16.142        0.032      340.484       14.537      862.282
09/18/2013  11:39:00       52.871       -9.475       27.297       56.253       86.188       40.575     3164.445     7428.302     1646.302        0.793        0.612       53.713       48.780        0.825      340.773       15.025      862.261
09/18/2013  11:40:00       59.430       43.357       41.125       66.725       50.218       43.725     4452.240     2521.827     1911.855        0.799        0.444       73.565       24.666        0.112      341.033       15.466      862.244
09/18/2013  11:41:00       41.502      -53.823       18.038       64.532       95.289       46.227     4164.432     9079.964     2136.897        1.016        0.769       67.965       57.977        0.728      341.519       16.288      862.219
09/18/2013  11:42:00       93.873       75.102       54.349       93.643       79.143       56.846     8769.030     6263.605     3231.425        1.783        0.913      120.218       46.333        0.149      341.559       16.353      862.212
09/18/2013  11:43:00       90.726       39.304       30.762       68.155       94.247       56.584     4645.155     8882.461     3201.766        1.372        0.836       98.874       29.489        0.089      341.338       15.981      862.184
09/18/2013  11:44:00       54.027       53.402        9.824       45.928       39.513       33.161     2109.426     1561.314     1099.621        0.532        0.239       75.965       20.975        0.076      340.870       15.190      862.164
09/18/2013  11:45:00       74.880       70.482        8.231       42.532       36.679       41.860     1808.938     1345.348     1752.250        0.777        0.245      102.834       27.894        0.074      340.860       15.172      862.131
09/18/2013  11:46:00       40.132       59.822       11.475       70.446       47.024       38.217     4962.656     2211.289     1460.567        0.698        0.432       72.036       29.052        0.163      341.380       16.053      862.098
09/18/2013  11:47:00      -19.302       32.851       -1.902       55.929       35.530       26.104     3128.078     1262.396      681.428        0.326        0.254       38.102       27.903        0.536      341.594       16.416      862.066
09/18/2013  11:48:00      -76.932      -23.991       -2.481       46.981       36.569       25.733     2207.222     1337.297      662.184        0.535        0.210       80.586       27.951        0.120      341.533       16.312      862.056
09/18/2013  11:49:00       30.816      -93.338      -10.359       66.960       78.674       39.565     4483.647     6189.544     1565.390        1.100        0.612       98.293       32.539        0.110      341.357       16.012      862.039
09/18/2013  11:50:00      158.959     -206.148      -46.338      156.811      138.820       69.175    24589.642    19270.990     4785.192        5.927        2.432      260.317       92.974        0.128      341.332       15.969      861.993
09/18/2013  11:51:00      134.133     -266.281      -21.158       75.321      100.282       62.492     5673.203    10056.478     3905.246        5.449        0.982      298.156       59.531        0.040      340.882       15.207      861.995
09/18/2013  11:52:00       51.652     -136.603        3.545       55.523       62.711       45.703     3082.795     3932.630     2088.782        1.522        0.455      146.042       40.664        0.078      341.007       15.420      862.001
09/18/2013  11:53:00       86.498     -165.977      -23.079       81.818       60.336       43.193     6694.175     3640.424     1865.664        2.388        0.610      187.163       37.422        0.040      341.391       16.070      861.967
09/18/2013  11:54:00       36.862      -50.194        6.575       40.074       62.018       37.852     1605.897     3846.263     1432.758        0.540        0.344       62.276       38.878        0.390      341.580       16.392      861.939
09/18/2013  11:55:00       66.072      -88.554       21.771      111.201       85.245       54.677    12365.698     7266.777     2989.591        1.765        1.131      110.487       42.411        0.147      341.599       16.423      861.922
09/18/2013  11:56:00       29.957       39.573       78.556       69.801       65.214       46.919     4872.171     4252.815     2201.379        0.998        0.566       49.633       47.903        0.932      342.182       17.411      861.905
09/18/2013  11:57:00       76.510     -100.812       29.238       95.535      125.591       66.368     9126.914    15773.187     4404.707        2.308        1.465      126.557       82.068        0.421      341.711       16.614      861.904
09/18/2013  11:58:00       44.414     -111.264        5.450       56.339       71.267       48.071     3174.035     5078.951     2310.841        1.247        0.528      119.800       47.980        0.160      341.480       16.222      861.907
09/18/2013  11:59:00      155.939     -195.440      -52.030       52.772       71.390       38.137     2784.831     5096.564     1454.402        3.728        0.467      250.028       21.631        0.007      341.075       15.530      861.894
09/18/2013  12:00:00       71.334     -152.918       -9.703       65.755       54.345       31.381     4323.718     2953.421      984.769        1.841        0.413      168.738       26.473        0.025      341.100       15.577      861.905
09/18/2013  12:01:00       59.581       42.663       59.214       64.359       84.853       64.885     4142.043     7200.054     4210.046        1.221        0.778       73.280       63.177        0.743      341.509       16.271      861.895
09/18/2013  12:02:00      170.869      129.573       72.961       65.821       53.052       44.861     4332.385     2814.543     2012.550        3.023        0.458      214.442       30.508        0.020      341.360       16.016      861.877
09/18/2013  12:03:00       91.573       65.020       66.660       87.095       80.715       68.674     7585.550     6514.865     4716.100        1.793        0.941      112.309       50.568        0.203      341.683       16.566      861.864
09/18/2013  12:04:00      160.327       96.774       31.845       75.096       49.292       59.738     5639.451     2429.696     3568.604        2.386        0.582      187.269       44.901        0.057      341.317       15.945      861.857
09/18/2013  12:05:00       80.071       84.007       38.030       65.254       49.754       39.859     4258.120     2475.480     1588.761        1.162        0.416      116.054       14.655        0.016      341.953       17.023      861.826
09/18/2013  12:06:00       48.230       46.033       65.262       73.264       45.836       52.641     5367.594     2100.957     2771.033        0.947        0.512       66.672       32.232        0.234      342.099       17.273      861.809
09/18/2013  12:07:00       73.683      113.317       88.638       92.908       79.151       68.961     8631.958     6264.816     4755.589        2.289        0.983      135.166       55.354        0.168      341.634       16.481      861.803
09/18/2013  12:08:00      103.901       93.990       40.700       93.226       58.636       56.488     8691.057     3438.236     3190.853        1.830        0.766      140.105       36.687        0.069      341.350       16.001      861.823
09/18/2013  12:09:00       63.292       66.965       -7.375       32.151       31.737       38.345     1033.700     1007.260     1470.313        0.603        0.176       92.142       23.315        0.064      340.945       15.317      861.814
09/18/2013  12:10:00       14.401       27.511       26.536       29.282       50.778       27.478      857.432     2578.390      755.052        0.293        0.210       31.052       26.052        0.704      341.874       16.891      861.807
09/18/2013  12:11:00       79.206       63.835        7.121       39.287       26.199       34.620     1543.434      686.386     1198.568        0.691        0.171      101.727       20.896        0.042      341.367       16.031      861.791
09/18/2013  12:12:00       -9.272        8.157        1.675       27.128       38.894       29.421      735.939     1512.733      865.568        0.163        0.156       12.349       21.633        3.069      341.684       16.568      861.784
09/18/2013  12:13:00       33.339      -48.346       20.327       76.744       72.127       53.711     5889.654     5202.281     2884.843        0.892        0.699       58.726       19.827        0.114      341.810       16.782      861.772
09/18/2013  12:14:00       38.023      -26.888       41.851       77.597      100.580       59.755     6021.309    10116.238     3570.616        1.181        0.985       46.570       56.235        1.458      342.096       17.267      861.762
09/18/2013  12:15:00      185.265      160.636       86.940      131.044       98.392      101.485    17172.520     9680.991    10299.215        5.241        1.858      245.208       81.793        0.111      341.537       16.316      861.741
09/18/2013  12:16:00      113.325       96.813       78.786       93.493       63.219       51.268     8740.900     3996.650     2628.432        2.189        0.768      149.048       44.178        0.088      341.776       16.723      861.762
09/18/2013  12:17:00      100.175       36.944       17.999       93.405       98.507       59.188     8724.531     9703.600     3503.247        1.682        1.097      106.770       43.554        0.166      341.724       16.634      861.768
09/18/2013  12:18:00       56.521       71.448       85.467       71.333       65.431       61.970     5088.437     4281.201     3840.341        1.440        0.660       91.101       49.629        0.297      341.902       16.936      861.777
09/18/2013  12:19:00       -0.388       69.690       85.533       43.141       40.749       28.999     1861.121     1660.454      840.918        0.827        0.218       69.691       25.908        0.138      341.633       16.481      861.783
09/18/2013  12:20:00       27.552      -75.251       -1.208       52.921       55.852       35.308     2800.668     3119.487     1246.678        0.679        0.358       80.136       31.262        0.152      341.551       16.342      861.797
09/18/2013  12:21:00       38.527       25.941       23.174       39.759       35.027       35.450     1580.770     1226.898     1256.729        0.338        0.203       46.446       22.377        0.232      341.922       16.971      861.803
09/18/2013  12:22:00       77.776       58.308       -6.611       30.756       40.339       35.716      945.911     1627.195     1275.610        0.667        0.192       97.205       31.426        0.105      341.513       16.279      861.808
09/18/2013  12:23:00      100.974      110.715       84.358       82.301       71.667       53.035     6773.528     5136.151     2812.688        2.214        0.736      149.845       39.202        0.068      341.874       16.888      861.803
09/18/2013  12:24:00      111.034      106.599      110.573      106.823       95.787       76.800    11411.250     9175.126     5898.211        3.120        1.324      153.922       50.271        0.107      341.898       16.928      861.782
09/18/2013  12:25:00      180.303      125.908       61.642      105.418       71.056       82.767    11112.870     5048.918     6850.361        3.758        1.151      219.914       67.689        0.095      341.589       16.403      861.785
09/18/2013  12:26:00      153.980      119.948       84.150       93.758       70.843       76.068     8790.637     5018.706     5786.414        3.238        0.980      195.186       54.887        0.079      341.769       16.708      861.754
09/18/2013  12:27:00      213.388      132.699       48.876       81.635       74.961       62.661     6664.210     5619.096     3926.420        4.087        0.810      251.284       42.048        0.028      341.483       16.223      861.736
09/18/2013  12:28:00      131.118      103.743       92.958       85.900       61.982       47.450     7378.802     3841.808     2251.471        2.503        0.674      167.196       33.720        0.041      341.867       16.876      861.741
09/18/2013  12:29:00       58.652      -42.304       41.280       63.745      106.957       41.299     4063.404    11439.870     1705.624        1.207        0.860       72.317       37.672        0.271      341.938       16.997      861.730
09/18/2013  12:30:00      100.045      -58.085       53.290       71.725       77.521       58.452     5144.468     6009.507     3416.620        1.539        0.729      115.684       50.331        0.189      341.810       16.781      861.725
09/18/2013  12:31:00      130.014       39.889       50.820       84.950       54.701       50.742     7216.579     2992.180     2574.704        1.693        0.639      135.996       28.233        0.043      341.707       16.605      861.717
09/18/2013  12:32:00      140.675      100.870       53.481       63.696       49.552       67.115     4057.200     2455.368     4504.376        2.192        0.551      173.102       22.971        0.018      341.961       17.035      861.711
09/18/2013  12:33:00      104.482       50.848       54.868       76.724       90.149       54.766     5886.570     8126.850     2999.366        1.676        0.851      116.198       39.364        0.115      341.793       16.750      861.717
09/18/2013  12:34:00       99.970      -19.446       66.004       86.823      144.764       76.142     7538.272    20956.581     5797.662        2.450        1.715      101.843       94.954        0.869      341.726       16.637      861.705
09/18/2013  12:35:00       46.286       69.703       89.932       82.692       68.238       65.969     6837.989     4656.373     4351.895        1.546        0.792       83.671       53.401        0.407      341.736       16.653      861.709
09/18/2013  12:36:00       77.594      -31.536       32.856       68.421      121.356       61.234     4681.475    14727.163     3749.641        1.562        1.158       83.758       65.947        0.620      341.952       17.021      861.704
09/18/2013  12:37:00       87.975      -73.477       29.439       82.913      142.283       63.455     6874.511    20244.568     4026.593        2.257        1.557      114.624       64.558        0.317      341.889       16.912      861.698
09/18/2013  12:38:00       90.405      -68.500       19.561       83.208       81.494       57.141     6923.638     6641.263     3265.056        1.504        0.841      113.426       57.498        0.257      342.119       17.306      861.704
09/18/2013  12:39:00      145.278      -85.900       43.583      105.556      125.021       73.348    11141.991    15630.173     5379.991        3.126        1.608      168.774       90.914        0.290      342.061       17.205      861.678
09/18/2013  12:40:00       24.068       19.093       24.838       71.486       58.225       46.661     5110.186     3390.154     2177.294        0.612        0.534       30.721       19.556        0.405      342.396       17.777      861.670
09/18/2013  12:41:00      186.587       93.711       27.341      101.994       82.257       57.349    10402.692     6766.170     3288.903        3.240        1.023      208.798       33.122        0.025      342.296       17.605      861.670
09/18/2013  12:42:00       76.741       58.343       55.374       64.902       65.874       54.509     4212.297     4339.411     2971.268        1.194        0.576       96.401       46.430        0.232      342.310       17.629      861.669
09/18/2013  12:43:00       87.019       70.951      101.948       77.726       63.884       52.817     6041.299     4081.200     2789.671        1.795        0.646      112.278       46.838        0.174      341.917       16.963      861.658
09/18/2013  12:44:00       32.210      -15.439       40.980       35.382       84.118       39.403     1251.910     7075.864     1552.563        0.642        0.494       35.719       17.056        0.228      342.074       17.229      861.648
09/18/2013  12:45:00       43.139       30.096       22.870       48.916       72.927       38.753     2392.762     5318.414     1501.811        0.625        0.461       52.599       30.263        0.331      341.857       16.860      861.647
09/18/2013  12:46:00       85.212       57.864        9.960       53.440       49.860       41.970     2855.784     2486.033     1761.481        0.890        0.355      103.001       15.641        0.023      341.946       17.011      861.631
09/18/2013  12:47:00       -7.558       65.068       89.561       44.907       61.147       41.912     2016.635     3738.961     1756.626        0.991        0.376       65.506       39.198        0.358      342.374       17.739      861.617
09/18/2013  12:48:00        3.528       16.009        4.586       35.088       61.947       42.987     1231.158     3837.419     1847.890        0.360        0.346       16.393       19.571        1.425      342.281       17.582      861.606
09/18/2013  12:49:00       35.341      -36.178       32.756       42.248       65.283       47.708     1784.898     4261.901     2276.099        0.598        0.416       50.575       42.720        0.713      342.254       17.535      861.593
09/18/2013  12:50:00      162.692     -247.474      -29.272       73.505       88.653       40.779     5402.950     7859.418     1662.954        5.174        0.746      296.162       36.398        0.015      341.636       16.483      861.584
09/18/2013  12:51:00      158.244     -203.071      -20.010       79.357       99.017       64.863     6297.520     9804.418     4207.268        4.349        1.015      257.447       60.444        0.055      341.761       16.694      861.560
09/18/2013  12:52:00       93.071     -123.484       -5.514       55.230       45.814       32.291     3050.406     2098.949     1042.695        1.507        0.310      154.630       25.738        0.028      341.773       16.718      861.535
09/18/2013  12:53:00       71.179      -43.397       65.442       58.621      107.763       59.375     3436.381    11612.827     3525.407        1.490        0.929       83.366       61.780        0.549      342.336       17.674      861.507
09/18/2013  12:54:00       11.668      -69.219       52.469       53.961       76.868       49.878     2911.830     5908.684     2487.817        0.949        0.565       70.195       34.202        0.237      342.471       17.905      861.476
09/18/2013  12:55:00       -1.854       -9.778       61.698       35.291       93.652       49.474     1245.474     8770.680     2447.687        0.818        0.623        9.952       53.395       28.787      342.530       18.004      861.455
09/18/2013  12:56:00       38.116       81.296       81.869       47.995       46.442       45.726     2303.489     2156.879     2090.851        1.066        0.328       89.788       37.116        0.171      342.122       17.311      861.424
09/18/2013  12:57:00       57.480      -89.898       -0.173       53.312       62.074       32.763     2842.163     3853.169     1073.432        0.958        0.388      106.704       30.326        0.081      342.249       17.525      861.391
09/18/2013  12:58:00       -2.556      -52.011        1.540       79.914       60.611       34.349     6386.246     3673.635     1179.857        0.697        0.562       52.074       22.672        0.190      342.341       17.683      861.371
09/18/2013  12:59:00       12.300       -0.959       43.881       42.668       46.456       36.860     1820.551     2158.186     1358.676        0.371        0.267       12.337       34.662        7.893      342.832       18.518      861.342
09/18/2013  13:00:00       26.093      -17.688       21.470       30.335       64.939       29.536      920.229     4217.097      872.395        0.373        0.300       31.523       40.208        1.627      342.495       17.945      861.306
09/18/2013  13:01:00      -48.403      -19.618        0.894       43.016       42.726       25.224     1850.351     1825.480      636.257        0.352        0.216       52.228       16.907        0.105      342.467       17.896      861.276
09/18/2013  13:02:00      -23.822      -31.210       14.905       50.489       45.323       36.397     2549.097     2054.219     1324.752        0.384        0.296       39.263       32.468        0.684      342.824       18.504      861.254
09/18/2013  13:03:00      -50.430      -54.907       -2.398       53.381       64.312       34.965     2849.509     4136.031     1222.545        0.688        0.410       74.552       31.355        0.177      342.373       17.736      861.230
09/18/2013  13:04:00       42.118       34.458       70.952       65.270      111.237       70.636     4260.131    12373.722     4989.441        1.481        1.081       54.418       70.338        1.671      342.506       17.964      861.212
09/18/2013  13:05:00       39.823      -80.121        7.878       45.518       75.643       41.851     2071.886     5721.854     1751.545        0.880        0.477       89.472       37.796        0.178      342.209       17.458      861.211
09/18/2013  13:06:00       44.737      -23.488       19.667       56.842       98.001       40.257     3231.054     9604.162     1620.629        0.869        0.723       50.528       43.202        0.731      342.506       17.964      861.214
09/18/2013  13:07:00       50.994      -43.755        5.211       64.466      155.504       49.696     4155.906    24181.464     2469.718        1.767        1.540       67.193       55.765        0.689      342.530       18.005      861.224
09/18/2013  13:08:00      120.777     -158.322      -14.490       75.710      148.718       65.376     5732.033    22117.021     4274.036        3.599        1.606      199.130       80.527        0.164      342.273       17.566      861.223
09/18/2013  13:09:00       94.153       75.561       71.996       82.614       83.039       66.990     6825.096     6895.442     4487.608        1.898        0.910      120.724       57.200        0.224      342.255       17.537      861.237
09/18/2013  13:10:00       55.041      -14.593       34.290       72.000       98.333       52.693     5184.039     9669.351     2776.514        1.102        0.881       56.943       39.834        0.489      342.607       18.135      861.225
09/18/2013  13:11:00       60.503       17.873       72.860       63.039      107.046       69.835     3973.854    11458.814     4876.992        1.479        1.015       63.088       70.952        1.265      342.656       18.217      861.216
09/18/2013  13:12:00       79.849      -43.310       44.927       80.361       79.007       52.934     6457.856     6242.133     2801.964        1.288        0.775       90.839       48.700        0.287      342.230       17.494      861.226
09/18/2013  13:13:00       41.582     -139.404       -0.596       63.386       72.279       45.991     4017.804     5224.248     2115.217        1.626        0.568      145.473       43.012        0.087      342.295       17.604      861.213
09/18/2013  13:14:00       71.193     -119.835       14.154       49.330       63.241       40.325     2433.469     3999.449     1626.103        1.384        0.403      139.388       20.045        0.021      342.359       17.713      861.179
09/18/2013  13:15:00       82.199     -103.751        0.400       82.282       87.008       48.659     6770.388     7570.420     2367.742        1.711        0.835      132.366       58.072        0.192      342.442       17.854      861.169
09/18/2013  13:16:00      113.624     -213.840      -16.509       62.930       39.109       27.338     3960.151     1529.525      747.350        3.257        0.312      242.153       24.136        0.010      341.978       17.063      861.161
09/18/2013  13:17:00       43.092      -95.838       21.642       62.445       78.243       40.711     3899.360     6121.921     1657.423        1.159        0.584      105.080       47.358        0.203      342.432       17.837      861.143
09/18/2013  13:18:00       42.757      -72.223        8.324       39.158       38.122       33.280     1533.326     1453.265     1107.581        0.560        0.205       83.931       24.421        0.085      342.447       17.863      861.127
09/18/2013  13:19:00       93.112       32.642       42.006       76.627       82.197       53.887     5871.742     6756.273     2903.787        1.351        0.777       98.668       38.107        0.149      342.740       18.359      861.103
09/18/2013  13:20:00       57.455        3.514       11.733       64.034       86.312       45.073     4100.363     7449.776     2031.582        0.851        0.679       57.562       34.548        0.360      342.949       18.718      861.071
09/18/2013  13:21:00       -2.197       14.040       33.177       22.161       36.894       27.320      491.123     1361.178      746.391        0.195        0.130       14.211       20.133        2.007      343.389       19.466      861.037
09/18/2013  13:22:00      137.521       54.532       15.220       82.961       64.772       44.389     6882.508     4195.382     1970.347        1.758        0.652      147.939       34.582        0.055      342.725       18.336      861.019
09/18/2013  13:23:00      132.298       90.764       -1.492       62.211       48.358       49.044     3870.187     2338.535     2405.338        1.718        0.431      160.439       13.217        0.007      342.357       17.709      860.984
09/18/2013  13:24:00       24.835      -13.561        7.439       41.677       55.332       31.643     1736.932     3061.665     1001.257        0.333        0.290       28.296       24.679        0.761      342.952       18.723      860.955
09/18/2013  13:25:00        2.299       16.108       37.980       57.745       76.810       56.672     3334.534     5899.818     3211.746        0.707        0.622       16.271       28.288        3.023      343.069       18.922      860.937
09/18/2013  13:26:00       87.169       45.746       40.738       39.107       42.384       39.527     1529.345     1796.405     1562.388        0.812        0.244       98.443       21.015        0.046      342.702       18.295      860.927
09/18/2013  13:27:00       64.839       56.141       10.325       68.886       67.089       50.441     4745.295     4500.868     2544.253        0.962        0.590       85.766       40.616        0.224      342.793       18.451      860.909
09/18/2013  13:28:00       96.265       75.467        3.629       89.079       54.102       44.533     7935.028     2926.982     1983.170        1.391        0.642      122.321       23.538        0.037      342.694       18.281      860.890
09/18/2013  13:29:00       63.723      101.649       12.659       67.689       66.681       48.004     4581.824     4446.381     2304.374        1.294        0.567      119.971       40.707        0.115      342.539       18.018      860.880
09/18/2013  13:30:00       73.145       77.464       15.732       46.018       53.491       43.805     2117.629     2861.287     1918.849        0.925        0.345      106.540       34.732        0.106      342.833       18.519      860.872
09/18/2013  13:31:00       44.840       52.477       37.068       52.437       62.107       38.333     2749.627     3857.252     1469.436        0.711        0.404       69.025       31.069        0.203      342.791       18.449      860.858
09/18/2013  13:32:00      200.290       79.200       44.880      109.316       80.684       75.671    11950.040     6509.878     5726.067        3.629        1.209      215.381       59.860        0.077      342.542       18.022      860.846
09/18/2013  13:33:00      153.526      120.348       39.107       79.518       71.134       52.725     6323.176     5060.019     2779.878        2.687        0.708      195.073       29.080        0.022      342.773       18.415      860.848
09/18/2013  13:34:00      218.456      127.846       27.119       73.420       47.290       62.286     5390.551     2236.318     3879.512        3.815        0.575      253.116       34.734        0.019      342.515       17.974      860.852
09/18/2013  13:35:00      149.650       84.533        7.095       88.641       55.844       41.803     7857.170     3118.604     1747.455        2.115        0.636      171.875       30.997        0.033      342.535       18.010      860.847
09/18/2013  13:36:00      112.477       45.567       -1.071       40.712       40.143       33.000     1657.483     1611.455     1089.001        0.954        0.218      121.356       22.734        0.035      342.363       17.720      860.850
09/18/2013  13:37:00      169.015      128.457       38.059       57.188       53.280       50.075     3270.474     2838.798     2507.472        2.756        0.431      212.291       29.322        0.019      342.427       17.826      860.860
09/18/2013  13:38:00      167.126      147.556       92.890      120.432       85.400       78.319    14503.784     7293.139     6133.844        4.313        1.397      222.944       69.194        0.096      342.709       18.304      860.850
09/18/2013  13:39:00      109.282       50.450       44.054       94.245       75.456       52.028     8882.139     5693.575     2706.919        1.685        0.864      120.365       46.316        0.148      342.715       18.317      860.855
09/18/2013  13:40:00       30.634      -43.193       27.131       61.331       69.431       47.268     3761.475     4820.598     2234.294        0.718        0.541       52.954       43.859        0.686      342.974       18.761      860.840
09/18/2013  13:41:00       53.851      -44.787       17.016       57.219       51.740       33.964     3274.030     2677.062     1153.580        0.615        0.355       70.041       29.956        0.183      342.717       18.322      860.829
09/18/2013  13:42:00       42.774      -69.209       -0.127       39.151       52.667       27.174     1532.770     2773.837      738.414        0.583        0.252       81.361       20.382        0.063      342.783       18.434      860.788
09/18/2013  13:43:00       44.446        7.275       41.797       76.999       58.709       40.758     5928.921     3446.785     1661.210        0.740        0.552       45.037       48.308        1.151      343.283       19.286      860.773
09/18/2013  13:44:00       85.979      -67.176       16.529       96.477      110.968       60.609     9307.809    12313.843     3673.440        1.873        1.265      109.111       78.702        0.520      343.091       18.959      860.747
09/18/2013  13:45:00      174.996     -156.193       35.340      117.428      158.388       92.338    13789.232    25086.759     8526.238        5.183        2.370      234.563       98.422        0.176      342.921       18.667      860.699
09/18/2013  13:46:00       93.269       -5.861       54.286       76.759       91.638       68.769     5891.975     8397.451     4729.194        1.535        0.951       93.453       65.043        0.484      342.735       18.351      860.730
09/18/2013  13:47:00      116.786       67.934       82.577      125.665      128.717       77.964    15791.656    16568.014     6078.424        3.175        1.922      135.108       75.647        0.313      342.918       18.663      860.713
09/18/2013  13:48:00      139.449      151.274      130.209      109.717       88.913       70.207    12037.758     7905.507     4929.080        4.207        1.244      205.742       41.959        0.042      342.814       18.483      860.704
09/18/2013  13:49:00      107.232       11.851       83.174       81.445      108.505       59.388     6633.365    11773.365     3526.952        2.024        1.097      107.885       71.179        0.435      342.719       18.324      860.735
09/18/2013  13:50:00       50.529       34.692       11.953       82.919       74.399       59.861     6875.499     5535.150     3583.362        0.994        0.800       61.292       32.049        0.273      342.572       18.076      860.687
09/18/2013  13:51:00       71.294      -95.381       17.436       86.305       93.571       52.269     7448.639     8755.480     2732.053        1.671        0.947      119.081       43.987        0.136      342.999       18.800      860.686
09/18/2013  13:52:00      144.000     -238.626      -40.584       83.583       95.284       51.589     6986.101     9079.087     2661.390        4.902        0.936      278.709       35.398        0.016      343.074       18.926      860.658
09/18/2013  13:53:00      170.705     -236.444      -20.160       80.684      111.326       65.089     6509.973    12393.585     4236.604        5.429        1.157      291.626       61.220        0.044      343.101       18.972      860.640
09/18/2013  13:54:00       98.471     -195.601      -12.735       64.996       51.946       43.006     4224.454     2698.341     1849.510        2.844        0.439      218.990       30.484        0.019      342.663       18.227      860.660
09/18/2013  13:55:00       96.363     -149.422       10.275       74.986      100.630       68.477     5622.837    10126.334     4689.145        2.607        1.022      177.800       66.353        0.139      342.795       18.453      860.636
09/18/2013  13:56:00      102.726      -15.602       61.337       78.683      130.436       67.420     6190.958    17013.443     4545.423        2.115        1.387      103.904       85.047        0.670      343.052       18.889      860.605
09/18/2013  13:57:00       85.096       51.480       73.322       61.419       69.038       57.853     3772.340     4766.244     3346.992        1.357        0.594       99.456       37.903        0.145      342.999       18.801      860.579
09/18/2013  13:58:00      100.498     -145.645      -36.645       66.916       67.118       48.480     4477.707     4504.889     2350.268        2.199        0.567      176.953       45.605        0.066      342.957       18.729      860.578
09/18/2013  13:59:00       87.566     -129.001       -8.408       60.622       77.052       50.207     3674.968     5937.085     2520.762        1.825        0.607      155.914       45.988        0.087      342.817       18.492      860.575
09/18/2013  14:00:00       23.004      -28.813       19.331       37.910       51.905       30.478     1437.160     2694.084      928.883        0.340        0.253       36.869       29.766        0.652      342.978       18.767      860.557
09/18/2013  14:01:00       33.184       -6.871       13.596       41.432       47.300       24.096     1716.599     2237.316      580.603        0.293        0.227       33.888       14.624        0.186      342.673       18.247      860.522
09/18/2013  14:02:00       37.151      -39.923       22.155       32.262       51.584       35.528     1040.812     2660.920     1262.242        0.421        0.248       54.535       34.633        0.403      343.335       19.375      860.499
09/18/2013  14:03:00       24.406      -91.231       14.321       73.158       55.176       45.344     5352.138     3044.425     2056.073        0.979        0.523       94.439       41.903        0.197      343.316       19.342      860.485
09/18/2013  14:04:00       80.292      -32.017       26.818       61.971       61.464       43.968     3840.365     3777.812     1933.170        0.887        0.478       86.440       44.109        0.260      342.990       18.787      860.479
09/18/2013  14:05:00       94.508       35.932       25.286       57.538       64.047       32.097     3310.614     4101.983     1030.230        0.965        0.422      101.108       28.298        0.078      342.883       18.605      860.452
09/18/2013  14:06:00       33.545       43.039        9.170       33.484       25.178       22.936     1121.196      633.950      526.075        0.267        0.114       54.568       18.447        0.114      342.928       18.682      860.426
09/18/2013  14:07:00       67.529     -103.770      -26.723       76.601      115.080       30.803     5867.780    13243.420      948.851        1.805        1.003      123.808       48.556        0.154      342.930       18.681      860.407
09/18/2013  14:08:00      148.092     -228.572      -29.304       94.611       72.730       42.789     8951.317     5289.636     1830.903        4.555        0.804      272.353       45.883        0.028      342.741       18.359      860.380
09/18/2013  14:09:00       50.013     -156.368      -29.043       64.338       96.861       54.509     4139.359     9382.032     2971.178        2.214        0.825      164.171       61.760        0.142      342.927       18.679      860.363
09/18/2013  14:10:00       15.367       37.918      -12.508       37.769       24.540       38.871     1426.466      602.201     1510.953        0.268        0.177       40.913       23.084        0.318      342.903       18.640      860.361
09/18/2013  14:11:00      -12.194       25.645       -1.828       29.095       39.560       19.739      846.522     1564.994      389.616        0.180        0.140       28.396       17.851        0.395      343.057       18.901      860.341
09/18/2013  14:12:00       45.967       18.726       20.278       28.974       25.152       35.622      839.501      632.598     1268.925        0.281        0.137       49.635       17.301        0.122      343.054       18.896      860.321
09/18/2013  14:13:00       45.744       50.634        7.317       36.838       38.864       35.152     1357.055     1510.406     1235.645        0.441        0.205       68.237       27.257        0.160      343.077       18.937      860.318
09/18/2013  14:14:00       71.235     -111.697       -8.855       59.371       80.991       37.895     3524.938     6559.503     1436.002        1.457        0.576      132.479       29.338        0.049      343.051       18.889      860.317
09/18/2013  14:15:00       21.508     -110.494      -13.975       53.078       47.575       35.680     2817.292     2263.423     1273.058        0.961        0.318      112.568       27.203        0.058      343.345       19.391      860.294
09/18/2013  14:16:00       17.399      -56.750        3.972       30.658       42.653       24.301      939.938     1819.272      590.552        0.344        0.167       59.357       20.564        0.120      342.980       18.769      860.279
09/18/2013  14:17:00       47.406       56.905       50.387       47.253       40.262       41.970     2232.880     1621.016     1761.472        0.682        0.281       74.064       14.267        0.037      343.398       19.481      860.272
09/18/2013  14:18:00       56.234      -67.253        6.618       85.510      144.556       55.547     7311.981    20896.315     3085.438        1.951        1.565       87.665       79.314        0.819      343.387       19.462      860.258
09/18/2013  14:19:00      121.715     -139.300       38.329      116.122      168.698       77.634    13484.393    28458.923     6026.977        4.182        2.399      184.984       99.666        0.290      343.753       20.086      860.245
09/18/2013  14:20:00      130.088      -55.674       61.959      105.845      120.127       85.577    11203.242    14430.587     7323.416        2.840        1.648      141.501       92.469        0.427      343.530       19.705      860.238
09/18/2013  14:21:00      115.978     -149.780       -8.576       84.816      105.691       68.765     7193.794    11170.575     4728.670        2.952        1.155      189.433       77.405        0.167      343.315       19.337      860.245
09/18/2013  14:22:00       69.268     -160.187        0.968       61.882       74.506       42.896     3829.324     5551.116     1840.037        2.084        0.561      174.522       41.344        0.056      343.134       19.029      860.244
09/18/2013  14:23:00      108.186     -178.607       -1.244       80.805       75.125       55.508     6529.484     5643.713     3081.120        2.943        0.763      208.817       57.161        0.075      343.193       19.129      860.235
09/18/2013  14:24:00       81.908     -135.942       14.523       78.520      125.633       55.354     6165.354    15783.665     3064.091        2.520        1.251      158.711       71.521        0.203      343.448       19.565      860.221
09/18/2013  14:25:00       76.819     -111.934       -1.658       69.476       88.203       57.015     4826.878     7779.694     3250.744        1.714        0.793      135.758       58.809        0.188      343.506       19.665      860.226
09/18/2013  14:26:00       73.407      -46.572       39.150       62.991       82.628       46.674     3967.868     6827.312     2178.485        1.103        0.649       86.934       49.146        0.320      343.485       19.630      860.232
09/18/2013  14:27:00       76.823     -161.822       -3.186       46.887       81.495       40.629     2198.403     6641.430     1650.740        2.129        0.525      179.132       33.082        0.034      343.064       18.911      860.234
09/18/2013  14:28:00       42.195      -87.650       13.696       48.172       70.646       37.683     2320.498     4990.924     1419.980        0.919        0.437       97.278       42.124        0.188      343.347       19.395      860.231
09/18/2013  14:29:00       43.099      -82.555       -5.192       26.847       50.777       33.052      720.735     2578.290     1092.410        0.654        0.220       93.128       22.400        0.058      343.073       18.929      860.230
09/18/2013  14:30:00       -0.589       26.717       45.892       18.358       26.317       18.650      337.022      692.597      347.824        0.210        0.069       26.723       13.692        0.263      343.751       20.085      860.215
09/18/2013  14:31:00       12.894      -31.300        1.777       27.224       67.366       35.544      741.160     4538.141     1263.384        0.384        0.327       33.852       31.926        0.889      343.541       19.724      860.210
09/18/2013  14:32:00      -62.222      -43.954       -3.025       41.489       64.650       44.826     1721.317     4179.611     2009.382        0.686        0.396       76.181       42.629        0.313      343.394       19.475      860.203
09/18/2013  14:33:00      -13.262       58.440       19.634       79.573       40.612       41.264     6331.942     1649.357     1702.747        0.683        0.484       59.925       37.435        0.390      343.388       19.465      860.185
09/18/2013  14:34:00       35.835       23.531       28.868       53.498       61.881       52.661     2861.993     3829.209     2773.170        0.607        0.473       42.871       36.506        0.725      343.665       19.936      860.176
09/18/2013  14:35:00      131.423       83.133       66.584       71.027       56.435       47.916     5044.821     3184.896     2295.899        1.957        0.526      155.509       27.489        0.031      343.648       19.905      860.169
09/18/2013  14:36:00       41.979       80.753      101.478       81.627       94.033       45.100     6662.922     8842.255     2033.977        1.806        0.877       91.012       41.831        0.211      343.998       20.505      860.164
09/18/2013  14:37:00       61.399      -56.145      -10.683       52.491       75.192       43.666     2755.330     5653.879     1906.743        0.867        0.516       83.199       18.966        0.052      343.239       19.210      860.181
09/18/2013  14:38:00       42.969      -27.493       11.512       47.505       77.344       33.463     2256.710     5982.053     1119.805        0.604        0.468       51.012       28.050        0.302      343.415       19.511      860.161
09/18/2013  14:39:00       70.198       42.799       33.450       65.923       36.319       39.849     4345.864     1319.081     1587.944        0.756        0.363       82.216       36.745        0.200      343.580       19.790      860.144
09/18/2013  14:40:00       86.853       80.836        5.733       57.199       55.585       39.318     3271.704     3089.660     1545.918        1.101        0.395      118.651       22.064        0.035      343.244       19.219      860.150
09/18/2013  14:41:00       -8.127       -8.164      -22.737       20.273       24.864       13.021      410.981      618.230      169.558        0.092        0.060       11.519       10.717        0.866      343.483       19.627      860.142
09/18/2013  14:42:00      -17.325       -8.190      -19.725       14.156       16.407        9.495      200.400      269.180       90.149        0.066        0.028       19.163        9.516        0.247      343.526       19.700      860.113
09/18/2013  14:43:00       13.264        9.576      -12.031       17.653       15.687       12.248      311.636      246.080      150.024        0.056        0.035       16.359        6.785        0.172      343.531       19.708      860.107
09/18/2013  14:44:00      -21.630       83.886       -0.026       34.745       61.729       26.631     1207.192     3810.520      709.223        0.661        0.286       86.629       28.621        0.109      343.698       19.994      860.107
09/18/2013  14:45:00       20.658      172.383      -17.429       47.434       69.467       41.880     2249.941     4825.626     1753.913        1.964        0.441      173.616       40.156        0.053      343.408       19.495      860.108
09/18/2013  14:46:00       44.383       72.954       21.997       52.789       63.909       45.755     2786.705     4084.388     2093.564        0.837        0.448       85.395       38.754        0.206      343.779       20.131      860.095
09/18/2013  14:47:00       77.090      154.313      -16.572       67.533       83.585       47.140     4560.676     6986.464     2222.175        2.190        0.688      172.497       41.127        0.057      343.484       19.627      860.091
09/18/2013  14:48:00      156.570       91.253       20.082       64.823       49.109       44.336     4201.979     2411.719     1965.641        2.091        0.429      181.222       27.624        0.023      343.290       19.296      860.092
09/18/2013  14:49:00      135.378       96.956       28.287       48.147       40.825       40.075     2318.093     1666.720     1605.967        1.706        0.280      166.516       19.406        0.014      343.533       19.711      860.086
09/18/2013  14:50:00      132.329       77.210       30.516       45.479       38.743       35.978     2068.295     1501.051     1294.414        1.463        0.243      153.207       16.454        0.012      343.549       19.738      860.088
09/18/2013  14:51:00      119.905      101.363        2.475       65.445       54.444       43.906     4283.044     2964.099     1927.767        1.691        0.459      157.009       35.218        0.050      343.525       19.697      860.105
09/18/2013  14:52:00       14.786      139.881       -9.258       37.953       56.943       37.052     1440.426     3242.556     1372.839        1.296        0.303      140.661       14.799        0.011      343.474       19.609      860.112
09/18/2013  14:53:00      -24.002       15.516       -4.104       21.853       30.324       27.554      477.552      919.532      759.216        0.149        0.108       28.581       13.063        0.209      343.520       19.690      860.116
09/18/2013  14:54:00        3.713      -26.453      -19.319       30.777       22.818       14.144      947.214      520.660      200.054        0.138        0.083       26.712       14.490        0.294      343.518       19.685      860.121
09/18/2013  14:55:00       19.274        6.945       20.224       29.283       47.243       26.253      857.512     2231.889      689.216        0.230        0.189       20.487       13.922        0.462      343.885       20.311      860.110
09/18/2013  14:56:00      -22.585       93.335       -1.941       41.132       39.582       27.238     1691.873     1566.706      741.912        0.661        0.200       96.029       19.693        0.042      343.940       20.406      860.110
09/18/2013  14:57:00      -86.561      121.391      -25.426       46.145       58.825       28.349     2129.383     3460.360      803.674        1.463        0.320      149.092       25.652        0.030      343.649       19.910      860.104
09/18/2013  14:58:00        1.591       34.896       42.796       44.170       41.613       39.290     1951.026     1731.632     1543.742        0.414        0.261       34.932       33.895        0.941      344.089       20.661      860.088
09/18/2013  14:59:00        9.118       53.709       11.837       52.180       40.976       37.530     2722.761     1679.040     1408.483        0.446        0.291       54.478       39.552        0.527      343.874       20.294      860.082
09/18/2013  15:00:00       42.126       37.952       32.164       40.030       47.592       38.041     1602.373     2265.022     1447.150        0.478        0.266       56.701       21.933        0.150      343.943       20.411      860.085
09/18/2013  15:01:00       40.309      -71.911       -3.302       51.586       65.635       37.603     2661.145     4307.922     1413.998        0.759        0.419       82.438       36.452        0.196      343.955       20.431      860.083
09/18/2013  15:02:00      105.930     -116.871      -26.882       65.846       79.949       35.888     4335.716     6391.885     1287.928        1.881        0.601      157.734       34.480        0.048      343.592       19.810      860.076
09/18/2013  15:03:00       43.839      -49.141        3.963       37.639       69.613       30.047     1416.664     4845.938      902.848        0.576        0.358       65.854       38.432        0.341      343.661       19.930      860.091
09/18/2013  15:04:00       26.024       -9.635       12.947       36.019       41.039       30.792     1297.365     1684.187      948.147        0.243        0.196       27.750       18.828        0.460      343.970       20.456      860.086
09/18/2013  15:05:00       44.816       35.489       -4.429       45.890       83.666       36.669     2105.905     7000.040     1344.599        0.687        0.523       57.166       24.790        0.188      343.810       20.184      860.082
09/18/2013  15:06:00      109.612       73.887       22.492       56.990       46.052       52.532     3247.812     2120.802     2759.581        1.305        0.406      132.190       29.584        0.050      343.599       19.824      860.070
09/18/2013  15:07:00       32.431       25.349       -1.361       25.120       35.586       29.269      631.013     1266.345      856.693        0.222        0.138       41.162       14.588        0.126      343.970       20.456      860.056
09/18/2013  15:08:00       76.980       89.025       20.479       91.267       59.249       38.675     8329.576     3510.423     1495.755        1.380        0.667      117.692       43.062        0.134      343.964       20.447      860.040
09/18/2013  15:09:00       70.417       80.792        2.482       62.061       65.632       41.083     3851.549     4307.499     1687.830        1.067        0.492      107.172       37.913        0.125      343.937       20.401      860.027
09/18/2013  15:10:00       22.996      134.948       -7.186       43.005       58.100       37.270     1849.399     3375.581     1389.064        1.270        0.331      136.894       32.574        0.057      343.730       20.047      860.010
09/18/2013  15:11:00       47.599      111.478        4.559       58.360       64.060       42.886     3405.942     4103.723     1839.188        1.203        0.467      121.215       42.372        0.122      343.903       20.345      860.007
09/18/2013  15:12:00       20.553      -25.214      -28.330       58.509       59.150       30.388     3423.251     3498.752      923.431        0.485        0.392       32.530       28.217        0.752      343.625       19.869      860.009
09/18/2013  15:13:00       -1.689       36.133      -13.714       34.474       28.539       23.244     1188.485      814.462      540.273        0.202        0.127       36.173       16.647        0.212      344.034       20.568      859.991
09/18/2013  15:14:00       17.546      -40.075       -6.953       31.099       31.135       22.534      967.150      969.381      507.784        0.220        0.122       43.747        6.506        0.022      344.132       20.733      859.976
09/18/2013  15:15:00        7.407      -58.145       16.685       39.624       36.876       34.833     1570.088     1359.862     1213.304        0.393        0.207       58.615       29.633        0.256      344.227       20.896      859.960
09/18/2013  15:16:00       69.846     -122.376      -13.556       47.398       34.778       26.548     2246.586     1209.528      704.805        1.210        0.208      140.906       21.598        0.023      343.968       20.452      859.938
09/18/2013  15:17:00       55.168      -94.160        2.163       44.204       78.280       39.270     1953.967     6127.733     1542.171        1.077        0.481      109.131       42.096        0.149      343.939       20.404      859.924
09/18/2013  15:18:00       63.308      -44.809       11.699       39.365       72.286       37.502     1549.567     5225.230     1406.413        0.717        0.409       77.561       45.203        0.340      344.033       20.565      859.920
09/18/2013  15:19:00      116.500       54.442       22.279       67.167       53.859       38.128     4511.392     2900.743     1453.747        1.295        0.443      128.593       25.150        0.038      343.936       20.398      859.910
09/18/2013  15:20:00      138.300       74.251       57.087      114.854       56.453       49.961    13191.431     3186.887     2496.094        2.338        0.944      156.972       45.417        0.084      344.034       20.565      859.896
09/18/2013  15:21:00      100.310       70.756       17.434       48.177       35.998       41.581     2320.985     1295.873     1728.997        1.036        0.267      122.754       30.480        0.062      343.795       20.158      859.904
09/18/2013  15:22:00      102.255       85.053       19.178       67.492       38.220       44.170     4555.204     1460.740     1951.027        1.301        0.398      133.005       15.881        0.014      344.074       20.634      859.885
09/18/2013  15:23:00       54.062       57.042       -8.685       57.039       44.784       37.168     3253.416     2005.571     1381.469        0.644        0.332       78.591       29.504        0.141      344.178       20.812      859.876
09/18/2013  15:24:00        0.233       21.147        0.455       22.695       28.553       28.405      515.073      815.296      806.848        0.129        0.107       21.148       19.813        0.878      344.262       20.957      859.861
09/18/2013  15:25:00       25.368       52.792       15.783       38.435       56.104       31.369     1477.269     3147.657      984.000        0.464        0.280       58.570       19.725        0.113      344.279       20.986      859.838
09/18/2013  15:26:00       63.382       50.189       36.338       60.206       42.693       34.832     3624.738     1822.659     1213.287        0.726        0.333       80.847       25.242        0.097      344.279       20.984      859.815
09/18/2013  15:27:00       47.214       30.010        9.743       53.039       43.711       29.288     2813.158     1910.685      857.758        0.440        0.279       55.944       16.984        0.092      344.270       20.971      859.801
09/18/2013  15:28:00       -2.690      270.468      -29.367       71.274       78.847       36.258     5080.015     6216.803     1314.609        4.331        0.631      270.482       30.476        0.013      344.106       20.686      859.783
09/18/2013  15:29:00        8.458      281.962      -40.011       47.849       83.540       39.430     2289.483     6978.936     1554.719        4.600        0.541      282.089       38.435        0.019      343.982       20.474      859.760
09/18/2013  15:30:00       38.729      214.383      -17.255       94.662      121.746       63.914     8960.936    14822.123     4085.028        3.781        1.393      217.854       65.939        0.092      344.217       20.878      859.756
09/18/2013  15:31:00      -44.781      182.735      -26.990       80.350       92.298       34.443     6456.126     8518.989     1186.350        2.614        0.808      188.142       40.008        0.045      344.040       20.575      859.765
09/18/2013  15:32:00       14.128      157.542      -14.696       68.712       86.589       39.513     4721.385     7497.627     1561.287        1.950        0.689      158.174       36.950        0.055      344.284       20.990      859.746
09/18/2013  15:33:00       60.619       97.430        4.277       56.886       47.960       42.909     3235.966     2300.134     1841.174        1.028        0.369      114.749       34.526        0.091      344.032       20.564      859.743
09/18/2013  15:34:00       12.639       40.814        2.728       27.230       27.366       28.744      741.461      748.910      826.192        0.207        0.116       42.726       22.942        0.288      344.060       20.611      859.734
09/18/2013  15:35:00      -22.617       66.977       -9.527       23.652       46.674       23.987      559.396     2178.464      575.365        0.420        0.166       70.692        9.246        0.017      343.981       20.475      859.732
09/18/2013  15:36:00       81.422       88.426       -1.279       50.152       66.627       46.069     2515.257     4439.139     2122.340        1.176        0.454      120.202       27.863        0.054      344.094       20.668      859.726
09/18/2013  15:37:00      132.838      102.131       27.797       73.596       43.048       39.606     5416.381     1853.107     1568.634        1.884        0.442      167.561       29.731        0.031      344.304       21.027      859.705
09/18/2013  15:38:00      149.263       99.293        2.792       64.754       58.699       40.387     4193.020     3445.611     1631.126        2.071        0.463      179.272       33.029        0.034      344.110       20.694      859.723
09/18/2013  15:39:00      137.760       89.331       37.591       84.600       56.755       43.026     7157.204     3221.076     1851.218        2.030        0.611      164.189       15.416        0.009      344.269       20.965      859.722
09/18/2013  15:40:00      158.309       86.243       22.413       89.635       63.058       40.756     8034.449     3976.341     1661.087        2.333        0.684      180.276       30.070        0.028      344.240       20.916      859.728
09/18/2013  15:41:00      124.688      109.915       18.177      107.893       90.011       55.613    11640.979     8102.059     3092.792        2.539        1.142      166.218       39.011        0.055      344.108       20.690      859.714
09/18/2013  15:42:00      179.017       89.923       27.330       81.646       58.521       50.577     6666.102     3424.696     2558.036        2.676        0.632      200.333       15.890        0.006      343.893       20.323      859.708
09/18/2013  15:43:00       65.612       66.783       18.778       70.302       46.007       36.809     4942.440     2116.680     1354.921        0.876        0.421       93.621       33.109        0.125      344.029       20.556      859.709
09/18/2013  15:44:00       92.738       99.803       14.497       68.101       53.448       48.296     4637.709     2856.703     2332.462        1.430        0.491      136.239       32.402        0.057      343.998       20.504      859.695
09/18/2013  15:45:00       39.133      154.108       -2.892       76.500       73.019       43.974     5852.317     5331.779     1933.682        1.920        0.656      158.999       48.846        0.094      344.050       20.591      859.687
09/18/2013  15:46:00       10.156      200.423      -23.083       39.069       60.014       35.027     1526.412     3601.696     1226.890        2.358        0.318      200.680       19.051        0.009      344.003       20.511      859.682
09/18/2013  15:47:00       48.244       79.790       20.266       59.404       87.411       54.360     3528.844     7640.635     2955.040        1.161        0.706       93.241       56.130        0.362      344.271       20.971      859.686
09/18/2013  15:48:00       35.833       70.555        4.763       45.815       56.461       28.335     2099.034     3187.861      802.891        0.619        0.304       79.133       28.518        0.130      344.343       21.093      859.695
09/18/2013  15:49:00       78.248       94.045       32.887       62.967       34.072       43.268     3964.812     1160.927     1872.104        1.152        0.350      122.341       38.942        0.101      344.164       20.788      859.694
09/18/2013  15:50:00      -14.638      133.845       -5.330       40.238       50.932       27.501     1619.131     2594.039      756.323        1.156        0.248      134.643       24.270        0.032      344.500       21.362      859.683
09/18/2013  15:51:00       31.290       80.938        4.727       38.182       50.397       35.675     1457.857     2539.897     1272.738        0.641        0.264       86.776       33.234        0.147      344.369       21.138      859.674
09/18/2013  15:52:00      -10.490      148.975      -24.561       30.060       36.909       17.207      903.625     1362.279      296.085        1.273        0.128      149.344       14.657        0.010      344.032       20.562      859.650
09/18/2013  15:53:00       82.505       44.584        9.532       49.657       36.105       29.824     2465.779     1303.554      889.466        0.677        0.233       93.780       22.536        0.058      344.180       20.816      859.630
09/18/2013  15:54:00       24.241       18.519       37.272       29.866       29.972       31.090      891.997      898.319      966.594        0.254        0.138       30.506       20.490        0.451      344.241       20.920      859.620
09/18/2013  15:55:00       91.516       54.633       34.643       47.354       32.054       36.620     2242.432     1027.447     1340.999        0.858        0.231      106.583       32.250        0.092      344.047       20.590      859.623
09/18/2013  15:56:00        1.206      123.733      -11.133       67.057       68.417       38.238     4496.707     4680.866     1462.127        1.304        0.532      123.739       44.077        0.127      344.138       20.744      859.625
09/18/2013  15:57:00     -114.754       47.067      -20.198       55.806       38.198       37.304     3114.313     1459.086     1391.569        1.088        0.298      124.031       10.505        0.007      344.379       21.155      859.601
09/18/2013  15:58:00      -60.191      -15.535       16.069       69.857       32.625       21.369     4879.969     1064.407      456.622        0.526        0.320       62.164       32.296        0.270      344.477       21.322      859.598
09/18/2013  15:59:00       42.710       19.299       -1.187       27.599       26.959       19.415      761.692      726.797      376.944        0.203        0.093       46.868       13.645        0.085      344.218       20.883      859.612
09/18/2013  16:00:00       14.339       51.666       -2.555       50.810       46.317       29.887     2581.643     2145.218      893.245        0.425        0.281       53.619        9.339        0.030      344.530       21.415      859.609
09/18/2013  16:01:00       68.791       47.757       37.424       83.163       70.141       58.846     6916.030     4919.700     3462.888        1.185        0.765       83.744       47.420        0.321      344.203       20.854      859.584
09/18/2013  16:02:00       51.121      139.196       -1.591       60.287       54.765       41.972     3634.471     2999.220     1761.654        1.519        0.420      148.286       32.333        0.048      344.326       21.065      859.572
09/18/2013  16:03:00       44.601       68.404        9.050       56.246       47.781       35.937     3163.579     2283.042     1291.498        0.674        0.337       81.660       30.909        0.143      344.467       21.306      859.564
09/18/2013  16:04:00      105.859      135.651       14.172       87.735       78.897       59.605     7697.374     6224.659     3552.723        2.364        0.874      172.068       56.100        0.106      344.269       20.967      859.567
09/18/2013  16:05:00       71.411       72.479       16.742       62.505       66.360       39.671     3906.882     4403.656     1573.768        1.026        0.494      101.749       38.181        0.141      344.436       21.252      859.560
09/18/2013  16:06:00       59.260      111.004       17.614       83.440       77.772       48.303     6962.160     6048.482     2333.182        1.574        0.767      125.832       41.051        0.106      344.396       21.185      859.567
09/18/2013  16:07:00       76.122       51.995       84.236       70.651      118.126       67.813     4991.530    13953.670     4598.539        1.956        1.177       92.185       60.518        0.431      344.243       20.922      859.554
09/18/2013  16:08:00       78.493      -42.386       47.370       96.448       93.634       56.623     9302.267     8767.393     3206.165        1.573        1.064       89.206       60.265        0.456      344.177       20.811      859.557
09/18/2013  16:09:00       76.113       56.343       26.836       78.971       73.957       47.879     6236.352     5469.625     2292.387        1.184        0.700       94.698       19.181        0.041      344.412       21.212      859.589
09/18/2013  16:10:00       75.912       49.273       47.930       71.514       51.910       49.767     5114.296     2694.664     2476.771        1.038        0.514       90.501       43.563        0.232      344.337       21.085      859.580
09/18/2013  16:11:00      161.278      133.880       91.629      106.152       54.357       72.195    11268.325     2954.650     5212.120        3.588        0.972      209.606       51.829        0.061      344.247       20.927      859.587
09/18/2013  16:12:00       91.106       68.335       30.375       57.328       57.413       44.624     3286.485     3296.240     1991.341        1.123        0.429      113.886       45.876        0.162      343.930       20.388      859.600
09/18/2013  16:13:00       82.409       81.251       -3.244       40.340       54.578       37.893     1627.297     2978.728     1435.908        0.972        0.302      115.728       31.957        0.076      344.036       20.570      859.599
09/18/2013  16:14:00       42.113        7.067       -3.424       44.699       90.186       26.549     1998.015     8133.594      704.872        0.633        0.542       42.702       18.571        0.189      344.109       20.694      859.592
09/18/2013  16:15:00       29.755      -56.594       -9.494       45.964       29.653       33.437     2112.666      879.290     1118.046        0.414        0.206       63.940       13.939        0.048      344.133       20.735      859.572
09/18/2013  16:16:00       35.660       52.192       54.149       42.560       55.970       46.338     1811.365     3132.616     2147.169        0.701        0.355       63.211       42.544        0.453      344.224       20.890      859.558
09/18/2013  16:17:00      102.842       78.505       35.804       60.640       40.810       46.249     3677.222     1665.448     2138.954        1.275        0.374      129.381       26.709        0.043      344.271       20.970      859.548
09/18/2013  16:18:00       40.242       44.339       15.557       66.022       48.819       36.389     4358.960     2383.292     1324.146        0.595        0.403       59.878       23.905        0.159      344.400       21.191      859.532
09/18/2013  16:19:00      162.699       77.725       35.689       94.884       75.525       63.846     9003.062     5704.027     4076.322        2.628        0.939      180.311       34.140        0.036      344.215       20.874      859.500
09/18/2013  16:20:00      125.586      102.949       47.458      109.464       65.559       58.869    11982.309     4298.002     3465.530        2.418        0.987      162.390       38.391        0.056      344.256       20.944      859.477
09/18/2013  16:21:00      -37.216       98.266      -13.169       78.254       66.237       38.351     6123.612     4387.379     1470.815        1.160        0.599      105.078       21.337        0.041      344.459       21.292      859.464
09/18/2013  16:22:00       70.150       40.268       45.770       78.439       63.315       38.965     6152.699     4008.852     1518.288        1.016        0.584       80.886       26.418        0.107      344.401       21.192      859.451
09/18/2013  16:23:00      223.375      142.528       38.968      104.388       92.807       80.299    10896.771     8613.082     6447.859        4.884        1.298      264.973       43.905        0.027      344.385       21.163      859.438
09/18/2013  16:24:00      246.494      154.738       28.416       89.442       64.384       60.849     7999.867     4145.348     3702.662        5.068        0.792      291.038       28.573        0.010      344.362       21.123      859.451
09/18/2013  16:25:00      176.301      116.429       20.667       77.085       64.008       60.232     5942.036     4097.040     3627.886        2.936        0.683      211.276       33.242        0.025      344.563       21.467      859.456
09/18/2013  16:26:00      103.115       84.528       26.851      130.877       74.932       53.778    17128.754     5614.796     2892.055        2.206        1.282      133.333       25.554        0.037      344.448       21.272      859.465
09/18/2013  16:27:00       59.917       27.184       37.013       66.917       50.225       34.641     4477.933     2522.552     1199.986        0.695        0.410       65.795       31.786        0.233      344.384       21.166      859.444
09/18/2013  16:28:00      279.033      138.049       39.125      131.874       92.143       74.444    17390.667     8490.373     5541.901        6.493        1.571      311.314       47.200        0.023      344.261       20.951      859.451
09/18/2013  16:29:00      165.532      115.216       65.036       90.625       75.665       70.987     8212.919     5725.126     5039.169        3.194        0.949      201.682       37.037        0.034      344.326       21.063      859.457
09/18/2013  16:30:00      145.607      115.186       17.974       79.722       51.604       48.732     6355.676     2662.968     2374.816        2.309        0.570      185.658       32.773        0.031      344.382       21.158      859.471
09/18/2013  16:31:00      118.868       56.674       16.727       63.791       50.110       37.557     4069.292     2511.013     1410.555        1.280        0.400      131.688       33.122        0.063      344.168       20.795      859.485
09/18/2013  16:32:00       49.429       47.516       10.490       53.565       31.376       25.022     2869.244      984.462      626.125        0.464        0.224       68.564       21.116        0.095      344.233       20.907      859.478
09/18/2013  16:33:00      -21.361      193.196      -25.101       32.566       60.578       20.963     1060.569     3669.670      439.454        2.179        0.258      194.373       29.932        0.024      344.299       21.015      859.470
09/18/2013  16:34:00      -57.789      128.893      -23.868       35.128       44.337       26.318     1234.011     1965.773      692.638        1.221        0.195      141.255       21.902        0.024      344.408       21.204      859.465
09/18/2013  16:35:00      -60.049      100.441      -19.554       27.721       35.185       25.154      768.432     1237.973      632.720        0.836        0.132      117.022       18.675        0.025      344.355       21.115      859.442
09/18/2013  16:36:00       -3.989       36.783       13.108       31.954       24.431       19.768     1021.070      596.876      390.772        0.177        0.100       36.999       15.177        0.168      344.514       21.386      859.443
09/18/2013  16:37:00       37.408       21.417        4.757       25.538       30.032       18.891      652.174      901.927      356.874        0.190        0.096       43.105       12.998        0.091      344.170       20.800      859.430
09/18/2013  16:38:00       42.651       67.390       14.665       55.806       33.849       26.181     3114.261     1145.777      685.468        0.576        0.247       79.753       15.254        0.037      344.340       21.090      859.415
09/18/2013  16:39:00      142.045      119.076       21.520       65.509       62.991       48.391     4291.413     3967.917     2341.715        2.271        0.530      185.353       39.144        0.045      344.427       21.237      859.400
09/18/2013  16:40:00      187.901      121.085       19.911       69.065       61.861       56.767     4769.906     3826.839     3222.437        3.109        0.591      223.536       29.946        0.018      344.525       21.402      859.400
09/18/2013  16:41:00       94.869       67.513       20.044       77.210       50.584       29.811     5961.397     2558.751      888.666        1.168        0.470      116.439       26.266        0.051      344.219       20.883      859.408
09/18/2013  16:42:00       56.385       78.987       -9.378       37.500       35.964       29.748     1406.247     1293.390      884.928        0.654        0.179       97.047       20.370        0.044      344.347       21.101      859.413
09/18/2013  16:43:00       68.607       43.834        3.111       52.587       37.537       28.695     2765.370     1408.994      823.389        0.582        0.250       81.414       19.726        0.059      344.374       21.146      859.432
09/18/2013  16:44:00       -2.020      -26.496       -1.266       41.671       37.605       31.448     1736.486     1414.122      988.991        0.242        0.207       26.573       28.196        1.126      344.269       20.967      859.432
09/18/2013  16:45:00       -9.306      -37.858      -12.153       21.567       38.341       28.375      465.135     1470.022      805.113        0.220        0.137       38.985       17.180        0.194      343.873       20.292      859.442
09/18/2013  16:46:00        6.716        8.296       10.034       35.283       37.848       29.073     1244.891     1432.500      845.213        0.187        0.176       10.674       30.088        7.946      344.119       20.711      859.463
09/18/2013  16:47:00      106.512       96.490        0.320       68.937       62.061       47.627     4752.258     3851.617     2268.362        1.576        0.544      143.719       19.809        0.019      344.201       20.851      859.463
09/18/2013  16:48:00       94.828       80.854       38.354       61.641       56.095       54.142     3799.611     3146.595     2931.310        1.344        0.494      124.618       33.631        0.073      344.392       21.178      859.454
09/18/2013  16:49:00      135.613       81.695       19.136       75.300       74.164       43.351     5670.133     5500.344     1879.290        1.924        0.652      158.319       16.614        0.011      344.702       21.707      859.461
09/18/2013  16:50:00      103.341       63.584       47.103       99.170       54.030       49.760     9834.592     2919.196     2476.071        1.608        0.761      121.336       34.596        0.081      344.632       21.587      859.469
09/18/2013  16:51:00       58.279       64.972       33.644       51.473       39.804       39.370     2649.503     1584.324     1549.982        0.727        0.289       87.280       20.983        0.058      344.511       21.379      859.481
09/18/2013  16:52:00       60.562       30.166       10.506       73.509       59.898       41.110     5403.630     3587.770     1690.053        0.768        0.534       67.659       36.631        0.293      344.703       21.710      859.495
09/18/2013  16:53:00      133.209      104.023        7.887       79.224       52.528       45.610     6276.416     2759.146     2080.294        1.987        0.556      169.013       18.330        0.012      344.507       21.374      859.500
09/18/2013  16:54:00      122.112       84.196       18.191       62.511       40.490       35.593     3907.676     1639.439     1266.860        1.457        0.341      148.325       33.281        0.050      344.373       21.146      859.491
09/18/2013  16:55:00       98.454       81.058        5.202       60.809       50.326       39.968     3697.676     2532.682     1597.404        1.206        0.391      127.529       30.244        0.056      344.462       21.297      859.472
09/18/2013  16:56:00       70.098       20.143       16.060       52.613       35.569       27.325     2768.139     1265.144      746.659        0.518        0.239       72.935       14.860        0.042      344.493       21.351      859.460
09/18/2013  16:57:00       59.268       37.590        0.177       61.153       46.164       31.086     3739.685     2131.142      966.346        0.588        0.342       70.184       23.967        0.117      344.475       21.320      859.444
09/18/2013  16:58:00      -10.788       95.279      -20.343       33.306       47.714       17.576     1109.273     2276.642      308.928        0.665        0.185       95.888       13.042        0.018      344.375       21.149      859.439
09/18/2013  16:59:00       35.881       -2.984      -12.038       48.993       66.099       22.142     2400.268     4369.059      490.266        0.435        0.363       36.005       27.475        0.582      344.101       20.680      859.433
09/18/2013  17:00:00       38.951      -24.699       19.389       20.499       26.063       25.958      420.199      679.295      673.805        0.214        0.089       46.122       12.998        0.079      343.909       20.353      859.433
09/18/2013  17:01:00       34.275      -25.985        9.069       22.333       14.065       16.562      498.777      197.836      274.303        0.145        0.049       43.011       14.382        0.112      343.929       20.385      859.443
09/18/2013  17:02:00        1.846        4.208       -0.060       21.986       16.825       13.207      483.399      283.077      174.423        0.048        0.047        4.595       11.953        6.766      344.297       21.017      859.448
09/18/2013  17:03:00       48.651      -32.331      -15.229       27.306       27.865       18.765      745.597      776.456      352.115        0.276        0.094       58.414       12.018        0.042      344.140       20.748      859.449
09/18/2013  17:04:00       33.868      -40.313       -1.721       23.557       26.484       22.039      554.941      701.418      485.726        0.226        0.087       52.651       11.601        0.049      344.319       21.054      859.454
09/18/2013  17:05:00       24.059      -32.004        1.023       18.760       27.610       15.484      351.956      762.304      239.769        0.148        0.068       40.039       10.522        0.069      343.949       20.423      859.456
09/18/2013  17:06:00       35.899      -26.870       -0.581       30.664       25.513       23.620      940.273      650.929      557.884        0.208        0.107       44.841       20.202        0.203      343.997       20.504      859.457
09/18/2013  17:07:00       28.751      -55.703       -3.990       33.604       22.771       21.093     1129.239      518.532      444.916        0.302        0.105       62.685       14.374        0.053      344.288       21.001      859.459
09/18/2013  17:08:00       44.257      -65.773       -3.816       30.900       29.035       27.302      954.820      843.036      745.417        0.442        0.127       79.277       14.043        0.031      344.382       21.160      859.447
09/18/2013  17:09:00       14.871      -11.289        5.929       35.619       20.501       22.115     1268.701      420.290      489.058        0.128        0.109       18.670        8.846        0.224      344.339       21.088      859.446
09/18/2013  17:10:00       -4.012      -18.054      -10.969       31.556       44.860       21.242      995.755     2012.395      451.216        0.196        0.173       18.494       20.612        1.242      343.987       20.486      859.437
09/18/2013  17:11:00        6.836       18.520       22.339       20.354       19.711       20.255      414.298      388.534      410.279        0.105        0.061       19.741       14.861        0.567      344.276       20.981      859.424
09/18/2013  17:12:00       31.623       56.832        2.724       35.424       23.324       23.691     1254.838      544.000      561.285        0.330        0.118       65.037       16.297        0.063      344.425       21.234      859.406
09/18/2013  17:13:00       14.821       41.875      -19.778       17.520       22.295       24.066      306.947      497.063      579.187        0.187        0.069       44.421        9.012        0.041      344.392       21.179      859.392
09/18/2013  17:14:00       32.586       16.146       -0.425       17.897       15.201       18.810      320.318      231.056      353.811        0.111        0.045       36.367        5.397        0.022      344.050       20.594      859.378
09/18/2013  17:15:00       18.689       -5.530        0.370       13.858       20.046       11.677      192.034      401.851      136.341        0.055        0.037       19.490       13.482        0.479      344.379       21.157      859.363
09/18/2013  17:16:00       14.576       42.769        6.603       16.899       15.149       17.763      285.570      229.482      315.529        0.146        0.042       45.184       12.698        0.079      344.135       20.739      859.349
09/18/2013  17:17:00       39.255       27.354        8.170       22.471       20.506       20.155      504.949      420.497      406.239        0.184        0.067       47.846       10.943        0.052      343.739       20.063      859.335
09/18/2013  17:18:00        0.615        8.328        6.557       13.551       20.000       11.226      183.628      399.984      126.023        0.041        0.035        8.351        7.763        0.864      344.265       20.961      859.315
09/18/2013  17:19:00       -0.294       53.811        4.878       19.251       30.029       20.210      370.597      901.721      408.428        0.230        0.084       53.812       18.608        0.120      344.140       20.747      859.298
09/18/2013  17:20:00      -34.704       74.507      -17.712       23.587       44.934       17.947      556.367     2019.080      322.103        0.498        0.145       82.193       15.538        0.036      344.600       21.533      859.283
09/18/2013  17:21:00      127.695       60.306       42.949      102.599       89.964       67.508    10526.507     8093.552     4557.312        2.248        1.159      141.219       41.965        0.088      344.314       21.043      859.285
09/18/2013  17:22:00      214.376       91.758        3.288       90.285       77.327       52.574     8151.362     5979.439     2764.045        3.564        0.845      233.188       39.282        0.028      344.336       21.079      859.272
09/18/2013  17:23:00      123.194       74.299       41.769       45.580       49.680       36.481     2077.548     2468.066     1330.848        1.416        0.294      143.865       26.794        0.035      344.192       20.836      859.274
09/18/2013  17:24:00      152.131       93.262       23.850       74.046       61.561       51.379     5482.771     3789.814     2639.805        2.216        0.596      178.442       31.680        0.032      344.567       21.476      859.281
09/18/2013  17:25:00      111.222       67.942       30.687       71.801       41.047       36.341     5155.449     1684.864     1320.697        1.304        0.408      130.332       21.176        0.026      344.455       21.285      859.294
09/18/2013  17:26:00      133.443       73.211       48.739       60.079       55.145       39.394     3609.528     3041.017     1551.889        1.687        0.410      152.206       31.204        0.042      344.588       21.510      859.309
09/18/2013  17:27:00       90.484       44.678       51.269       56.392       61.889       38.726     3180.033     3830.238     1499.741        1.066        0.426      100.913       22.019        0.048      344.414       21.215      859.327
09/18/2013  17:28:00      161.396       83.758       49.374       50.619       50.195       34.134     2562.256     2519.568     1165.156        2.087        0.312      181.835       26.182        0.021      344.426       21.235      859.327
09/18/2013  17:29:00      106.686       80.371       16.381       59.838       43.806       37.832     3580.555     1918.986     1431.256        1.252        0.347      133.572       28.107        0.044      344.444       21.266      859.335
09/18/2013  17:30:00       22.155       25.085       14.780       45.066       37.608       25.411     2030.909     1414.376      645.713        0.271        0.205       33.468       22.333        0.445      344.583       21.504      859.333
09/18/2013  17:31:00      144.529       84.952       46.488       54.117       39.133       31.939     2928.686     1531.383     1020.111        1.787        0.274      167.647       20.740        0.015      344.504       21.368      859.345
09/18/2013  17:32:00      110.577       58.403       29.066       31.851       22.174       27.004     1014.482      491.706      729.237        0.936        0.112      125.053       14.585        0.014      344.324       21.061      859.361
09/18/2013  17:33:00       49.038       18.403       -6.868       29.244       29.591       19.446      855.220      875.645      378.135        0.245        0.105       52.377       19.783        0.143      344.200       20.850      859.371
09/18/2013  17:34:00       10.992       -5.973       -2.720       11.565       17.583       12.854      133.738      309.179      165.238        0.039        0.030       12.510        9.637        0.593      344.462       21.298      859.370
09/18/2013  17:35:00       18.630      -19.684        0.575       12.646       23.641       13.715      159.911      558.906      188.102        0.082        0.045       27.102       12.759        0.222      344.533       21.419      859.369
09/18/2013  17:36:00      -31.018       -5.436        6.630       39.869       26.229       18.625     1589.518      687.986      346.889        0.183        0.131       31.491       14.074        0.200      344.693       21.694      859.363
09/18/2013  17:37:00       31.355       -3.220       19.928       24.080       20.741       20.617      579.865      430.180      425.070        0.141        0.072       31.520       10.431        0.110      343.871       20.288      859.360
09/18/2013  17:38:00       19.532       -7.758       15.304       26.563       20.647       16.447      705.584      426.310      270.497        0.104        0.070       21.017        6.129        0.085      343.943       20.412      859.363
09/18/2013  17:39:00       32.096      -20.309       13.940       30.912       19.059       28.796      955.533      363.228      829.210        0.189        0.107       37.981       19.220        0.256      343.916       20.366      859.353
09/18/2013  17:40:00       13.362        6.479        1.507       30.916       16.671       12.109      955.829      277.922      146.617        0.080        0.069       14.850        3.142        0.045      344.257       20.947      859.347
09/18/2013  17:41:00       48.849       17.544       17.465       36.523       29.691       23.037     1333.954      881.554      530.715        0.287        0.137       51.904       13.044        0.063      343.673       19.951      859.347
09/18/2013  17:42:00       49.155       44.133       10.240       42.461       31.346       24.823     1802.947      982.544      616.163        0.393        0.170       66.061       16.873        0.065      344.391       21.176      859.335
09/18/2013  17:43:00       36.234      149.724       -9.035       31.964       77.381       33.269     1021.714     5987.780     1106.796        1.596        0.406      154.046       36.268        0.055      344.527       21.408      859.333
09/18/2013  17:44:00       51.393      116.950      -10.549       44.372       67.850       44.292     1968.864     4603.617     1961.750        1.248        0.427      127.744       40.651        0.101      344.537       21.426      859.338
09/18/2013  17:45:00       50.873       66.855        3.240       52.653       50.261       28.025     2772.322     2526.209      785.387        0.657        0.304       84.010       30.207        0.129      344.537       21.426      859.333
09/18/2013  17:46:00        0.107       54.615        3.812       45.696       46.222       25.501     2088.167     2136.454      650.293        0.394        0.244       54.615       23.043        0.178      344.572       21.486      859.334
09/18/2013  17:47:00       25.945       29.038       14.719       28.179       29.571       27.985      794.042      874.453      783.146        0.209        0.123       38.940       19.550        0.252      344.600       21.534      859.338
09/18/2013  17:48:00       21.329       54.919       -1.970       33.202       39.450       19.776     1102.367     1556.270      391.099        0.326        0.152       58.915       19.122        0.105      344.522       21.401      859.345
09/18/2013  17:49:00      144.525      117.771       14.436       94.926       64.184       47.557     9010.956     4119.574     2261.683        2.518        0.770      186.434       44.161        0.056      344.447       21.269      859.343
09/18/2013  17:50:00      114.465       94.725       26.589       52.319       43.976       41.904     2737.311     1933.919     1755.910        1.460        0.321      148.577       11.063        0.006      344.418       21.222      859.342
09/18/2013  17:51:00      147.573       81.253       16.048       46.709       46.019       40.074     2181.731     2117.766     1605.964        1.727        0.295      168.463       19.677        0.014      344.497       21.356      859.347
09/18/2013  17:52:00      101.746       26.236       23.921       69.204       48.605       36.204     4789.216     2362.461     1310.752        1.004        0.423      105.074       28.569        0.074      344.402       21.196      859.364
09/18/2013  17:53:00       40.733       50.996       -0.825       46.022       34.536       29.902     2117.988     1192.726      894.111        0.423        0.210       65.267       22.267        0.116      344.495       21.354      859.377
09/18/2013  17:54:00       28.129      -27.631       -2.487       23.313       31.345       22.647      543.480      982.496      512.868        0.180        0.102       39.430       16.680        0.179      343.990       20.493      859.389
09/18/2013  17:55:00       17.555      -12.442       14.460       24.921       14.394       18.332      621.077      207.194      336.048        0.092        0.058       21.517       13.561        0.397      344.083       20.651      859.388
09/18/2013  17:56:00       56.068       34.482       36.796       33.775       38.407       31.556     1140.775     1475.079      995.804        0.465        0.181       65.823       24.079        0.134      343.818       20.198      859.385
09/18/2013  17:57:00      111.438       85.368       22.105       33.241       38.110       33.340     1104.949     1452.404     1111.564        1.193        0.183      140.378       16.161        0.013      344.458       21.293      859.378
09/18/2013  17:58:00      122.234       90.941       32.499       62.661       54.508       59.796     3926.415     2971.171     3575.525        1.737        0.524      152.353       42.200        0.077      344.454       21.283      859.378
09/18/2013  17:59:00       99.364       83.651       23.179       81.674       55.544       42.807     6670.610     3085.144     1832.470        1.450        0.579      129.888       31.890        0.060      344.467       21.305      859.368
09/18/2013  18:00:00       78.606      104.545       13.824       87.017       79.792       63.686     7571.878     6366.698     4055.908        1.764        0.900      130.800       55.836        0.182      344.427       21.236      859.374
09/18/2013  18:01:00      114.751       75.161       21.885       91.690       55.172       48.073     8407.043     3043.941     2310.977        1.653        0.688      137.175       31.913        0.054      344.381       21.159      859.378
09/18/2013  18:02:00      197.723      149.625       37.819       72.934       58.221       47.127     5319.409     3389.642     2220.910        3.692        0.546      247.956       26.486        0.011      344.411       21.208      859.399
09/18/2013  18:03:00      118.993       92.515       24.948       75.150       51.554       38.765     5647.462     2657.769     1502.703        1.657        0.490      150.726       14.775        0.010      344.418       21.222      859.407
09/18/2013  18:04:00      207.852      116.525       25.612       86.570       57.224       52.271     7494.320     3274.581     2732.216        3.547        0.675      238.287       32.654        0.019      344.415       21.213      859.415
09/18/2013  18:05:00      203.826      140.809       49.583       65.495       52.296       45.320     4289.570     2734.903     2053.859        3.645        0.454      247.734       28.641        0.013      344.415       21.214      859.428
09/18/2013  18:06:00      123.556       86.375       32.306       61.857       42.820       43.769     3826.333     1833.549     1915.744        1.567        0.379      150.754       31.562        0.044      344.215       20.875      859.437
09/18/2013  18:07:00      165.487      119.620       27.987       78.155       56.943       58.450     6108.277     3242.499     3416.399        2.762        0.638      204.194       39.877        0.038      344.402       21.191      859.444
09/18/2013  18:08:00      120.677       74.419       39.007       46.495       35.700       39.402     2161.745     1274.494     1552.520        1.330        0.249      141.778       16.984        0.014      344.217       20.880      859.457
09/18/2013  18:09:00       68.619       72.922       46.453       35.215       35.499       29.652     1240.110     1260.150      879.233        0.778        0.169      100.131       23.778        0.056      344.132       20.734      859.468
09/18/2013  18:10:00       42.608      -16.703        4.350       30.607       37.707       19.394      936.786     1421.825      376.125        0.242        0.137       45.765       12.783        0.078      344.037       20.572      859.474
09/18/2013  18:11:00        7.748       -0.870       -7.682       31.130       22.630       24.713      969.065      512.115      610.755        0.111        0.105        7.797       14.844        3.624      343.909       20.354      859.473
09/18/2013  18:12:00      111.592       66.524       27.423       44.603       39.302       41.592     1989.406     1544.646     1729.887        1.145        0.263      129.916       25.975        0.040      343.956       20.433      859.481
09/18/2013  18:13:00      133.604       89.630       41.728       52.027       37.467       32.499     2706.827     1403.747     1056.188        1.639        0.258      160.884        7.507        0.002      344.060       20.610      859.501
09/18/2013  18:14:00       57.574       18.153       40.688       66.106       42.941       34.929     4370.064     1843.915     1220.020        0.637        0.372       60.368       25.701        0.181      344.040       20.578      859.505
09/18/2013  18:15:00      115.987       93.801       42.291       41.131       42.502       39.976     1691.725     1806.444     1598.104        1.457        0.255      149.170       27.848        0.035      344.040       20.577      859.503
09/18/2013  18:16:00      128.238       67.067       31.328       64.422       32.331       31.917     4150.183     1045.321     1018.709        1.407        0.311      144.717       31.983        0.049      344.305       21.029      859.507
09/18/2013  18:17:00      178.695      116.155       45.257       54.985       60.811       51.978     3023.324     3697.990     2701.745        2.845        0.471      213.128       29.170        0.019      344.206       20.858      859.508
09/18/2013  18:18:00      185.119       95.123       32.521       72.381       57.544       50.735     5239.048     3311.266     2574.080        2.775        0.556      208.129       28.006        0.018      344.329       21.068      859.515
09/18/2013  18:19:00      126.436       71.303       23.700       72.023       59.520       36.806     5187.353     3542.644     1354.691        1.586        0.504      145.156       25.863        0.032      344.324       21.060      859.519
09/18/2013  18:20:00      165.094      124.731       43.222       66.580       52.066       48.980     4432.946     2710.874     2399.017        2.711        0.477      206.915       28.310        0.019      344.334       21.076      859.524
09/18/2013  18:21:00      174.185       99.491       25.662       49.654       41.656       37.798     2465.498     1735.205     1428.706        2.326        0.281      200.596       25.556        0.016      344.330       21.070      859.517
09/18/2013  18:22:00      118.318       74.476       15.938       47.144       31.720       30.572     2222.529     1006.163      934.655        1.198        0.208      139.807       23.551        0.028      344.294       21.009      859.516
09/18/2013  18:23:00      106.562       67.994       12.551       38.192       26.296       26.485     1458.618      691.485      701.471        0.949        0.143      126.407       16.483        0.017      344.339       21.087      859.528
09/18/2013  18:24:00      116.901       73.631       28.162       47.212       41.828       39.518     2228.990     1749.614     1561.657        1.271        0.277      138.157       22.713        0.027      344.249       20.934      859.542
09/18/2013  18:25:00      155.825       91.827       20.002       61.547       53.860       41.049     3787.978     2900.890     1685.034        2.074        0.419      180.870       17.417        0.009      344.295       21.010      859.550
09/18/2013  18:26:00      145.591       98.801       10.789       68.219       39.220       32.036     4653.770     1538.225     1026.323        1.915        0.361      175.949       22.483        0.016      344.327       21.065      859.556
09/18/2013  18:27:00       83.422       66.797       18.139       44.349       34.823       24.492     1966.842     1212.654      599.838        0.776        0.189      106.869       17.414        0.027      344.163       20.787      859.564
09/18/2013  18:28:00       96.493       76.552       23.012       40.769       24.369       28.979     1662.136      593.824      839.754        0.940        0.155      123.171       22.617        0.034      344.361       21.125      859.580
09/18/2013  18:29:00       83.894       51.103       15.772       39.549       31.549       23.228     1564.144      995.352      539.559        0.650        0.155       98.233       17.135        0.030      344.333       21.077      859.598
09/18/2013  18:30:00       91.767       48.016       26.466       34.650       25.108       24.289     1200.622      630.392      589.950        0.692        0.121      103.570        8.675        0.007      344.021       20.545      859.612
09/18/2013  18:31:00       66.881       82.364       -4.667       51.556       45.391       39.279     2658.062     2060.313     1542.867        0.877        0.313      106.098       36.430        0.118      344.193       20.838      859.617
09/18/2013  18:32:00       92.645       63.036       18.286       63.325       36.069       38.799     4010.118     1300.986     1505.386        0.985        0.341      112.056       28.982        0.067      344.184       20.823      859.624
09/18/2013  18:33:00      101.528       79.894       16.309       61.905       57.862       50.627     3832.189     3348.020     2563.113        1.335        0.487      129.194       36.614        0.080      344.242       20.922      859.641
09/18/2013  18:34:00      134.291      107.134       15.049       51.160       36.492       36.662     2617.337     1331.676     1344.111        1.751        0.265      171.790       25.389        0.022      344.224       20.890      859.644
09/18/2013  18:35:00       99.559       74.415       21.750       51.537       36.941       32.684     2656.030     1364.602     1068.250        1.050        0.254      124.297       18.321        0.022      344.217       20.880      859.649
09/18/2013  18:36:00       78.728       58.480       19.437       52.767       36.117       31.238     2784.343     1304.460      975.783        0.753        0.253       98.072       17.664        0.032      344.145       20.757      859.654
09/18/2013  18:37:00      110.389       71.948       30.460       34.273       23.009       26.040     1174.619      529.416      678.095        1.034        0.119      131.765       15.086        0.013      344.180       20.816      859.665
09/18/2013  18:38:00       90.932       86.871       27.786       51.805       30.596       36.528     2683.723      936.109     1334.268        1.077        0.248      125.759       29.123        0.054      344.145       20.758      859.669
09/18/2013  18:39:00       60.572       75.878       12.746       52.570       39.910       38.548     2763.651     1592.828     1485.920        0.771        0.292       97.090       26.710        0.076      344.198       20.847      859.682
09/18/2013  18:40:00       58.813       51.234       19.142       35.249       35.330       27.084     1242.493     1248.220      733.553        0.484        0.161       77.999       23.493        0.091      343.923       20.379      859.688
09/18/2013  18:41:00      128.657       75.468       23.403       47.971       32.652       34.752     2301.242     1066.121     1207.711        1.368        0.229      149.158       23.732        0.025      344.121       20.716      859.701
09/18/2013  18:42:00      139.633      102.927       29.974       50.608       37.343       33.266     2561.166     1394.534     1106.604        1.803        0.253      173.469       17.212        0.010      344.101       20.679      859.702
09/18/2013  18:43:00      139.173      101.474       26.257       48.722       39.471       37.201     2373.837     1557.943     1383.901        1.783        0.266      172.238       21.738        0.016      344.103       20.684      859.700
09/18/2013  18:44:00      120.850       91.684       37.766       33.063       26.227       28.900     1093.143      687.852      835.204        1.353        0.131      151.692       15.542        0.010      344.117       20.708      859.705
09/18/2013  18:45:00       88.813       70.737       15.703       39.914       31.000       21.067     1593.114      960.983      443.814        0.807        0.150      113.541       14.659        0.017      344.079       20.643      859.698
09/18/2013  18:46:00      120.867       86.469       30.362       38.238       29.540       29.962     1462.118      872.587      897.706        1.312        0.162      148.612       21.794        0.022      344.141       20.750      859.693
09/18/2013  18:47:00       83.364       65.527       27.540       30.081       23.414       23.221      904.860      548.200      539.220        0.700        0.100      106.035       15.285        0.021      344.084       20.652      859.695
09/18/2013  18:48:00       85.460       61.718       19.821       42.566       27.610       23.383     1811.882      762.289      546.787        0.731        0.156      105.416       16.363        0.024      344.129       20.729      859.690
09/18/2013  18:49:00       96.238       63.278       23.988       42.787       30.797       28.854     1830.714      948.465      832.541        0.873        0.181      115.178       19.005        0.027      343.899       20.335      859.689
09/18/2013  18:50:00       97.528       63.373       23.778       25.894       31.087       23.588      670.495      966.379      556.388        0.814        0.110      116.310       16.850        0.021      344.043       20.582      859.700
09/18/2013  18:51:00       82.067       63.005       15.237       36.303       24.535       24.404     1317.874      601.949      595.565        0.673        0.126      103.463       10.883        0.011      343.898       20.335      859.703
09/18/2013  18:52:00       85.377       63.253       26.016       31.896       25.640       25.687     1017.347      657.396      659.836        0.715        0.117      106.255       16.618        0.024      343.905       20.347      859.712
09/18/2013  18:53:00       93.002       64.672       22.062       25.734       24.743       22.811      662.254      612.222      520.338        0.756        0.090      113.278       16.269        0.021      343.932       20.394      859.716
09/18/2013  18:54:00       75.439       70.770       23.478       31.374       23.019       19.370      984.319      529.890      375.179        0.657        0.094      103.438        9.571        0.009      343.903       20.343      859.727
09/18/2013  18:55:00       95.978       59.392       17.054       18.926       22.473       28.781      358.194      505.018      828.332        0.736        0.085      112.868       15.834        0.020      343.751       20.083      859.731
09/18/2013  18:56:00       51.854       63.856        3.106       39.282       36.018       25.540     1543.091     1297.271      652.312        0.513        0.175       82.258       16.504        0.040      343.832       20.221      859.740
09/18/2013  18:57:00      153.320      115.832       33.904       75.632       52.509       57.193     5720.160     2757.232     3270.984        2.491        0.587      192.157       21.167        0.012      343.981       20.472      859.733
09/18/2013  18:58:00      137.097       96.183       30.831       86.340       56.373       44.583     7454.579     3177.876     1987.683        2.081        0.631      167.471       25.317        0.023      343.813       20.188      859.751
09/18/2013  18:59:00      134.428       88.730       19.302       89.991       47.073       46.334     8098.387     2215.897     2146.846        1.939        0.623      161.071       20.215        0.016      343.770       20.114      859.753
09/18/2013  19:00:00       44.271      112.743       -8.876       44.864       77.431       39.432     2012.802     5995.506     1554.912        1.215        0.478      121.123       36.637        0.091      343.814       20.191      859.758
09/18/2013  19:01:00       82.107       79.084       11.450       61.187       56.980       44.527     3743.821     3246.774     1982.630        1.105        0.449      114.000       34.678        0.093      343.793       20.154      859.756
09/18/2013  19:02:00      114.958       86.663       30.064       45.297       38.223       38.625     2051.775     1461.021     1491.880        1.332        0.250      143.964       21.282        0.022      343.772       20.119      859.769
09/18/2013  19:03:00       90.251       74.261       19.177       68.483       42.177       42.494     4689.860     1778.860     1805.780        1.115        0.414      116.875       28.082        0.058      343.736       20.058      859.774
09/18/2013  19:04:00      174.743      141.503       24.929      103.385       60.069       57.730    10688.454     3608.309     3332.726        3.440        0.881      224.852       40.590        0.033      343.727       20.039      859.785
09/18/2013  19:05:00      151.721       95.250       10.735       81.462       65.051       47.864     6636.027     4231.666     2290.980        2.268        0.658      179.142       30.358        0.029      343.675       19.952      859.805
09/18/2013  19:06:00       45.534      112.895       18.721       53.796       68.595       52.808     2894.050     4705.271     2788.734        1.278        0.519      121.731       48.176        0.157      343.634       19.884      859.829
09/18/2013  19:07:00       54.402      112.476       -0.037       55.911       83.945       53.335     3126.075     7046.774     2844.591        1.431        0.651      124.942       46.767        0.140      343.649       19.908      859.844
09/18/2013  19:08:00       41.845      110.989       -6.866       43.439       65.891       29.750     1886.950     4341.637      885.054        1.061        0.356      118.615       32.521        0.075      343.618       19.856      859.853
09/18/2013  19:09:00       42.777      216.173      -28.456       44.385       70.538       37.755     1970.009     4975.555     1425.408        2.887        0.419      220.365       41.664        0.036      343.641       19.892      859.852
09/18/2013  19:10:00       43.046      104.035        6.654       42.760       57.004       37.263     1828.381     3249.437     1388.515        0.959        0.323      112.589       38.136        0.115      343.546       19.734      859.857
09/18/2013  19:11:00       39.512       97.878       -8.245       36.840       50.624       27.407     1357.160     2562.752      751.121        0.794        0.234      105.553       24.793        0.055      343.509       19.671      859.858
09/18/2013  19:12:00       69.429       61.209       14.824       38.295       38.693       36.229     1466.484     1497.182     1312.565        0.653        0.214       92.558       26.956        0.085      343.535       19.715      859.862
09/18/2013  19:13:00       64.928       95.278      -10.317       44.086       46.151       33.114     1943.612     2129.959     1096.550        0.928        0.259      115.298       31.555        0.075      343.501       19.656      859.864
09/18/2013  19:14:00       21.408      125.809       -1.145       38.464       53.840       25.697     1479.488     2898.797      660.336        1.066        0.252      127.618       23.794        0.035      343.554       19.747      859.870
09/18/2013  19:15:00       34.512       62.005        0.932       30.718       31.836       25.969      943.581     1013.522      674.399        0.383        0.132       70.963       15.418        0.047      343.488       19.634      859.883
09/18/2013  19:16:00       47.653      104.241       -4.675       49.329       62.419       44.935     2433.370     3896.161     2019.137        1.075        0.417      114.616       38.748        0.114      343.511       19.674      859.898
09/18/2013  19:17:00       77.134       56.332       13.058       48.225       36.200       26.743     2325.662     1310.407      715.209        0.682        0.218       95.515       19.945        0.044      343.433       19.539      859.916
09/18/2013  19:18:00       76.660       69.193        4.331       39.476       25.831       30.270     1558.349      667.255      916.258        0.691        0.157      103.269       21.236        0.042      343.376       19.444      859.929
09/18/2013  19:19:00       55.210       73.445        3.485       35.202       27.097       19.151     1239.176      734.242      366.756        0.540        0.117       91.882       11.623        0.016      343.394       19.474      859.933
09/18/2013  19:20:00       35.436       60.541       -4.363       25.665       40.911       28.066      658.667     1673.704      787.699        0.403        0.156       70.150       26.524        0.143      343.331       19.366      859.942
09/18/2013  19:21:00       25.696       69.633       -4.255       26.947       34.340       19.990      726.129     1179.211      399.609        0.392        0.115       74.223       20.532        0.077      343.385       19.459      859.955
09/18/2013  19:22:00       33.765       57.747        3.900       24.928       26.710       25.041      621.421      713.444      627.058        0.323        0.098       66.893       21.536        0.104      343.382       19.454      859.977
09/18/2013  19:23:00       26.436      110.818      -16.896       24.870       26.036       14.690      618.525      677.855      215.792        0.739        0.076      113.928       11.105        0.010      343.428       19.531      860.002
09/18/2013  19:24:00        3.914       52.079       -6.372       21.908       20.219       14.024      479.953      408.794      196.666        0.193        0.054       52.226        8.801        0.028      343.341       19.383      860.022
09/18/2013  19:25:00        8.261      131.513      -18.814       19.153       30.494       10.191      366.841      929.859      103.866        0.956        0.070      131.772        9.769        0.005      343.459       19.585      860.037
09/18/2013  19:26:00       -0.282      111.248      -12.657       20.114       28.314       16.250      404.580      801.698      264.060        0.700        0.074      111.248       15.202        0.019      343.383       19.456      860.057
09/18/2013  19:27:00       14.051       87.671       -5.604       16.794       37.033       14.239      282.030     1371.446      202.735        0.489        0.093       88.789       14.931        0.028      343.361       19.418      860.074
09/18/2013  19:28:00        6.504      122.782      -15.137       22.684       27.059       15.156      514.585      732.195      229.715        0.841        0.074      122.954       15.244        0.015      343.358       19.414      860.087
09/18/2013  19:29:00      -13.832      125.083      -19.048       29.311       34.737       12.985      859.163     1206.691      168.603        0.922        0.112      125.845       15.615        0.015      343.380       19.450      860.099
09/18/2013  19:30:00      -33.217      131.735      -21.445       31.879       21.881       16.281     1016.291      478.767      265.065        1.034        0.088      135.858        7.984        0.003      343.403       19.490      860.104
09/18/2013  19:31:00       25.113      108.076      -10.024       23.648       24.989       21.408      559.236      624.471      458.290        0.703        0.082      110.956       15.504        0.020      343.254       19.236      860.111
09/18/2013  19:32:00        6.844      117.180      -20.665       17.855       23.961       11.006      318.788      574.124      121.140        0.761        0.051      117.380        9.257        0.006      343.374       19.440      860.110
09/18/2013  19:33:00      -31.549       68.240      -15.050       27.519       34.930        9.798      757.283     1220.081       96.002        0.398        0.104       75.180        8.588        0.013      343.330       19.364      860.110
09/18/2013  19:34:00      -53.581       10.132        3.384       22.850       15.506       12.912      522.106      240.423      166.716        0.196        0.046       54.531        9.550        0.031      343.279       19.279      860.106
09/18/2013  19:35:00      -48.035       19.396       -4.968       25.381       15.438       17.860      644.197      238.329      318.975        0.195        0.060       51.804       16.598        0.103      343.212       19.165      860.114
09/18/2013  19:36:00      -54.454       50.144      -11.605       33.202       64.202       18.168     1102.363     4121.936      330.070        0.558        0.278       74.024       28.144        0.145      343.244       19.218      860.133
09/18/2013  19:37:00     -101.081      114.311      -26.252       50.586       53.969       24.147     2558.990     2912.684      583.087        1.501        0.303      152.592       27.272        0.032      343.095       18.963      860.156
09/18/2013  19:38:00     -148.180      164.437      -42.417       40.635       50.503       23.362     1651.206     2550.524      545.772        2.777        0.237      221.352       20.085        0.008      343.041       18.869      860.165
09/18/2013  19:39:00     -163.451      195.978      -55.416       65.655       61.229       33.720     4310.523     3749.011     1137.071        3.869        0.460      255.193       35.938        0.020      343.004       18.806      860.184
09/18/2013  19:40:00      -71.890      144.609      -19.324       38.948       49.648       25.259     1516.916     2464.880      638.029        1.554        0.231      161.493       25.412        0.025      342.913       18.653      860.206
09/18/2013  19:41:00      -33.713      101.772       -2.913       32.030       57.602       22.498     1025.950     3317.964      506.145        0.818        0.243      107.210       28.376        0.070      342.830       18.515      860.218
09/18/2013  19:42:00      -73.433      104.774      -13.790       65.831       63.876       29.864     4333.745     4080.167      891.857        1.293        0.465      127.945       23.856        0.035      342.893       18.622      860.232
09/18/2013  19:43:00      -58.560      155.524      -15.431       62.068       87.443       32.169     3852.431     7646.210     1034.837        2.019        0.627      166.183       30.918        0.035      342.909       18.648      860.246
09/18/2013  19:44:00      -57.163      124.695      -20.381       39.153       46.892       28.513     1532.977     2198.816      812.997        1.189        0.227      137.173       24.686        0.032      342.880       18.599      860.252
09/18/2013  19:45:00     -120.187      166.891      -32.158       58.034       60.585       36.663     3367.906     3670.506     1344.201        2.586        0.419      205.664       26.236        0.016      342.888       18.612      860.261
09/18/2013  19:46:00      -72.762      102.253      -10.794       43.403       60.230       31.276     1883.825     3627.664      978.165        1.118        0.324      125.499       26.245        0.044      342.857       18.559      860.275
09/18/2013  19:47:00     -116.426      106.785      -11.025       50.879       60.311       35.991     2588.722     3637.459     1295.383        1.630        0.376      157.981       24.896        0.025      342.873       18.588      860.294
09/18/2013  19:48:00      -63.051      115.621       -6.139       39.530       47.910       37.504     1562.619     2295.395     1406.547        1.132        0.263      131.695       31.635        0.058      342.847       18.543      860.315
09/18/2013  19:49:00      -99.131      133.906      -10.583       59.707       53.854       41.557     3564.893     2900.233     1727.017        1.803        0.410      166.606       36.003        0.047      342.873       18.585      860.335
09/18/2013  19:50:00      -94.843      163.400      -18.025       37.241       57.171       33.294     1386.881     3268.569     1108.480        2.089        0.288      188.931       25.195        0.018      342.884       18.604      860.343
09/18/2013  19:51:00      -67.632      120.369       -9.659       53.105       69.173       33.040     2820.101     4784.857     1091.670        1.392        0.435      138.068       30.756        0.050      342.869       18.579      860.358
09/18/2013  19:52:00      -94.828       94.203       -6.387       60.847       77.834       42.536     3702.312     6058.204     1809.300        1.474        0.578      133.666       42.066        0.099      342.953       18.723      860.371
09/18/2013  19:53:00      -70.565       99.708      -12.645       43.994       38.062       28.308     1935.431     1448.705      801.362        0.963        0.209      122.152       27.340        0.050      342.929       18.681      860.398
09/18/2013  19:54:00      -43.294       93.782       -4.728       54.066       48.081       30.827     2923.179     2311.814      950.305        0.844        0.309      103.293       33.828        0.107      342.880       18.599      860.424
09/18/2013  19:55:00      -62.380      107.615      -20.259       78.927       48.071       28.828     6229.477     2310.787      831.045        1.263        0.469      124.388       24.979        0.040      342.910       18.651      860.444
09/18/2013  19:56:00      -52.046       96.419       -1.181       51.469       46.446       36.263     2649.095     2157.218     1314.977        0.906        0.306      109.569       30.565        0.078      342.826       18.507      860.469
09/18/2013  19:57:00      -67.177      110.247      -13.929       38.287       74.719       28.563     1465.892     5582.990      815.818        1.236        0.393      129.101       28.861        0.050      342.923       18.673      860.491
09/18/2013  19:58:00      -64.323      124.905      -13.269       46.877       42.004       28.451     2197.438     1764.351      809.480        1.234        0.239      140.494       29.306        0.044      342.897       18.629      860.506
09/18/2013  19:59:00      -91.321      101.009      -17.805       44.971       50.695       28.378     2022.390     2569.961      805.288        1.213        0.270      136.170       26.913        0.039      342.932       18.688      860.510
09/18/2013  20:00:00      -12.824       79.295       -1.172       38.774       42.327       24.901     1503.443     1791.536      620.037        0.518        0.196       80.325       23.600        0.086      342.771       18.413      860.531
09/18/2013  20:01:00      -68.852       96.643      -24.245       39.243       47.871       22.919     1540.031     2291.650      525.286        0.951        0.218      118.661       21.033        0.031      342.821       18.498      860.549
09/18/2013  20:02:00      -27.009      129.233       -9.988       59.900       54.529       35.911     3588.029     2973.363     1289.617        1.269        0.393      132.026       35.377        0.072      342.751       18.380      860.562
09/18/2013  20:03:00       -7.899      155.882      -23.370       42.072       71.559       19.353     1770.051     5120.748      374.541        1.609        0.363      156.082       19.609        0.016      342.794       18.450      860.573
09/18/2013  20:04:00      -54.243       73.948       -9.720       47.319       51.976       26.775     2239.134     2701.475      716.886        0.708        0.283       91.709       27.627        0.091      342.788       18.443      860.581
09/18/2013  20:05:00      -83.863      114.207       -9.571       61.513       68.266       34.384     3783.811     4660.302     1182.283        1.490        0.481      141.691       28.942        0.042      342.734       18.350      860.577
09/18/2013  20:06:00      -72.836      104.631       -7.843       52.196       54.475       35.310     2724.376     2967.497     1246.771        1.163        0.347      127.486       31.457        0.061      342.750       18.377      860.588
09/18/2013  20:07:00     -126.741      124.722      -20.031       64.328       69.815       45.755     4138.132     4874.189     2093.550        2.156        0.555      177.817       45.651        0.066      342.753       18.382      860.582
09/18/2013  20:08:00     -144.602      187.436      -39.194       51.087       67.735       37.987     2609.836     4588.056     1443.026        3.311        0.432      236.731       34.039        0.021      342.738       18.353      860.594
09/18/2013  20:09:00     -151.578      126.749      -23.266       52.383       68.559       32.042     2744.027     4700.327     1026.693        2.403        0.424      197.589       17.350        0.008      342.765       18.402      860.614
09/18/2013  20:10:00      -62.861      148.366      -19.249       47.572       69.567       29.136     2263.127     4839.542      848.906        1.714        0.398      161.134       30.348        0.035      342.697       18.287      860.638
09/18/2013  20:11:00      -25.387      191.053      -17.164       33.786       63.544       36.578     1141.513     4037.806     1337.963        2.198        0.326      192.732       36.512        0.036      342.640       18.189      860.653
09/18/2013  20:12:00     -145.782       97.330      -21.247       70.544       72.171       40.162     4976.512     5208.592     1612.986        2.149        0.590      175.287       50.246        0.082      342.645       18.197      860.668
09/18/2013  20:13:00     -125.776      150.630       -9.503       66.671       73.546       44.250     4445.076     5409.020     1958.106        2.520        0.591      196.237       34.329        0.031      342.614       18.145      860.682
09/18/2013  20:14:00     -160.815      170.579      -40.299       67.503       72.707       39.584     4556.715     5286.261     1566.860        3.399        0.570      234.432       42.318        0.033      342.700       18.290      860.694
09/18/2013  20:15:00     -118.872       84.968      -11.873       51.739       52.404       30.072     2676.915     2746.148      904.303        1.391        0.316      146.117       32.182        0.049      342.708       18.306      860.701
09/18/2013  20:16:00     -121.436      187.759      -26.755       67.329       92.879       43.207     4533.164     8626.449     1866.830        3.287        0.751      223.607       43.623        0.038      342.680       18.255      860.707
09/18/2013  20:17:00     -164.444      183.188      -40.988       56.609       82.518       41.364     3204.568     6809.228     1711.012        3.700        0.586      246.170       38.694        0.025      342.708       18.302      860.718
09/18/2013  20:18:00     -121.161      168.784      -28.575       54.546       86.889       42.745     2975.241     7549.710     1827.132        2.817        0.618      207.769       46.033        0.049      342.645       18.195      860.726
09/18/2013  20:19:00      -73.706      179.077      -25.031       40.754       52.351       31.942     1660.880     2740.679     1020.266        2.177        0.271      193.652       32.744        0.029      342.643       18.193      860.740
09/18/2013  20:20:00      -50.913      206.573      -21.664       48.053       53.330       34.847     2309.067     2844.124     1214.295        2.605        0.318      212.755       20.002        0.009      342.622       18.157      860.754
09/18/2013  20:21:00      -59.459      147.780      -14.314       38.389       38.962       27.921     1473.715     1518.009      779.561        1.467        0.189      159.293       12.025        0.006      342.582       18.090      860.768
09/18/2013  20:22:00      -90.347      139.039      -24.797       57.849       42.052       26.883     3346.485     1768.371      722.694        1.697        0.292      165.815       25.625        0.024      342.569       18.069      860.795
09/18/2013  20:23:00      -90.662      165.425      -19.072       59.244       71.522       36.228     3509.817     5115.464     1312.499        2.294        0.497      188.640       31.345        0.028      342.525       17.993      860.813
09/18/2013  20:24:00     -134.056      195.646      -38.768       75.954       55.954       46.209     5768.957     3130.855     2135.264        3.439        0.552      237.167       46.757        0.039      342.530       18.001      860.823
09/18/2013  20:25:00     -138.804      124.550      -14.801      122.292       72.644       48.731    14955.446     5277.114     2374.702        2.880        1.130      186.492       57.017        0.093      342.482       17.920      860.837
09/18/2013  20:26:00      -53.403      110.348      -18.390       34.580       62.980       27.907     1195.788     3966.422      778.816        1.065        0.297      122.591       26.151        0.046      342.492       17.938      860.861
09/18/2013  20:27:00      -74.361      167.654      -20.069       50.050       73.126       33.609     2504.995     5347.413     1129.544        2.151        0.449      183.405       35.082        0.037      342.514       17.974      860.887
09/18/2013  20:28:00      -95.304      179.799      -28.638       64.634       77.622       38.948     4177.546     6025.153     1516.963        2.697        0.586      203.496       41.471        0.042      342.523       17.989      860.894
09/18/2013  20:29:00      -89.112      137.056      -20.830       60.295       86.167       35.202     3635.484     7424.792     1239.150        1.973        0.615      163.479       29.192        0.032      342.505       17.961      860.913
09/18/2013  20:30:00      -94.071      145.204      -33.896       70.604       61.310       38.803     4984.884     3758.896     1505.683        2.066        0.512      173.013       44.599        0.066      342.485       17.926      860.923
09/18/2013  20:31:00     -123.426      140.935      -27.830       58.722      104.785       38.695     3448.258    10979.978     1497.327        2.590        0.796      187.341       44.642        0.057      342.512       17.973      860.944
09/18/2013  20:32:00      -61.135      110.150       -3.764       39.459       68.095       33.603     1557.001     4636.994     1129.177        1.160        0.366      125.978       30.723        0.059      342.404       17.789      860.965
09/18/2013  20:33:00     -101.354      136.086      -20.473       53.436       70.838       40.822     2855.420     5018.018     1666.458        1.937        0.477      169.682       42.863        0.064      342.409       17.796      860.976
09/18/2013  20:34:00      -86.867      118.540      -12.984       43.944       63.125       34.148     1931.041     3984.743     1166.084        1.442        0.354      146.961       32.780        0.050      342.367       17.725      860.994
09/18/2013  20:35:00      -92.617      147.723      -26.245       59.581       73.555       38.715     3549.842     5410.276     1498.890        2.077        0.523      174.356       41.810        0.058      342.402       17.786      861.003
09/18/2013  20:36:00      -91.235      149.874      -20.107       39.155       63.936       26.494     1533.090     4087.822      701.930        1.876        0.316      175.459       23.955        0.019      342.359       17.711      861.021
09/18/2013  20:37:00     -100.367       47.648      -10.813       48.205       37.591       30.727     2323.695     1413.096      944.145        0.857        0.234      111.103       24.070        0.047      342.390       17.767      861.016
09/18/2013  20:38:00     -141.833      132.892      -27.308       60.984       60.191       35.050     3719.041     3622.927     1228.525        2.354        0.429      194.362       37.586        0.037      342.358       17.708      861.033
09/18/2013  20:39:00     -129.811       95.904      -21.752       56.084       47.095       28.526     3145.387     2217.904      813.755        1.635        0.309      161.395       26.747        0.027      342.387       17.760      861.050
09/18/2013  20:40:00     -114.582      119.947      -25.954       58.083       50.292       32.547     3373.653     2529.296     1059.328        1.757        0.348      165.881       35.805        0.047      342.329       17.661      861.072
09/18/2013  20:41:00     -110.735      100.402      -23.341       42.898       51.355       28.290     1840.252     2637.304      800.334        1.408        0.264      149.475       24.409        0.027      342.393       17.772      861.092
09/18/2013  20:42:00     -114.140       88.362      -19.246       44.391       56.812       33.405     1970.529     3227.595     1115.883        1.376        0.316      144.346       13.336        0.009      342.397       17.778      861.117
09/18/2013  20:43:00     -120.560       51.161      -13.112       67.498       33.484       24.589     4556.031     1121.205      604.596        1.180        0.314      130.967       23.254        0.032      342.385       17.757      861.119
09/18/2013  20:44:00     -157.710      159.513      -43.427       61.547       50.443       37.097     3788.025     2544.491     1376.163        2.995        0.385      224.314       36.597        0.027      342.368       17.726      861.124
09/18/2013  20:45:00     -100.837       81.227      -20.972       31.739       62.406       25.672     1007.333     3894.505      659.033        1.138        0.278      129.483       26.222        0.041      342.435       17.842      861.121
09/18/2013  20:46:00     -145.738       78.355      -24.602       60.311       37.145       30.680     3637.389     1379.720      941.274        1.697        0.298      165.466       27.208        0.027      342.380       17.749      861.126
09/18/2013  20:47:00      -99.295       74.454       -6.935       31.775      111.129       27.335     1009.676    12349.745      747.197        1.478        0.705      124.109       23.247        0.035      342.321       17.648      861.127
09/18/2013  20:48:00     -100.921      117.142      -15.933       53.395       96.725       38.592     2850.995     9355.810     1489.329        1.893        0.685      154.620       44.447        0.083      342.330       17.662      861.139
09/18/2013  20:49:00      -98.004       91.401      -11.611       49.416       62.314       29.833     2441.958     3883.084      889.984        1.265        0.361      134.011       28.312        0.045      342.293       17.601      861.146
09/18/2013  20:50:00      -90.488      109.557      -12.172       44.665       75.510       27.161     1994.951     5701.800      737.742        1.439        0.422      142.094       31.016        0.048      342.265       17.553      861.154
09/18/2013  20:51:00     -117.891      191.865      -32.090       45.510       48.109       31.183     2071.153     2314.429      972.397        2.855        0.268      225.190       26.298        0.014      342.314       17.636      861.169
09/18/2013  20:52:00     -126.646      194.255      -34.125       53.949       56.374       33.904     2910.454     3178.074     1149.479        3.109        0.362      231.892       34.471        0.022      342.333       17.665      861.169
09/18/2013  20:53:00     -153.971      155.649      -47.167       41.700       54.540       29.431     1738.916     2974.596      866.155        2.787        0.279      218.938       25.432        0.013      342.332       17.663      861.189
09/18/2013  20:54:00      -94.559       74.050      -23.731       26.916       33.911       17.908      724.451     1149.952      320.692        0.859        0.110      120.103        3.673        0.001      342.292       17.597      861.198
09/18/2013  20:55:00      -55.022       65.469       -8.918       51.729       41.481       27.412     2675.904     1720.651      751.410        0.627        0.257       85.519       30.682        0.129      342.259       17.545      861.207
09/18/2013  20:56:00      -66.582       49.247       -7.889       50.113       27.550       25.401     2511.349      758.985      645.228        0.542        0.196       82.816       27.747        0.112      342.244       17.519      861.232
09/18/2013  20:57:00      -69.981       42.560      -17.683       38.121       41.761       19.480     1453.246     1744.004      379.489        0.530        0.179       81.907       23.868        0.085      342.298       17.610      861.241
09/18/2013  20:58:00      -76.259      135.002      -17.394       45.187       52.575       31.512     2041.850     2764.120      993.036        1.507        0.290      155.052       24.751        0.025      342.218       17.474      861.262
09/18/2013  20:59:00     -110.248      145.281      -18.164       65.683       67.002       36.423     4314.277     4489.260     1326.635        2.186        0.507      182.377       39.079        0.046      342.208       17.455      861.276
09/18/2013  21:00:00     -125.725      133.961      -23.819       53.983       65.712       35.330     2914.202     4318.112     1248.183        2.140        0.424      183.718       27.885        0.023      342.280       17.576      861.281
09/18/2013  21:01:00     -106.217       88.727      -25.062       32.619       43.593       22.101     1064.022     1900.380      488.441        1.162        0.173      138.400       18.313        0.018      342.233       17.499      861.299
09/18/2013  21:02:00      -87.933      130.674      -27.200       43.543       52.583       29.243     1896.034     2764.940      855.125        1.553        0.276      157.506       25.130        0.025      342.229       17.492      861.310
09/18/2013  21:03:00     -101.912      106.219      -25.766       33.188       48.468       24.843     1101.447     2349.157      617.173        1.320        0.203      147.203       17.399        0.014      342.247       17.521      861.318
09/18/2013  21:04:00     -120.424       57.614      -17.533       34.648       69.310       27.404     1200.483     4803.830      750.960        1.244        0.338      133.497       22.839        0.029      342.224       17.482      861.334
09/18/2013  21:05:00     -102.650       50.747      -22.547       38.119       26.767       19.844     1453.031      716.499      393.773        0.809        0.128      114.509       14.784        0.017      342.213       17.464      861.346
09/18/2013  21:06:00     -108.494       66.120      -17.476       43.510       46.505       27.359     1893.087     2162.756      748.521        1.063        0.240      127.054       21.502        0.029      342.222       17.481      861.363
09/18/2013  21:07:00     -101.829       69.351      -17.367       48.074       29.207       22.386     2311.111      853.049      501.132        0.957        0.183      123.202       17.738        0.021      342.159       17.374      861.391
09/18/2013  21:08:00     -134.312       68.782      -22.472       53.544       48.857       29.084     2866.986     2387.007      845.865        1.469        0.305      150.899       24.650        0.027      342.221       17.478      861.411
09/18/2013  21:09:00     -120.383      116.582      -23.504       41.167       37.714       29.144     1694.760     1422.358      849.398        1.630        0.198      167.581       20.122        0.014      342.191       17.428      861.426
09/18/2013  21:10:00      -82.531      121.511      -17.250       53.604       76.838       32.602     2873.372     5904.146     1062.873        1.586        0.492      146.889       38.061        0.067      342.233       17.499      861.435
09/18/2013  21:11:00     -106.746      152.884      -34.322       59.295       47.312       33.501     3515.934     2238.403     1122.300        2.141        0.344      186.462       29.559        0.025      342.226       17.486      861.428
09/18/2013  21:12:00      -95.876       52.594      -15.883       49.014       47.600       29.588     2402.325     2265.734      875.474        0.888        0.277      109.354       25.986        0.056      342.220       17.478      861.418
09/18/2013  21:13:00     -104.270       81.278       -7.946       64.301       68.696       43.737     4134.573     4719.190     1912.929        1.415        0.538      132.206       44.325        0.112      342.218       17.473      861.417
09/18/2013  21:14:00     -132.092      108.833      -17.214       68.469       71.555       42.165     4687.995     5120.119     1777.868        2.059        0.579      171.152       47.373        0.077      342.210       17.457      861.408
09/18/2013  21:15:00     -132.409      130.074      -30.709       55.131       66.739       33.453     3039.404     4454.099     1119.076        2.200        0.431      185.611       32.875        0.031      342.189       17.421      861.407
09/18/2013  21:16:00     -111.688      166.012      -26.010       67.291       57.678       37.755     4528.077     3326.712     1425.405        2.499        0.464      200.085       39.365        0.039      342.224       17.482      861.415
09/18/2013  21:17:00     -135.429      144.851      -26.951       41.730       46.380       30.297     1741.363     2151.082      917.929        2.243        0.241      198.300       25.456        0.016      342.241       17.511      861.423
09/18/2013  21:18:00     -114.646      138.204      -25.334       53.293       72.732       34.363     2840.150     5289.872     1180.791        2.110        0.466      179.567       40.721        0.051      342.241       17.510      861.433
09/18/2013  21:19:00     -133.643      126.795      -37.613       54.098       62.336       35.017     2926.628     3885.724     1226.193        2.169        0.402      184.221       36.899        0.040      342.233       17.496      861.442
09/18/2013  21:20:00      -95.398       98.829      -18.135       40.523       50.649       29.803     1642.133     2565.282      888.222        1.215        0.255      137.361       22.086        0.026      342.213       17.465      861.472
09/18/2013  21:21:00      -99.867      129.396      -24.164       47.459       46.230       27.292     2252.345     2137.251      744.853        1.622        0.257      163.452       27.815        0.029      342.189       17.423      861.489
09/18/2013  21:22:00     -124.077      134.081      -24.632       66.822       58.682       42.417     4465.237     3443.629     1799.187        2.184        0.485      182.682       32.899        0.032      342.202       17.445      861.499
09/18/2013  21:23:00     -106.809      115.025      -23.121       38.067       39.370       25.025     1449.101     1550.015      626.264        1.440        0.181      156.968       22.086        0.020      342.185       17.418      861.497
09/18/2013  21:24:00     -106.086       93.353      -21.120       36.249       63.714       28.065     1314.010     4059.425      787.644        1.329        0.308      141.312       18.163        0.017      342.226       17.486      861.505
09/18/2013  21:25:00      -90.597      101.230       -7.993       52.483       85.829       30.775     2754.474     7366.626      947.101        1.479        0.553      135.851       27.509        0.041      342.176       17.403      861.499
09/18/2013  21:26:00      -90.334       47.846       -9.988       37.600       28.231       22.305     1413.774      797.016      497.512        0.663        0.135      102.223       20.953        0.042      342.181       17.411      861.486
09/18/2013  21:27:00     -130.322       63.514      -23.212       38.558       41.459       27.272     1486.693     1718.866      743.786        1.275        0.197      144.975       20.492        0.020      342.291       17.597      861.478
09/18/2013  21:28:00     -101.333       32.570       -7.944       64.099       46.694       31.033     4108.647     2180.364      963.036        0.932        0.363      106.439       17.892        0.028      342.203       17.447      861.466
09/18/2013  21:29:00     -115.119      105.368      -31.711       37.876       39.590       25.631     1434.572     1567.385      656.953        1.451        0.183      156.060       22.529        0.021      342.259       17.542      861.462
09/18/2013  21:30:00     -120.357      145.595      -36.916       64.238       44.441       30.420     4126.561     1974.999      925.357        2.204        0.351      188.902       35.253        0.035      342.219       17.474      861.462
09/18/2013  21:31:00      -84.288      109.622      -20.237       35.843       49.283       21.518     1284.725     2428.836      463.027        1.185        0.209      138.280       21.027        0.023      342.183       17.413      861.472
09/18/2013  21:32:00      -87.559       32.119       -5.481       54.139       44.402       33.107     2931.046     1971.527     1096.047        0.736        0.300       93.265       28.394        0.093      342.189       17.426      861.474
09/18/2013  21:33:00     -124.356      100.941      -31.201       34.314       43.238       25.561     1177.457     1869.544      653.380        1.516        0.185      160.167       26.734        0.028      342.184       17.415      861.470
09/18/2013  21:34:00     -112.966       73.579      -11.306       38.911       43.574       31.098     1514.069     1898.680      967.113        1.134        0.219      134.815       22.062        0.027      342.191       17.428      861.472
09/18/2013  21:35:00     -109.510      129.500      -16.838       60.645       71.433       38.874     3677.852     5102.731     1511.204        1.967        0.515      169.595       40.879        0.058      342.160       17.374      861.482
09/18/2013  21:36:00     -104.777      112.851      -21.661       51.964       51.590       42.467     2700.239     2661.499     1803.464        1.567        0.358      153.992       32.917        0.046      342.163       17.381      861.464
09/18/2013  21:37:00     -131.708      111.216      -30.767       41.655       67.554       29.319     1735.131     4563.512      859.585        1.891        0.358      172.383       35.515        0.042      342.201       17.444      861.463
09/18/2013  21:38:00      -64.934       81.025       -9.905       33.658       37.072       26.842     1132.834     1374.301      720.472        0.705        0.161      103.834       21.252        0.042      342.167       17.386      861.467
09/18/2013  21:39:00      -80.147       60.525      -10.214       32.232       37.854       20.546     1038.895     1432.952      422.118        0.654        0.145      100.433       15.261        0.023      342.160       17.375      861.461
09/18/2013  21:40:00      -99.250       52.427      -12.512       44.276       27.640       24.396     1960.384      763.956      595.148        0.804        0.166      112.246       20.667        0.034      342.168       17.390      861.455
09/18/2013  21:41:00     -125.323      133.526      -36.702       34.735       46.707       20.114     1206.552     2181.580      404.582        1.934        0.190      183.126       16.814        0.008      342.133       17.328      861.461
09/18/2013  21:42:00     -107.265       98.725      -30.499       26.490       37.204       25.511      701.719     1384.116      650.833        1.246        0.137      145.782       18.526        0.016      342.187       17.421      861.468
09/18/2013  21:43:00      -90.513       61.489      -14.115       52.911       45.918       28.219     2799.586     2108.448      796.301        0.894        0.285      109.424       25.484        0.054      342.093       17.262      861.467
09/18/2013  21:44:00     -140.662      124.453      -33.736       58.762       52.217       35.746     3452.955     2726.567     1277.755        2.193        0.373      187.815       36.269        0.037      342.226       17.484      861.467
09/18/2013  21:45:00     -121.266      103.887      -13.051       46.445       54.403       31.934     2157.148     2959.694     1019.782        1.590        0.307      159.681       30.432        0.036      342.111       17.291      861.479
09/18/2013  21:46:00     -129.593       72.601      -20.258       40.179       55.308       30.920     1614.382     3058.974      956.038        1.405        0.281      148.544       24.908        0.028      342.186       17.419      861.489
09/18/2013  21:47:00      -90.828       82.197       -6.402       54.262       50.585       31.166     2944.393     2558.880      971.337        1.076        0.324      122.499       29.744        0.059      342.119       17.306      861.489
09/18/2013  21:48:00     -116.221      132.904      -30.255       64.132       91.015       32.565     4112.914     8283.716     1060.464        2.277        0.673      176.553       48.013        0.074      342.169       17.390      861.487
09/18/2013  21:49:00      -88.945       68.665      -16.433       38.142       41.832       20.987     1454.774     1749.914      440.463        0.827        0.182      112.366       22.003        0.038      342.136       17.335      861.499
09/18/2013  21:50:00      -98.381       60.553       -8.278       44.171       57.773       35.092     1951.089     3337.682     1231.465        0.997        0.326      115.523       24.116        0.044      342.113       17.295      861.507
09/18/2013  21:51:00     -121.498       79.941      -17.650       49.930       54.233       29.893     2493.003     2941.219      893.616        1.389        0.316      145.438       36.743        0.064      342.135       17.333      861.505
09/18/2013  21:52:00      -83.767       40.918      -11.764       22.153       25.718       11.949      490.744      661.399      142.787        0.506        0.065       93.226        5.619        0.004      342.101       17.274      861.498
09/18/2013  21:53:00      -57.003       21.137      -17.033       21.218       26.225       16.706      450.186      687.745      279.076        0.270        0.071       60.796       11.293        0.035      342.096       17.268      861.489
09/18/2013  21:54:00      -85.996        2.928      -15.690       45.519       41.206       26.372     2072.013     1697.908      695.484        0.606        0.223       86.046       25.363        0.087      342.028       17.151      861.476
09/18/2013  21:55:00      -28.950        0.847        9.220       37.820       27.519       17.512     1430.363      757.299      306.661        0.171        0.125       28.962       18.505        0.408      341.876       16.893      861.461
09/18/2013  21:56:00      -66.755      -14.326        0.253       29.333       27.463       13.530      860.414      754.213      183.051        0.323        0.090       68.275        9.068        0.018      341.955       17.027      861.437
09/18/2013  21:57:00      -61.992        4.996       -9.518       33.519       24.885       16.668     1123.518      619.285      277.823        0.299        0.101       62.192       12.611        0.041      341.916       16.962      861.425
09/18/2013  21:58:00      -61.420       21.354       -5.862       28.423       30.367       24.755      807.876      922.175      612.818        0.330        0.117       65.026       15.505        0.057      342.020       17.138      861.426
09/18/2013  21:59:00      -70.490        3.376       -6.901       19.721       30.391       19.577      388.929      923.605      383.251        0.336        0.085       70.571       10.076        0.020      341.993       17.092      861.426
09/18/2013  22:00:00      -44.487       12.597      -10.653       23.698       19.076       13.647      561.591      363.880      186.253        0.168        0.056       46.236        8.051        0.030      341.883       16.905      861.419
09/18/2013  22:01:00      -75.822      -12.895       -7.991       18.587       22.339        8.990      345.495      499.017       80.827        0.345        0.046       76.910        7.522        0.010      341.821       16.799      861.417
09/18/2013  22:02:00      -71.801      -10.381       -7.087       31.128       29.621       12.979      968.931      877.422      168.456        0.366        0.101       72.547        5.670        0.006      341.727       16.640      861.431
09/18/2013  22:03:00      -84.164       -8.270       -9.819       14.015       16.781       11.064      196.414      281.616      122.417        0.392        0.030       84.569        8.040        0.009      341.682       16.565      861.436
09/18/2013  22:04:00      -85.557      -21.328      -18.425       22.921       15.381        9.797      525.368      236.587       95.976        0.449        0.043       88.176        5.595        0.004      341.643       16.499      861.435
09/18/2013  22:05:00      -71.418       -2.002      -11.229       15.813       23.254       12.843      250.065      540.769      164.944        0.309        0.048       71.446        7.905        0.012      341.794       16.754      861.441
09/18/2013  22:06:00      -28.775      -18.377       -8.427       30.038       19.751       10.244      902.288      390.084      104.935        0.132        0.070       34.143        8.090        0.056      341.680       16.562      861.447
09/18/2013  22:07:00      -61.215       30.655      -14.673       27.028       64.333       24.103      730.499     4138.730      580.968        0.518        0.273       68.461       30.523        0.199      341.870       16.884      861.452
09/18/2013  22:08:00      -34.626       88.978      -14.263       24.648       45.530       24.369      607.526     2072.939      593.828        0.630        0.164       95.478       22.256        0.054      341.830       16.817      861.439
09/18/2013  22:09:00      -46.632       13.814      -12.203       17.286       29.738        7.841      298.822      884.322       61.487        0.188        0.062       48.635        7.865        0.026      341.642       16.499      861.436
09/18/2013  22:10:00      -10.948       -0.742       -6.032       14.106        4.487        5.407      198.976       20.136       29.231        0.020        0.012       10.973        5.107        0.217      341.614       16.449      861.423
09/18/2013  22:11:00       10.106       -1.203        5.400       16.677       15.182        8.227      278.117      230.498       67.691        0.035        0.029       10.178        5.464        0.288      341.601       16.426      861.421
09/18/2013  22:12:00       -4.606        6.872        5.852       11.534       10.796       12.281      133.030      116.547      150.827        0.025        0.020        8.273        6.257        0.572      341.535       16.315      861.421
09/18/2013  22:13:00       -6.352       10.467       19.440       14.133       10.590        8.964      199.751      112.153       80.349        0.046        0.020       12.244        4.278        0.122      341.355       16.009      861.415
09/18/2013  22:14:00       -1.245       26.775       39.825       10.696       21.145       12.805      114.411      447.130      163.958        0.151        0.036       26.804       10.183        0.144      341.164       15.686      861.422
09/18/2013  22:15:00        5.667       26.232       47.810       22.779       29.237       19.552      518.903      854.804      382.292        0.238        0.088       26.837       20.055        0.558      341.192       15.735      861.436
09/18/2013  22:16:00       15.074      -29.761       23.595       25.179       38.472       36.225      633.968     1480.109     1312.287        0.255        0.171       33.360       17.859        0.287      341.282       15.885      861.450
09/18/2013  22:17:00       38.921      -30.922       21.102       37.668       47.254       39.529     1418.849     2232.941     1562.572        0.406        0.261       49.709       34.921        0.494      341.231       15.801      861.458
09/18/2013  22:18:00       87.698     -108.726      -23.785       30.576       33.457       19.202      934.875     1119.343      368.722        1.125        0.121      139.686       12.538        0.008      341.233       15.805      861.474
09/18/2013  22:19:00       64.659      -76.283        2.869       49.833       45.363       24.630     2483.341     2057.777      606.621        0.758        0.257       99.999       27.333        0.075      341.244       15.823      861.490
09/18/2013  22:20:00       13.416      -36.292        5.694       24.501       27.817       18.673      600.308      773.801      348.671        0.163        0.086       38.692       15.022        0.151      341.282       15.885      861.508
09/18/2013  22:21:00       35.088      -49.737       12.592       25.256       45.319       23.804      637.843     2053.831      566.635        0.356        0.163       60.868       13.634        0.050      341.343       15.990      861.508
09/18/2013  22:22:00       18.526        0.870       20.952       23.399       19.110       18.976      547.492      365.193      360.106        0.103        0.064       18.546       14.857        0.642      341.243       15.821      861.500
09/18/2013  22:23:00       -4.801       -8.969       -0.014       27.879       20.481       13.529      777.261      419.457      183.029        0.074        0.069       10.173        9.545        0.880      341.201       15.749      861.500
09/18/2013  22:24:00       -3.380       -0.146        2.909        7.649       11.173        9.543       58.510      124.844       91.074        0.015        0.014        3.383        8.367        6.116      341.270       15.866      861.500
09/18/2013  22:25:00       -4.168        1.505        9.980       11.791        7.676        8.755      139.023       58.913       76.654        0.020        0.014        4.431        7.044        2.527      341.147       15.659      861.502
09/18/2013  22:26:00      -26.519        9.370       -8.819       17.136       16.931       18.000      293.650      286.645      323.997        0.089        0.045       28.125       13.751        0.239      341.332       15.972      861.487
09/18/2013  22:27:00      -62.915       -8.099       -9.022       15.540       14.589        7.984      241.497      212.830       63.744        0.231        0.026       63.434        7.803        0.015      341.233       15.804      861.487
09/18/2013  22:28:00      -54.457      -30.021       -8.316       19.862       10.153        7.891      394.487      103.091       62.275        0.225        0.028       62.184        6.166        0.010      341.143       15.652      861.502
09/18/2013  22:29:00      -29.749      -14.192       -2.369       27.389       12.672        9.433      750.131      160.580       88.978        0.105        0.050       32.961        5.741        0.030      341.112       15.600      861.510
09/18/2013  22:30:00      -55.990      -31.481       -1.379       16.699       13.120       11.321      278.844      172.145      128.163        0.235        0.029       64.234        5.655        0.008      341.169       15.696      861.515
09/18/2013  22:31:00      -80.106      -28.186       -4.652       13.279       15.130        9.142      176.342      228.908       83.574        0.386        0.024       84.920        6.367        0.006      341.160       15.679      861.528
09/18/2013  22:32:00      -82.559      -25.982      -10.706        9.140       15.132        8.303       83.544      228.982       68.935        0.399        0.019       86.551        4.730        0.003      341.130       15.628      861.543
09/18/2013  22:33:00      -66.881      -10.283       -6.724       15.253       16.534       10.732      232.655      273.380      115.175        0.262        0.031       67.667       10.978        0.026      341.083       15.550      861.549
09/18/2013  22:34:00      -68.135       -5.039       -9.440       10.528        7.454        9.054      110.845       55.568       81.966        0.250        0.012       68.321        5.532        0.007      341.133       15.636      861.554
09/18/2013  22:35:00      -72.980       -8.669      -12.948       11.851       10.962       10.356      140.452      120.171      107.238        0.297        0.018       73.493        5.101        0.005      341.156       15.675      861.563
09/18/2013  22:36:00     -108.909        0.345      -14.099       11.814        9.109        9.579      139.582       82.980       91.766        0.619        0.016      108.910        3.886        0.001      341.087       15.557      861.566
09/18/2013  22:37:00      -58.457      -19.667      -10.552       16.567       15.525       10.522      274.476      241.020      110.719        0.227        0.031       61.677       10.084        0.027      340.944       15.314      861.564
09/18/2013  22:38:00      -61.004       -6.043      -12.188       11.886        6.895        5.830      141.288       47.547       33.988        0.206        0.011       61.302        3.072        0.003      340.989       15.390      861.574
09/18/2013  22:39:00      -12.236       -2.742       -3.246       13.641        5.702        5.073      186.079       32.517       25.738        0.021        0.012       12.539        5.565        0.197      341.000       15.408      861.597
09/18/2013  22:40:00        9.037       -7.005       -2.698        7.859        9.434        5.823       61.766       89.004       33.905        0.016        0.009       11.434        3.459        0.092      340.922       15.277      861.609
09/18/2013  22:41:00       -7.991      -20.632       -4.158       15.807        7.504        7.923      249.867       56.307       62.773        0.044        0.018       22.125        4.935        0.050      340.915       15.265      861.602
09/18/2013  22:42:00      -75.473      -31.176       -9.310       24.898       22.598       13.577      619.917      510.665      184.338        0.403        0.066       81.659       12.626        0.024      340.817       15.100      861.596
09/18/2013  22:43:00     -110.736      -57.287      -13.970       21.557       20.400        9.448      464.695      416.152       89.260        0.835        0.049      124.677        4.083        0.001      340.742       14.974      861.585
09/18/2013  22:44:00     -111.968      -51.229      -14.117       15.521       16.558       11.127      240.915      274.161      123.818        0.800        0.032      123.131        8.132        0.004      340.676       14.861      861.574
09/18/2013  22:45:00      -85.458       -9.912      -10.387       17.673       10.504        8.617      312.348      110.325       74.257        0.400        0.025       86.030        7.245        0.007      340.688       14.881      861.570
09/18/2013  22:46:00      -55.039       13.043      -13.662        6.376       11.561        6.921       40.654      133.653       47.895        0.180        0.011       56.563        1.340        0.001      340.826       15.114      861.582
09/18/2013  22:47:00      -47.601       18.260       -7.895        8.860        6.725        4.673       78.508       45.226       21.837        0.140        0.007       50.983        4.080        0.006      340.963       15.345      861.591
09/18/2013  22:48:00      -27.996       18.307       -7.368       22.079       14.740        7.316      487.476      217.271       53.521        0.097        0.038       33.450        6.972        0.043      341.000       15.410      861.587
09/18/2013  22:49:00        3.673       32.999       -1.756       22.379       15.703        6.966      500.818      246.599       48.521        0.095        0.040       33.203        6.108        0.034      341.124       15.620      861.601
09/18/2013  22:50:00       36.469        4.380        5.759       22.268       14.332        9.406      495.856      205.400       88.473        0.109        0.039       36.732        6.776        0.034      341.000       15.409      861.623
09/18/2013  22:51:00        0.696       13.695        1.385       21.243       19.069       17.148      451.286      363.612      294.070        0.065        0.055       13.712       18.218        1.765      340.907       15.252      861.633
09/18/2013  22:52:00      -32.968      -14.037       -7.905        9.625       11.154        6.329       92.643      124.414       40.058        0.080        0.013       35.832        4.168        0.014      340.899       15.238      861.632
09/18/2013  22:53:00      -52.073      -13.234       -7.731        9.896        9.692        8.173       97.921       93.935       66.801        0.160        0.013       53.729        4.499        0.007      340.677       14.864      861.646
09/18/2013  22:54:00      -35.344      -20.818       -7.554       15.830        9.393       10.313      250.592       88.221      106.362        0.109        0.022       41.020        4.024        0.010      340.718       14.932      861.657
09/18/2013  22:55:00      -13.563      -15.346        5.734       15.929       10.710        8.097      253.741      114.715       65.569        0.044        0.022       20.481        5.584        0.074      340.558       14.662      861.667
09/18/2013  22:56:00      -69.774      -23.225       -9.494       25.639       11.030       10.113      657.337      121.663      102.275        0.319        0.044       73.538       12.726        0.030      340.552       14.652      861.670
09/18/2013  22:57:00     -106.188      -14.203      -18.208       11.616        9.313       10.546      134.927       86.729      111.216        0.607        0.017      107.134        5.763        0.003      340.612       14.752      861.673
09/18/2013  22:58:00      -95.681       -6.079      -14.393        7.361        8.106        8.381       54.187       65.707       70.233        0.479        0.010       95.874        4.065        0.002      340.607       14.745      861.661
09/18/2013  22:59:00      -90.892       -7.353      -15.128       12.272       12.336       12.060      150.595      152.181      145.448        0.450        0.022       91.189        5.025        0.003      340.560       14.663      861.654
09/18/2013  23:00:00      -73.404      -21.482      -14.481       14.231       11.571        9.448      202.512      133.881       89.258        0.324        0.021       76.483        6.840        0.008      340.570       14.683      861.653
09/18/2013  23:01:00      -65.929      -28.531       -5.784       14.843       26.318       14.548      220.321      692.658      211.657        0.316        0.056       71.837       11.947        0.028      340.455       14.487      861.651
09/18/2013  23:02:00     -107.591      -33.011      -16.388       28.757       25.036       16.450      826.951      626.785      270.608        0.733        0.086      112.541        7.311        0.004      340.407       14.406      861.640
09/18/2013  23:03:00      -99.850      -28.027       -9.415       26.912       21.643       17.312      724.258      468.420      299.694        0.617        0.075      103.709       10.667        0.011      340.374       14.349      861.629
09/18/2013  23:04:00     -103.529      -50.395       -7.672       26.046       21.186       13.025      678.382      448.829      169.650        0.731        0.065      115.143        9.831        0.007      340.328       14.272      861.639
09/18/2013  23:05:00      -16.069      -25.022        0.565       21.080       16.082       13.549      444.364      258.628      183.564        0.089        0.044       29.737        9.060        0.093      340.294       14.214      861.652
09/18/2013  23:06:00      -98.040      -33.372       -6.724       24.669       17.079       15.299      608.564      291.680      234.065        0.595        0.057      103.564       14.043        0.018      340.331       14.277      861.650
09/18/2013  23:07:00      -89.965      -38.709      -11.716       15.673       22.249       11.216      245.658      495.018      125.799        0.530        0.043       97.939        5.179        0.003      340.306       14.236      861.656
09/18/2013  23:08:00      -77.901      -27.076      -10.542       25.925       20.969       12.899      672.099      439.715      166.374        0.410        0.064       82.472       14.134        0.029      340.305       14.233      861.675
09/18/2013  23:09:00      -85.778      -28.052      -11.994       11.357       13.530        9.384      128.987      183.059       88.054        0.434        0.020       90.249        3.702        0.002      340.332       14.279      861.681
09/18/2013  23:10:00      -82.839      -33.518      -12.096       10.917       12.496       11.310      119.174      156.152      127.927        0.427        0.020       89.363        7.026        0.006      340.401       14.397      861.683
09/18/2013  23:11:00      -93.822      -42.140      -15.956        9.579       14.745       10.651       91.751      217.429      113.447        0.563        0.021      102.851        4.348        0.002      340.316       14.252      861.698
09/18/2013  23:12:00      -82.934      -41.613       -5.370       20.667       18.591       12.447      427.130      345.612      154.916        0.478        0.046       92.788        9.275        0.010      340.355       14.318      861.700
09/18/2013  23:13:00     -112.290      -36.203       -8.879       11.303       15.604       11.829      127.761      243.472      139.918        0.725        0.026      117.982        8.110        0.005      340.328       14.273      861.710
09/18/2013  23:14:00     -110.087      -33.087       -9.229       11.052       11.713        8.631      122.143      137.186       74.488        0.682        0.017      114.952        3.631        0.001      340.282       14.192      861.726
09/18/2013  23:15:00      -89.596      -35.799       -6.267       26.297       11.386        9.323      691.529      129.648       86.917        0.513        0.045       96.484        9.972        0.011      340.241       14.128      861.729
09/18/2013  23:16:00      -68.896      -41.867       -6.415       26.182       14.211       11.184      685.499      201.965      125.087        0.378        0.051       80.619        8.574        0.011      340.265       14.167      861.736
09/18/2013  23:17:00      -91.862      -41.728      -13.571       15.608       10.316        9.994      243.625      106.416       99.876        0.541        0.022      100.895        8.623        0.007      340.332       14.279      861.744
09/18/2013  23:18:00      -98.526      -34.940      -10.553       13.040       14.559        9.467      170.053      211.954       89.617        0.576        0.024      104.538        6.130        0.003      340.373       14.348      861.748
09/18/2013  23:19:00     -109.528      -37.062      -13.002        9.676       15.915        7.784       93.631      253.290       60.596        0.697        0.020      115.629        4.571        0.002      340.307       14.237      861.735
09/18/2013  23:20:00     -109.883      -39.876      -13.207        8.359       10.057        5.739       69.876      101.144       32.935        0.702        0.010      116.894        1.586        0.000      340.259       14.157      861.729
09/18/2013  23:21:00     -103.041      -33.428      -13.779       12.069       10.831        9.087      145.663      117.310       82.570        0.614        0.017      108.328        6.285        0.003      340.252       14.144      861.742
09/18/2013  23:22:00     -102.050      -13.138      -15.792       11.614       11.561       11.774      134.891      133.650      138.636        0.562        0.020      102.892        5.200        0.003      340.228       14.104      861.732
09/18/2013  23:23:00     -108.628       -4.053      -14.106       13.118       11.683       11.969      172.086      136.495      143.266        0.623        0.023      108.704        6.481        0.004      340.129       13.936      861.733
09/18/2013  23:24:00      -93.827       -9.790      -11.561       23.051       11.090       10.682      531.362      122.980      114.097        0.490        0.038       94.337        9.758        0.011      340.133       13.943      861.740
09/18/2013  23:25:00     -107.230      -34.808      -14.556        9.828       13.636       10.107       96.594      185.931      102.159        0.665        0.019      112.738        5.151        0.002      340.055       13.811      861.742
09/18/2013  23:26:00      -99.553      -37.117      -17.355       14.105       15.999       10.929      198.950      255.972      119.449        0.608        0.029      106.247        1.572        0.000      340.063       13.825      861.748
09/18/2013  23:27:00      -78.632      -45.506       -8.913       27.509       17.592       18.133      756.731      309.482      328.792        0.486        0.070       90.850       15.037        0.027      340.004       13.726      861.769
09/18/2013  23:28:00      -95.209      -55.148       -7.305       14.130       13.251        8.696      199.669      175.585       75.626        0.631        0.023      110.028        5.863        0.003      339.949       13.633      861.779
09/18/2013  23:29:00      -86.577      -57.683      -14.667       17.481       16.025       14.366      305.583      256.815      206.392        0.590        0.038      104.034        6.428        0.004      339.997       13.715      861.777
09/18/2013  23:30:00      -91.204       -8.422      -18.146       16.802       17.114       10.358      282.294      292.902      107.278        0.470        0.034       91.592        9.436        0.011      339.986       13.695      861.778
09/18/2013  23:31:00      -86.951       -6.371      -15.682       10.446       12.322       13.031      109.116      151.827      169.818        0.414        0.022       87.184        8.481        0.009      339.959       13.650      861.778
09/18/2013  23:32:00      -66.349       -8.823      -14.878       15.897       12.044        9.078      252.712      145.059       82.410        0.259        0.024       66.933        6.576        0.010      339.976       13.679      861.768
09/18/2013  23:33:00      -76.271      -14.327      -14.446        9.510        9.707        6.854       90.437       94.222       46.973        0.323        0.012       77.605        3.285        0.002      339.862       13.488      861.764
09/18/2013  23:34:00      -75.009      -19.439      -13.465       12.047        9.853        9.574      145.138       97.087       91.668        0.326        0.017       77.487        7.463        0.009      339.923       13.588      861.770
09/18/2013  23:35:00      -99.685      -14.754      -17.097       15.490        9.960        9.956      239.934       99.199       99.130        0.544        0.022      100.771        5.421        0.003      339.807       13.394      861.766
09/18/2013  23:36:00      -93.637      -33.669      -14.956       15.905       18.564       14.364      252.965      344.623      206.313        0.546        0.040       99.506        8.125        0.007      339.858       13.479      861.771
09/18/2013  23:37:00      -88.135      -39.537      -17.451       21.042       30.546       13.209      442.763      933.036      174.483        0.559        0.078       96.597       13.099        0.018      339.823       13.421      861.783
09/18/2013  23:38:00      -79.905      -39.670      -16.992       27.694       18.410       19.540      766.930      338.946      381.799        0.487        0.074       89.210       12.215        0.019      339.830       13.432      861.779
09/18/2013  23:39:00      -60.801      -38.485      -15.135       22.815       20.599       18.468      520.512      424.330      341.076        0.335        0.064       71.957       13.916        0.037      339.792       13.370      861.776
09/18/2013  23:40:00      -75.252      -39.940      -13.969       17.868       23.115       15.024      319.277      534.326      225.710        0.427        0.054       85.194       13.107        0.024      339.857       13.478      861.786
09/18/2013  23:41:00      -74.723      -22.011       -9.356       16.758       18.285       14.819      280.842      334.334      219.617        0.349        0.042       77.897        3.158        0.002      339.824       13.422      861.783
09/18/2013  23:42:00      -59.894      -29.750      -13.938       30.100       16.223       13.031      905.989      263.193      169.800        0.300        0.067       66.876       10.582        0.025      339.783       13.353      861.772
09/18/2013  23:43:00      -81.830      -40.358      -13.491       11.952       11.524       12.847      142.855      132.813      165.048        0.447        0.022       91.241        6.188        0.005      339.785       13.358      861.768
09/18/2013  23:44:00      -70.516      -27.299      -17.170       14.242       15.661       10.857      202.833      245.265      117.882        0.329        0.028       75.616        6.906        0.008      339.790       13.364      861.764
09/18/2013  23:45:00      -49.705      -35.802      -15.278       15.820       15.542       13.543      250.279      241.539      183.416        0.233        0.034       61.257       10.039        0.027      339.780       13.348      861.751
09/18/2013  23:46:00      -64.160      -27.139      -12.938       18.178       15.389       10.141      330.452      236.833      102.839        0.285        0.034       69.664        8.032        0.013      339.752       13.301      861.756
09/18/2013  23:47:00      -61.899      -23.154       -5.669       20.528       14.190       10.827      421.384      201.347      117.229        0.257        0.037       66.087        8.341        0.016      339.848       13.464      861.748
09/18/2013  23:48:00      -55.633      -21.039      -11.096       13.847       11.717        8.270      191.745      137.285       68.391        0.203        0.020       59.478        5.636        0.009      339.789       13.362      861.734
09/18/2013  23:49:00      -45.278      -11.781      -13.808        7.298       12.813        7.911       53.255      164.166       62.585        0.133        0.014       46.786        4.910        0.011      339.753       13.304      861.743
09/18/2013  23:50:00      -46.673       -8.777      -14.708        9.519       11.451        8.276       90.602      131.114       68.492        0.138        0.015       47.491        7.054        0.022      339.845       13.458      861.734
09/18/2013  23:51:00      -44.405      -31.539      -10.330       20.601       13.452       14.349      424.413      180.946      205.895        0.194        0.041       54.466        3.334        0.004      339.851       13.468      861.733
09/18/2013  23:52:00      -79.694      -20.629      -18.957       14.788       20.283       11.227      218.689      411.394      126.054        0.395        0.038       82.321        9.462        0.013      339.789       13.363      861.728
09/18/2013  23:53:00      -63.990      -36.967      -14.051       16.643       16.410       11.657      276.996      269.296      135.890        0.317        0.034       73.901        7.497        0.010      339.712       13.234      861.717
09/18/2013  23:54:00      -99.066      -32.361      -20.701       11.774       11.581        8.519      138.635      134.111       72.570        0.582        0.017      104.218        6.444        0.004      339.607       13.055      861.725
09/18/2013  23:55:00     -100.744      -38.384      -10.988       13.016       12.527       10.227      169.416      156.914      104.582        0.609        0.022      107.808        7.226        0.004      339.574       12.999      861.736
09/18/2013  23:56:00     -104.952      -32.402      -15.936       10.368       10.390        8.321      107.495      107.950       69.240        0.630        0.014      109.839        3.800        0.001      339.551       12.961      861.743
09/18/2013  23:57:00      -92.758      -23.097      -17.193       11.284       12.957       11.392      127.330      167.888      129.768        0.493        0.021       95.590        8.580        0.008      339.535       12.934      861.759
09/18/2013  23:58:00      -92.553      -21.957      -13.325       15.680       14.702        8.205      245.850      216.157       67.319        0.488        0.026       95.122        4.275        0.002      339.539       12.940      861.768
09/18/2013  23:59:00     -104.542      -21.131      -21.184       10.124       10.793        7.583      102.488      116.499       57.495        0.605        0.014      106.656        4.227        0.002      339.501       12.878      861.776
